[[{"header":{"parameterUnit":"m.s-1","parameterCategory":1,"la1":30.6,"la2":29.2853,"lo1":-89.7004,"lo2":-87.6739,"dy":0.0162,"dx":0.0183,"nx":112,"ny":82,"refTime":"2024-07-15T00:00:00:Z","depth":0,"parameterNumber":2,"parameterNumberName":"U-component_of_WINDS"},"data":[0.0,0.0,0.0,0.0,0.0,0.0,0.0,0.0,0.0,0.0,0.0,0.0,0.0,0.0,0.0,0.0,0.0,0.0,0.0,0.0,0.0,0.0,0.0,0.0,0.0,0.0,0.0,0.0,0.0,0.0,0.0,0.0,0.0,0.0,0.0,0.0,0.0,0.0,0.0,0.0,0.0,0.0,0.0,0.0,0.0,0.0,0.0,0.0,0.0,0.0,0.0,0.0,0.0,0.0,0.0,0.0,0.0,0.0,0.0,0.0,0.0,0.0,0.0,0.0,0.0,0.0,0.0,0.0,0.0,0.0,0.0,0.0,0.0,0.0,0.0,0.0,0.0,0.0,0.0,0.0,0.0,0.0,0.0,0.0,0.0,0.0,0.0,0.0,0.0,0.0,-3.2189,-3.2189,-3.2669,-3.2907,-3.2714,-3.2009,-3.1559,-3.1493,0.0,0.0,0.0,0.0,0.0,0.0,0.0,0.0,0.0,0.0,0.0,0.0,0.0,0.0,0.0,0.0,0.0,0.0,0.0,0.0,0.0,0.0,0.0,0.0,0.0,0.0,0.0,0.0,0.0,0.0,0.0,0.0,0.0,0.0,0.0,0.0,0.0,0.0,0.0,0.0,0.0,0.0,0.0,0.0,0.0,0.0,0.0,0.0,0.0,0.0,0.0,0.0,0.0,0.0,0.0,0.0,0.0,0.0,0.0,0.0,0.0,0.0,0.0,0.0,0.0,0.0,0.0,0.0,0.0,0.0,0.0,0.0,0.0,0.0,0.0,0.0,0.0,0.0,0.0,0.0,0.0,0.0,0.0,0.0,0.0,0.0,0.0,0.0,0.0,0.0,0.0,0.0,0.0,0.0,0.0,0.0,0.0,0.0,0.0,0.0,0.0,0.0,0.0,0.0,-3.3017,-3.3017,-3.2407,-3.1719,-3.0953,-3.0712,-3.0606,-3.0596,0.0,0.0,0.0,0.0,0.0,0.0,0.0,0.0,0.0,0.0,0.0,0.0,0.0,0.0,0.0,0.0,0.0,0.0,0.0,0.0,0.0,0.0,0.0,0.0,0.0,0.0,0.0,0.0,0.0,0.0,0.0,0.0,0.0,0.0,0.0,0.0,0.0,0.0,0.0,0.0,0.0,0.0,0.0,0.0,0.0,0.0,0.0,0.0,0.0,0.0,0.0,0.0,0.0,0.0,0.0,0.0,0.0,0.0,0.0,0.0,0.0,0.0,0.0,0.0,0.0,0.0,0.0,0.0,0.0,0.0,0.0,0.0,0.0,0.0,0.0,0.0,0.0,0.0,0.0,0.0,0.0,0.0,0.0,0.0,0.0,0.0,0.0,0.0,0.0,0.0,0.0,0.0,0.0,0.0,0.0,0.0,0.0,0.0,0.0,0.0,0.0,0.0,0.0,-3.1329,-3.1918,-3.2388,-3.1608,-3.0886,-3.0471,-3.0425,-3.0404,-3.0404,-2.8872,0.0,0.0,0.0,0.0,0.0,0.0,0.0,0.0,0.0,0.0,0.0,0.0,0.0,0.0,0.0,0.0,0.0,0.0,0.0,0.0,0.0,0.0,0.0,0.0,0.0,0.0,0.0,0.0,0.0,0.0,0.0,0.0,0.0,0.0,0.0,0.0,0.0,0.0,0.0,0.0,0.0,0.0,0.0,0.0,0.0,0.0,0.0,0.0,0.0,0.0,0.0,0.0,0.0,0.0,0.0,0.0,0.0,0.0,0.0,0.0,0.0,0.0,0.0,0.0,0.0,0.0,0.0,0.0,0.0,0.0,0.0,0.0,0.0,0.0,0.0,0.0,0.0,0.0,0.0,0.0,0.0,0.0,0.0,0.0,0.0,0.0,0.0,0.0,0.0,0.0,0.0,0.0,0.0,0.0,0.0,0.0,0.0,0.0,0.0,0.0,0.0,0.0,-3.1039,-3.081,-3.1671,-3.0945,-3.0404,-3.0404,-3.0404,-3.0404,-3.0404,-2.8617,0.0,0.0,0.0,0.0,0.0,0.0,0.0,0.0,0.0,0.0,0.0,0.0,0.0,0.0,0.0,0.0,0.0,0.0,0.0,0.0,0.0,0.0,0.0,0.0,0.0,0.0,0.0,0.0,0.0,0.0,0.0,0.0,0.0,0.0,0.0,0.0,0.0,0.0,0.0,0.0,0.0,0.0,0.0,0.0,0.0,0.0,0.0,0.0,0.0,0.0,0.0,0.0,0.0,0.0,0.0,0.0,0.0,0.0,0.0,0.0,0.0,0.0,0.0,0.0,0.0,0.0,0.0,0.0,0.0,0.0,0.0,0.0,0.0,0.0,0.0,0.0,0.0,0.0,0.0,0.0,0.0,0.0,0.0,0.0,0.0,0.0,0.0,0.0,0.0,0.0,0.0,0.0,0.0,0.0,0.0,0.0,0.0,0.0,0.0,0.0,0.0,0.0,-3.0947,-3.0748,-3.162,-3.091,-3.0404,-3.0404,-3.0404,-3.0404,-3.0404,-2.9143,0.0,0.0,0.0,0.0,0.0,0.0,0.0,0.0,0.0,0.0,0.0,0.0,0.0,0.0,0.0,0.0,0.0,0.0,0.0,0.0,0.0,0.0,0.0,0.0,0.0,0.0,0.0,0.0,0.0,0.0,0.0,0.0,0.0,0.0,0.0,0.0,0.0,0.0,0.0,0.0,0.0,0.0,0.0,0.0,0.0,0.0,0.0,0.0,0.0,0.0,0.0,0.0,0.0,0.0,0.0,0.0,0.0,0.0,0.0,0.0,0.0,0.0,0.0,0.0,0.0,0.0,0.0,0.0,0.0,0.0,0.0,0.0,0.0,0.0,0.0,0.0,0.0,0.0,0.0,0.0,0.0,0.0,0.0,0.0,0.0,0.0,0.0,0.0,0.0,0.0,0.0,0.0,0.0,0.0,0.0,0.0,0.0,0.0,0.0,0.0,0.0,0.0,-3.0596,-3.0538,-3.0846,-3.0596,-3.0404,-3.0404,-3.0404,-3.0404,-3.0404,0.0,0.0,0.0,0.0,0.0,0.0,0.0,0.0,0.0,0.0,0.0,0.0,0.0,0.0,0.0,0.0,0.0,0.0,0.0,0.0,0.0,0.0,0.0,0.0,0.0,0.0,0.0,0.0,0.0,0.0,0.0,0.0,0.0,0.0,0.0,0.0,0.0,0.0,0.0,0.0,0.0,0.0,0.0,0.0,0.0,0.0,0.0,0.0,0.0,0.0,0.0,0.0,0.0,0.0,0.0,0.0,0.0,0.0,0.0,0.0,0.0,0.0,0.0,0.0,0.0,0.0,0.0,0.0,0.0,0.0,0.0,0.0,0.0,0.0,0.0,0.0,0.0,0.0,0.0,0.0,0.0,0.0,0.0,0.0,0.0,0.0,0.0,0.0,0.0,0.0,0.0,0.0,0.0,0.0,0.0,0.0,0.0,0.0,0.0,0.0,0.0,0.0,-2.9813,-3.0231,-3.0404,-3.0404,-3.0404,-3.0404,-3.0404,-3.0404,-3.0251,-2.9902,0.0,0.0,0.0,0.0,0.0,0.0,0.0,0.0,0.0,0.0,0.0,0.0,0.0,0.0,0.0,0.0,0.0,0.0,0.0,0.0,0.0,0.0,0.0,0.0,0.0,0.0,0.0,0.0,0.0,0.0,0.0,0.0,0.0,0.0,0.0,0.0,0.0,0.0,0.0,0.0,0.0,0.0,0.0,0.0,0.0,0.0,0.0,0.0,0.0,0.0,0.0,0.0,0.0,0.0,0.0,0.0,0.0,0.0,0.0,0.0,0.0,0.0,0.0,0.0,0.0,0.0,0.0,0.0,0.0,0.0,0.0,0.0,0.0,0.0,0.0,0.0,0.0,0.0,0.0,0.0,0.0,0.0,0.0,0.0,0.0,0.0,0.0,0.0,0.0,0.0,0.0,0.0,0.0,0.0,0.0,0.0,0.0,0.0,0.0,0.0,0.0,0.0,-2.8992,-2.9871,-3.0404,-3.0404,-3.0404,-3.0404,-3.0404,-3.0404,-2.9946,0.0,0.0,0.0,0.0,0.0,0.0,0.0,0.0,0.0,0.0,0.0,0.0,0.0,0.0,0.0,0.0,0.0,0.0,0.0,0.0,0.0,0.0,0.0,0.0,0.0,0.0,0.0,0.0,0.0,0.0,0.0,0.0,0.0,0.0,0.0,0.0,0.0,0.0,0.0,0.0,0.0,0.0,0.0,0.0,0.0,0.0,0.0,0.0,0.0,0.0,0.0,0.0,0.0,0.0,0.0,0.0,0.0,0.0,0.0,0.0,0.0,0.0,0.0,0.0,0.0,0.0,0.0,0.0,0.0,0.0,0.0,0.0,0.0,0.0,0.0,0.0,0.0,0.0,0.0,0.0,0.0,0.0,0.0,0.0,0.0,0.0,0.0,0.0,0.0,0.0,0.0,0.0,0.0,0.0,0.0,0.0,0.0,0.0,0.0,0.0,0.0,0.0,0.0,-2.8992,-2.9871,-3.0404,-3.0404,-3.0404,-3.0404,-3.0404,-3.0404,-2.9946,-2.886,0.0,0.0,0.0,0.0,0.0,0.0,0.0,0.0,0.0,0.0,0.0,0.0,0.0,0.0,0.0,0.0,0.0,0.0,0.0,0.0,0.0,0.0,0.0,0.0,0.0,0.0,0.0,0.0,0.0,0.0,0.0,0.0,0.0,0.0,0.0,0.0,0.0,0.0,0.0,0.0,0.0,0.0,0.0,0.0,0.0,0.0,0.0,0.0,0.0,0.0,0.0,0.0,0.0,0.0,0.0,0.0,0.0,0.0,0.0,0.0,0.0,0.0,0.0,0.0,0.0,0.0,0.0,0.0,0.0,0.0,0.0,0.0,0.0,0.0,0.0,0.0,0.0,0.0,0.0,0.0,0.0,0.0,0.0,0.0,0.0,0.0,0.0,0.0,0.0,0.0,0.0,0.0,0.0,0.0,0.0,0.0,0.0,0.0,0.0,0.0,0.0,0.0,-2.8569,-2.966,-3.0404,-3.0404,-3.0404,-3.0404,-3.0404,-3.0404,-2.9946,-2.886,0.0,0.0,0.0,0.0,0.0,0.0,0.0,0.0,0.0,0.0,0.0,0.0,0.0,0.0,0.0,0.0,0.0,0.0,0.0,0.0,0.0,0.0,0.0,0.0,0.0,0.0,0.0,0.0,0.0,0.0,0.0,0.0,0.0,0.0,0.0,0.0,0.0,0.0,0.0,0.0,0.0,0.0,0.0,0.0,0.0,0.0,0.0,0.0,0.0,0.0,0.0,0.0,0.0,0.0,0.0,0.0,0.0,0.0,0.0,0.0,0.0,0.0,0.0,0.0,0.0,0.0,0.0,0.0,0.0,0.0,0.0,0.0,0.0,0.0,0.0,0.0,0.0,0.0,0.0,0.0,0.0,0.0,0.0,0.0,0.0,0.0,0.0,0.0,0.0,0.0,0.0,0.0,0.0,0.0,0.0,0.0,0.0,0.0,0.0,0.0,0.0,0.0,-2.7895,-2.9371,-3.0404,-3.0404,-3.0404,-3.0404,-3.0404,-3.0404,-2.9946,-2.886,0.0,0.0,0.0,0.0,0.0,0.0,0.0,0.0,0.0,0.0,0.0,0.0,0.0,0.0,0.0,0.0,0.0,0.0,0.0,0.0,0.0,0.0,0.0,0.0,0.0,0.0,0.0,0.0,0.0,0.0,0.0,0.0,0.0,0.0,0.0,0.0,0.0,0.0,0.0,0.0,0.0,0.0,0.0,0.0,0.0,0.0,0.0,0.0,0.0,0.0,0.0,0.0,0.0,0.0,0.0,0.0,0.0,0.0,0.0,0.0,-3.0195,0.0,0.0,0.0,0.0,0.0,0.0,0.0,0.0,0.0,0.0,0.0,0.0,0.0,0.0,0.0,0.0,0.0,0.0,0.0,0.0,0.0,0.0,0.0,0.0,0.0,0.0,0.0,0.0,0.0,0.0,0.0,0.0,0.0,0.0,0.0,0.0,0.0,0.0,0.0,0.0,0.0,-2.7895,-2.9371,-3.0404,-3.0404,-3.0404,-3.0404,-3.0404,-3.0404,-2.9946,-2.886,-2.8028,0.0,0.0,0.0,0.0,0.0,0.0,0.0,0.0,0.0,0.0,0.0,0.0,0.0,0.0,0.0,0.0,0.0,0.0,0.0,0.0,0.0,0.0,0.0,0.0,0.0,0.0,0.0,0.0,0.0,0.0,0.0,0.0,0.0,0.0,0.0,0.0,0.0,0.0,0.0,0.0,0.0,0.0,0.0,0.0,0.0,0.0,0.0,0.0,0.0,0.0,0.0,0.0,0.0,0.0,0.0,0.0,0.0,0.0,0.0,0.0,-3.045,0.0,0.0,0.0,0.0,0.0,0.0,0.0,0.0,0.0,0.0,0.0,0.0,0.0,0.0,0.0,0.0,0.0,0.0,0.0,0.0,0.0,0.0,0.0,0.0,0.0,0.0,0.0,0.0,0.0,0.0,0.0,0.0,0.0,0.0,0.0,0.0,0.0,0.0,0.0,0.0,-2.8434,-2.9602,-3.0404,-3.0404,-3.0404,-3.0404,-3.0404,-3.0404,-3.0113,-2.9412,-2.8431,0.0,0.0,0.0,0.0,0.0,0.0,0.0,0.0,0.0,0.0,0.0,0.0,0.0,0.0,0.0,0.0,0.0,0.0,0.0,0.0,0.0,0.0,0.0,0.0,0.0,0.0,0.0,0.0,0.0,0.0,0.0,0.0,0.0,0.0,0.0,0.0,0.0,0.0,0.0,0.0,0.0,0.0,0.0,0.0,0.0,0.0,0.0,0.0,0.0,0.0,0.0,0.0,0.0,-3.0857,-3.0838,-3.0744,-3.0857,-3.0898,-3.0898,-3.0771,-3.0723,-3.0718,0.0,0.0,0.0,0.0,0.0,0.0,0.0,0.0,0.0,0.0,0.0,0.0,0.0,0.0,0.0,0.0,0.0,0.0,0.0,0.0,0.0,0.0,0.0,0.0,0.0,-3.0524,-3.0153,0.0,0.0,0.0,0.0,0.0,0.0,0.0,0.0,0.0,0.0,0.0,0.0,-2.9011,-2.9871,-3.0404,-3.0404,-3.0404,-3.0404,-3.0404,-3.0404,-3.0292,-3.0013,-2.906,-2.8449,0.0,0.0,0.0,0.0,0.0,0.0,0.0,0.0,0.0,0.0,0.0,0.0,0.0,0.0,0.0,0.0,0.0,0.0,0.0,0.0,0.0,0.0,0.0,0.0,0.0,0.0,0.0,0.0,0.0,0.0,0.0,0.0,-2.5502,-2.6592,0.0,0.0,0.0,0.0,0.0,0.0,0.0,0.0,0.0,0.0,0.0,0.0,0.0,-3.0674,-3.0723,-3.1358,-3.1415,-3.0878,-3.0898,-3.0898,-3.0878,-3.0898,-3.0898,-3.0898,-3.0879,0.0,-3.0858,-3.0737,0.0,0.0,0.0,0.0,0.0,0.0,0.0,0.0,0.0,0.0,0.0,0.0,0.0,0.0,0.0,0.0,0.0,0.0,0.0,0.0,0.0,0.0,-3.0367,-3.046,-3.0452,-3.035,0.0,-3.0237,-3.0402,-3.0392,-3.0161,0.0,0.0,0.0,0.0,0.0,0.0,0.0,-2.9088,-2.9871,-3.0404,-3.0404,-3.0404,-3.0404,-3.0404,-3.0404,-3.0292,-3.0013,-2.906,-2.8722,-2.9218,-2.7532,0.0,0.0,0.0,0.0,0.0,0.0,0.0,0.0,0.0,0.0,0.0,0.0,0.0,0.0,0.0,0.0,0.0,0.0,0.0,0.0,0.0,0.0,0.0,0.0,0.0,0.0,0.0,0.0,0.0,-2.5771,-2.7433,-2.8258,-2.9195,-2.9277,0.0,0.0,0.0,0.0,0.0,0.0,0.0,0.0,0.0,-3.1719,-3.2087,-3.2283,-3.2305,-3.2185,-3.1951,-3.1621,-3.1133,-3.0898,-3.0898,-3.0898,-3.0898,-3.0898,-3.0898,-3.0898,-3.0898,-3.0767,-3.0684,-3.0657,0.0,0.0,0.0,0.0,0.0,-3.0571,-3.0626,-3.066,0.0,0.0,0.0,0.0,0.0,0.0,0.0,0.0,0.0,0.0,0.0,0.0,0.0,-3.0446,-3.0417,-3.0404,-3.0404,-3.0404,-3.041,0.0,-3.0408,-3.0177,-2.9432,0.0,0.0,0.0,0.0,-2.928,-2.9775,-3.0154,-3.0404,-3.0404,-3.0404,-3.0404,-3.0404,-3.026,-3.0087,-2.9845,-2.9414,-2.9167,-2.9181,-2.8519,-2.807,0.0,0.0,0.0,0.0,0.0,0.0,0.0,0.0,0.0,0.0,0.0,0.0,0.0,0.0,0.0,0.0,0.0,0.0,0.0,0.0,0.0,0.0,0.0,0.0,0.0,0.0,0.0,0.0,-2.7472,-2.8902,-2.9707,-3.0641,-3.0801,0.0,0.0,0.0,0.0,0.0,0.0,-3.1484,-3.1953,-3.2578,-3.3379,-3.3613,-3.3633,-3.3398,-3.3027,-3.2617,-3.2187,-3.1543,-3.1113,-3.0898,-3.0898,-3.0898,-3.0898,-3.0898,-3.0898,-3.0898,-3.0793,-3.0722,-3.0692,-3.0652,-3.0623,-3.0606,-3.0625,-3.0628,-3.063,-3.0719,-3.0752,-3.0596,-2.9658,0.0,-2.9224,-2.8713,0.0,0.0,0.0,0.0,-3.0404,-3.0404,-3.0404,-3.0404,-3.0404,-3.0404,-3.0404,-3.0404,-3.0404,-3.0404,0.0,-3.0404,-3.039,-3.04,0.0,0.0,0.0,0.0,-2.9679,-3.0327,-3.0404,-3.0404,-3.0404,-3.0404,-3.0404,-3.0404,-3.015,-2.9916,-2.9713,-2.9643,-2.9436,-2.9028,-2.9181,-2.8926,-2.8117,0.0,0.0,0.0,0.0,0.0,0.0,0.0,0.0,0.0,0.0,0.0,0.0,0.0,0.0,0.0,0.0,0.0,0.0,0.0,0.0,0.0,0.0,0.0,0.0,0.0,0.0,0.0,0.0,0.0,-3.054,-3.1519,0.0,0.0,0.0,0.0,-3.0762,-3.0801,-3.1543,-3.3184,-3.2598,-3.2578,-3.3379,-3.4199,-3.4238,-3.3418,-3.418,-3.3789,-3.2207,-3.2168,-3.1699,-3.0898,-3.0898,-3.0898,-3.0898,-3.0898,-3.0898,-3.0898,-3.0898,-3.0816,-3.0695,-3.0693,-3.0663,-3.0614,-3.0675,-3.0682,-3.0716,-3.0836,-3.0898,-3.0859,-3.0664,-3.0523,-3.0401,-3.0389,-3.0356,0.0,0.0,-3.0365,-3.0404,-3.0404,-3.0404,-3.0404,-3.0404,-3.0404,-3.0404,-3.0404,-3.0404,-3.0404,0.0,-3.0404,-3.0404,-3.0404,0.0,-3.0385,-3.0346,-3.0327,-3.0346,-3.0385,-3.0404,-3.0404,-3.0404,-3.0404,-3.0404,-3.0404,-3.015,-2.9916,-2.9713,-2.9523,-2.9289,-2.9017,-2.9017,-2.8998,-2.8932,-2.8227,0.0,0.0,0.0,0.0,0.0,0.0,0.0,0.0,0.0,0.0,0.0,0.0,0.0,0.0,0.0,0.0,0.0,0.0,0.0,0.0,0.0,0.0,0.0,0.0,0.0,0.0,0.0,0.0,-3.1493,-3.2831,0.0,-3.1426,-3.2012,-3.2285,-3.1777,-3.2226,-3.3008,-3.418,-3.3965,-3.4199,-3.5059,-3.5371,-3.5391,-3.5078,-3.4824,-3.4394,-3.3809,-3.2715,-3.2031,-3.1719,-3.1152,-3.0898,-3.0898,-3.0898,-3.0898,-3.0898,-3.0898,-3.0878,-3.0836,-3.0836,-3.0813,-3.0807,-3.0815,-3.0835,-3.0834,-3.0879,-3.0898,-3.0877,-3.0681,-3.0572,-3.049,-3.0451,-3.0422,-3.0404,-3.0404,-3.0404,-3.0404,-3.0404,-3.0404,-3.0404,-3.0404,-3.0404,-3.0404,-3.0404,-3.0404,-3.0404,-3.0404,-3.0404,-3.0404,-3.0404,-3.0404,-3.0404,-3.0404,-3.0404,-3.0404,-3.0404,-3.0404,-3.0404,-3.0404,-3.0404,-3.0323,-3.015,-2.9943,-2.9731,-2.9523,-2.9434,-2.9278,-2.9017,-2.9178,-2.9178,-2.9005,-2.8712,-2.8191,0.0,0.0,0.0,0.0,0.0,0.0,0.0,0.0,0.0,0.0,0.0,0.0,0.0,0.0,0.0,0.0,0.0,0.0,0.0,0.0,0.0,0.0,0.0,0.0,0.0,0.0,-3.1487,-3.155,-3.284,-3.3205,-3.1894,-3.2246,-3.2461,-3.2226,-3.2695,-3.3496,-3.4648,-3.4707,-3.5098,-3.5976,-3.5996,-3.5996,-3.5996,-3.543,-3.498,-3.4687,-3.3574,-3.2754,-3.2187,-3.1601,-3.1172,-3.0898,-3.0898,-3.0898,-3.0898,-3.0898,-3.0898,-3.0898,-3.0898,-3.0898,-3.0898,-3.0898,-3.0898,-3.0898,-3.0898,-3.0879,-3.0816,-3.0657,-3.055,-3.0496,-3.0414,-3.0404,-3.0404,-3.0404,-3.0404,-3.0404,-3.0404,-3.0404,-3.0404,-3.0404,-3.0404,-3.0404,-3.0404,-3.0404,-3.0404,-3.0404,-3.0404,-3.0404,-3.0404,-3.0404,-3.0404,-3.0404,-3.0404,-3.0404,-3.0404,-3.0404,-3.0404,-3.0404,-3.0317,-3.0196,-3.0013,-2.9746,-2.9533,-2.9412,-2.932,-2.9189,-2.9005,-2.9178,-2.9171,-2.9005,-2.873,-2.8338,-2.7798,0.0,0.0,0.0,0.0,0.0,0.0,0.0,0.0,0.0,0.0,0.0,0.0,0.0,0.0,0.0,0.0,0.0,0.0,0.0,0.0,0.0,0.0,0.0,-2.9282,-3.0066,-3.0664,-3.0725,-3.1513,-3.1742,-3.1015,-3.0957,-3.1328,-3.2148,-3.2246,-3.2988,-3.4609,-3.4726,-3.5137,-3.5976,-3.5996,-3.5996,-3.5996,-3.5996,-3.5586,-3.4746,-3.4707,-3.3848,-3.2285,-3.2246,-3.1758,-3.0937,-3.0937,-3.0937,-3.0898,-3.0898,-3.0898,-3.0898,-3.0898,-3.0898,-3.0898,-3.0898,-3.0898,-3.0898,-3.0898,-3.0801,-3.0682,-3.0611,-3.0561,-3.0487,-3.0416,-3.0404,-3.0404,-3.0404,-3.0404,-3.0404,-3.0404,-3.0404,-3.0404,-3.0404,-3.0404,-3.0404,-3.0404,-3.0404,-3.0404,-3.0404,-3.0404,-3.0404,-3.0404,-3.0404,-3.0404,-3.0404,-3.0404,0.0,-3.0404,-3.0404,-3.0404,-3.0398,-3.015,-2.9999,-2.9984,-2.9616,-2.9402,-2.9392,-2.9145,-2.9005,-2.9005,-2.9005,-2.9005,-2.9005,-2.8227,-2.7842,-2.7842,0.0,0.0,0.0,0.0,0.0,0.0,0.0,0.0,0.0,0.0,0.0,0.0,0.0,0.0,0.0,0.0,0.0,0.0,0.0,0.0,0.0,-2.8646,-2.9115,-2.9149,-3.0447,-3.1429,-3.1499,-3.2301,-3.2552,-3.176,-3.2302,-3.2578,-3.2226,-3.332,-3.4219,-3.4687,-3.5293,-3.5742,-3.5996,-3.5996,-3.5996,-3.5996,-3.5996,-3.5879,-3.5625,-3.5,-3.4453,-3.3984,-3.3359,-3.2617,-3.1836,-3.1836,-3.1484,-3.0898,-3.0898,-3.0898,-3.0898,-3.0898,-3.0898,-3.0898,-3.0898,-3.0898,-3.0898,-3.0898,-3.0879,-3.0819,-3.065,-3.0591,-3.0553,-3.0446,-3.0404,-3.0404,-3.0404,-3.0404,-3.0404,-3.0404,-3.0404,-3.0404,-3.0404,-3.0404,-3.0404,-3.0404,-3.0404,-3.0404,-3.0404,-3.0404,-3.0404,-3.0404,-3.0404,-3.0404,-3.0404,-3.0404,0.0,-3.0404,-3.0404,-3.0336,-3.0136,-3.0035,-2.9885,-2.9589,-2.9474,-2.932,-2.9123,-2.9051,-2.9005,-2.9005,-2.9005,-2.9005,-2.9005,-2.8785,-2.8675,0.0,0.0,0.0,0.0,0.0,0.0,0.0,0.0,0.0,0.0,0.0,0.0,0.0,0.0,0.0,0.0,0.0,0.0,0.0,0.0,0.0,0.0,-2.941,-2.964,-2.964,-3.0525,-3.1179,-3.1254,-3.1762,-3.194,-3.1492,-3.2007,-3.2168,-3.1699,-3.3203,-3.416,-3.416,-3.5332,-3.5996,-3.5996,-3.5996,-3.5996,-3.5996,-3.5996,-3.5996,-3.5996,-3.5488,-3.5059,-3.4687,-3.418,-3.3301,0.0,-3.2207,-3.1719,-3.0898,-3.0898,-3.0898,0.0,0.0,0.0,0.0,0.0,-3.0898,-3.0898,-3.0898,-3.0898,-3.0878,-3.0698,-3.0628,-3.0572,-3.0471,-3.0423,-3.0404,-3.0404,-3.0404,-3.0404,-3.0404,-3.0404,-3.0404,-3.0404,-3.0404,-3.0404,-3.0404,-3.0404,-3.0404,-3.0404,0.0,0.0,-3.0404,-3.0404,-3.0404,-3.0404,-3.0404,-3.0404,0.0,-3.0404,-3.0305,-3.0021,-2.9931,-2.9756,-2.9424,-2.9299,0.0,0.0,0.0,-2.9005,-2.9005,-2.9005,0.0,0.0,0.0,0.0,0.0,0.0,0.0,0.0,-2.9578,-3.0556,0.0,0.0,0.0,0.0,0.0,0.0,0.0,0.0,0.0,0.0,0.0,0.0,0.0,0.0,0.0,0.0,-2.991,-3.0404,-3.0404,-3.0404,-3.0417,-3.0486,-3.0556,-3.0623,-3.0684,-3.0793,-3.0879,-3.0898,-3.2441,-3.3398,-3.3398,0.0,0.0,0.0,0.0,-3.5996,-3.5996,-3.5996,-3.5996,-3.5996,-3.5898,-3.5449,-3.4707,-3.4609,-3.3691,-3.2207,-3.2207,-3.1719,-3.0898,-3.0898,-3.0898,-3.0898,-3.0898,-3.0898,-3.0898,-3.0898,-3.0898,0.0,0.0,0.0,0.0,-3.0745,-3.0655,-3.0595,-3.0527,-3.046,-3.0404,-3.0404,-3.0404,-3.0404,-3.0404,-3.0404,-3.0404,-3.0404,-3.0404,-3.0404,-3.0404,-3.0404,-3.0404,-3.0404,-3.0404,-3.0404,-3.0404,-3.0404,-3.0404,-3.0404,-3.0404,0.0,-3.0361,-3.0355,-3.0248,-2.9962,0.0,0.0,-2.9363,-2.9134,-2.9005,-2.9005,-2.9005,-2.9005,-2.9005,-2.9005,-2.9005,-2.9005,-2.9005,-2.9123,-2.9361,-2.9915,-3.0605,-3.1413,-3.1703,-3.2562,0.0,0.0,0.0,0.0,0.0,0.0,0.0,0.0,0.0,0.0,0.0,0.0,0.0,0.0,0.0,-3.0019,-3.0288,-3.0404,-3.0404,-3.0404,-3.0396,-3.0425,-3.0477,-3.0552,-3.062,-3.068,-3.0771,-3.0898,-3.2441,-3.3398,-3.3398,-3.5059,0.0,-3.5996,-3.5996,-3.5996,-3.5996,-3.5996,-3.5996,-3.5996,0.0,0.0,-3.4687,-3.3965,-3.3125,-3.2207,-3.2207,-3.1719,-3.0898,-3.0898,-3.0898,-3.0898,-3.0898,-3.0898,-3.0898,-3.0898,-3.0898,-3.0898,-3.0898,-3.0898,-3.0879,-3.0745,-3.0657,-3.0591,-3.0522,-3.0446,0.0,-3.0404,-3.0404,-3.0404,-3.0404,-3.0404,-3.0404,-3.0404,-3.0404,-3.0404,-3.0404,-3.0404,-3.0404,-3.0404,-3.0404,-3.0404,-3.0404,-3.0404,-3.0404,-3.0404,-3.0404,-3.0317,-3.0115,-3.0075,-2.9924,-2.957,-2.9474,-2.9353,-2.91,-2.904,-2.9005,-2.9005,-2.9005,-2.9005,-2.9005,-2.9005,-2.9005,-2.9005,-2.9005,-2.9028,-2.9078,-2.9829,-3.0816,-3.203,-3.2081,-3.2847,0.0,0.0,0.0,0.0,0.0,0.0,0.0,0.0,0.0,0.0,0.0,-2.8104,-2.8651,0.0,-2.9549,-2.9987,-3.0122,-3.0202,-3.0202,-3.0311,-3.0404,-3.0404,-3.0457,-3.0505,-3.0556,-3.0631,-3.0722,-3.0793,-3.2401,-3.3398,-3.3398,-3.5059,-3.5996,-3.5996,-3.5996,-3.5996,-3.5996,-3.5996,-3.5781,-3.5332,-3.4902,-3.4473,-3.4023,-3.3594,-3.2969,-3.2207,-3.2207,-3.1719,-3.0898,-3.0898,-3.0898,-3.0898,-3.0898,-3.0898,-3.0898,-3.0898,-3.0898,-3.0898,-3.0898,-3.0898,-3.0898,-3.0816,-3.0702,-3.0597,-3.0554,-3.0477,-3.0404,-3.0404,-3.0404,-3.0404,-3.0404,-3.0404,-3.0404,-3.0404,-3.0404,-3.0404,-3.0404,-3.0404,-3.0404,-3.0404,-3.0404,-3.0404,-3.0404,-3.0404,-3.0404,-3.0404,-3.0404,-3.0305,-3.0028,-3.0006,-2.9845,-2.9444,-2.9402,-2.9289,-2.9028,-2.9005,-2.9005,-2.9005,-2.9005,-2.9005,-2.9005,-2.9005,-2.9005,-2.9005,-2.9005,-2.9115,-2.9346,-3.0332,-3.14,-3.2565,-3.3175,-3.3944,0.0,0.0,0.0,0.0,0.0,0.0,0.0,-2.4909,-2.5436,-2.7244,-2.814,-2.8599,-2.8651,-2.9225,-2.9705,-2.9705,-2.9837,-2.9962,-2.9999,-3.0189,-3.0349,-3.0398,-3.0456,-3.0495,-3.0498,-3.0606,-3.0677,-3.0693,-3.2357,-3.3398,-3.3398,-3.5059,-3.5996,-3.5996,-3.5996,-3.5996,-3.5996,-3.582,-3.5391,-3.4707,-3.4375,-3.3848,-3.3164,-3.2988,-3.2559,-3.1953,-3.1953,-3.1543,-3.0898,-3.0898,-3.0898,-3.0898,-3.0898,-3.0898,-3.0898,-3.0898,-3.0898,-3.0898,-3.0898,-3.0898,-3.0898,-3.0898,-3.0761,-3.0623,-3.0609,-3.052,-3.0425,-3.039,-3.0404,-3.0404,-3.0404,-3.0404,-3.0404,-3.0404,-3.0404,-3.0404,-3.0404,-3.0404,-3.0404,-3.0404,-3.0404,-3.0404,-3.0404,-3.0404,-3.0404,-3.0404,-3.0355,-3.0235,-2.9969,-2.9908,-2.9738,-2.9353,-2.932,-2.9225,-2.9028,-2.9005,-2.9005,-2.9005,-2.9005,-2.9005,-2.9005,-2.9005,-2.9005,-2.9005,-2.9005,-2.9185,-2.9561,-3.0498,-3.1547,-3.2709,-3.3732,-3.4685,-2.3148,-2.3045,-2.2936,-2.3616,-2.363,-2.3982,0.0,-2.6379,-2.6903,-2.8778,-2.9237,-2.9344,-2.951,-2.9629,-2.9705,-2.9705,-2.9722,-2.9796,-2.9977,-3.0021,-3.0136,-3.0367,-3.0421,-3.0425,-3.049,-3.0505,-3.0571,-3.069,-3.2321,-3.335,-3.3398,-3.5059,-3.5996,-3.5996,-3.5996,-3.5996,-3.5996,-3.5234,-3.4805,-3.4687,-3.3184,-3.2422,-3.2305,-3.1523,-3.1133,-3.1055,-3.1055,-3.0996,-3.0898,-3.0898,-3.0898,-3.0898,-3.0898,-3.0898,-3.0898,-3.0898,-3.0898,-3.0898,-3.0898,-3.0898,-3.0898,-3.0898,-3.0793,-3.068,-3.0625,-3.0556,-3.0477,-3.0425,-3.0404,-3.0404,-3.0404,-3.0404,-3.0404,-3.0404,-3.0404,-3.0404,-3.0404,-3.0404,-3.0404,-3.0404,-3.0404,-3.0404,-3.0404,-3.0404,-3.0404,-3.0404,-3.0196,-2.9962,-2.9754,-2.9579,-2.9363,-2.9078,-2.9033,-2.9021,-2.9005,-2.9005,-2.9005,-2.9005,-2.9005,-2.9005,-2.9005,-2.9005,-2.9005,-2.9005,-2.9005,-2.904,-2.9089,-2.9205,-3.0183,-3.194,-3.2298,-3.3559,-2.0997,-2.1843,-2.2613,-2.2869,-2.3307,-2.4042,-2.5321,-2.5763,-2.6397,-2.8115,-2.8468,-2.863,-2.918,-2.9293,-2.9293,0.0,-2.9425,-2.9551,-2.9634,-2.9853,-3.0035,-3.015,-3.0305,-3.0408,-3.0436,-3.0477,-3.0521,-3.0581,-3.1798,-3.2558,-3.2588,-3.4276,-3.5234,-3.5234,-3.5742,-3.5996,-3.5996,-3.5644,-3.4941,-3.3945,-3.3223,-3.2383,-3.1426,-3.1074,-3.0898,-3.0898,-3.0898,-3.0898,-3.0898,-3.0898,-3.0898,-3.0898,-3.0898,-3.0898,-3.0898,-3.0898,-3.0898,-3.0898,-3.0898,-3.0898,-3.0898,-3.0898,-3.0814,-3.0687,-3.0628,-3.0544,-3.0495,-3.0431,-3.0404,-3.0404,-3.0404,-3.0404,-3.0404,-3.0404,-3.0404,-3.0404,-3.0404,-3.0404,-3.0404,-3.0404,-3.0267,-3.0209,-3.0367,-3.0267,-3.0176,-3.0176,-3.0075,-2.9885,-2.9561,-2.9454,-2.9299,-2.904,-2.9005,-2.9005,-2.9005,-2.9005,-2.9005,-2.9005,-2.9005,-2.9005,-2.9005,-2.9005,-2.9005,-2.9005,-2.9005,-2.9078,-2.9225,-2.9706,-3.0416,-3.1364,-3.2578,-3.362,-1.9902,-2.0945,-2.1943,-2.2253,-2.2873,-2.3685,-2.4669,-2.5096,-2.5685,-2.7152,-2.764,-2.797,-2.8565,-2.8858,-2.9005,-2.9005,-2.9167,-2.932,-2.9392,-2.9705,-2.9939,-2.9999,-3.0241,-3.05,-3.0731,-3.0581,-3.0482,-3.0498,-3.1418,-3.1973,-3.2004,-3.3493,-3.4336,-3.4336,-3.4941,-3.5391,-3.5644,-3.5391,-3.4648,-3.3398,-3.3184,-3.2305,-3.0898,-3.0898,-3.0898,-3.0898,-3.0898,-3.0898,-3.0898,-3.0898,-3.0898,-3.0898,-3.0898,-3.0898,-3.0898,-3.0898,-3.0898,-3.0898,-3.0898,-3.0898,-3.0898,-3.0898,-3.0837,-3.0739,-3.0633,-3.0561,-3.0516,-3.0422,-3.0404,-3.0404,-3.0404,-3.0404,-3.0404,-3.0404,-3.0404,-3.0404,-3.0404,-3.0404,-3.0404,-3.0404,-3.0189,-3.0068,-3.0254,-3.0068,-2.9901,-2.9845,-2.9837,-2.9739,-2.9434,-2.9341,-2.9232,-2.9028,-2.9005,-2.9005,-2.9005,-2.9005,-2.9005,-2.9005,-2.9005,-2.9005,-2.9005,-2.9005,-2.9005,-2.9005,-2.9005,-2.9089,-2.9289,-2.9864,-3.0371,-3.0818,-3.2558,-3.3475,-2.0854,-2.1134,-2.1537,-2.2834,-2.2954,-2.3102,-2.456,-2.4913,-2.5237,-2.6402,-2.7255,-2.7816,-2.7835,-2.8473,-2.9005,-2.9005,-2.9005,-2.91,-2.9361,-2.9579,-2.978,-2.9984,-3.0241,-3.0731,-3.1583,-3.091,-3.0433,-3.049,-3.1365,-3.1931,-3.2002,-3.2926,-3.3437,-3.3437,-3.3476,-3.3887,-3.4726,-3.3906,-3.3457,-3.3398,-3.2617,-3.1777,-3.0898,-3.0898,-3.0898,-3.0898,-3.0898,-3.0898,-3.0898,-3.0898,-3.0898,-3.0898,-3.0898,-3.0898,-3.0898,-3.0898,-3.0898,-3.0898,-3.0898,-3.0898,-3.0898,-3.0898,-3.0898,-3.0857,-3.0667,-3.0603,-3.0565,-3.0449,-3.0404,-3.0404,-3.0404,-3.0404,-3.0404,-3.0404,-3.0404,-3.0404,-3.0404,-3.0404,-3.0404,-3.0404,-3.0189,-3.0006,-3.0013,-2.9845,-2.9634,-2.9444,-2.9433,-2.9404,-2.9402,-2.916,-2.9017,-2.9005,-2.9005,-2.9005,-2.9005,-2.9005,-2.9005,-2.9005,-2.9005,-2.9005,-2.9005,-2.9005,-2.9005,-2.9005,-2.9005,-2.9005,-2.9017,-2.9035,-2.945,-3.0257,-3.1624,-3.2675,-1.8782,-1.9158,-1.9582,-2.0513,-2.0992,-2.1557,-2.2778,-2.3218,-2.3845,-2.547,-2.6017,-2.6531,-2.7603,-2.8026,-2.8374,-2.8913,-2.9005,-2.904,-2.9123,-2.9465,-2.9947,-3.0581,-3.1023,-3.1583,-3.2429,-3.1212,0.0,-3.1248,-3.1094,-3.0983,-3.0996,-3.1948,-3.2469,-3.2469,-3.3085,-3.3535,-3.3828,-3.3555,-3.3125,-3.2598,-3.1738,-3.1172,-3.0898,-3.0898,-3.0898,-3.0898,-3.0898,-3.0898,-3.0898,-3.0898,-3.0898,-3.0898,-3.0898,-3.0898,-3.0898,-3.0898,-3.0898,-3.0898,-3.0898,-3.0898,-3.0898,-3.0898,-3.0898,-3.0857,-3.0667,-3.0603,-3.0568,-3.0449,-3.0404,-3.0404,-3.0404,-3.0404,-3.0404,-3.0404,-3.0404,-3.0404,-3.0404,-3.0404,-3.0355,-3.0163,-2.9947,-2.9796,-2.9796,-2.9738,-2.9678,-2.9616,-2.9324,-2.9134,-2.9134,-2.9062,-2.9005,-2.9005,-2.9005,-2.9005,-2.9005,-2.9005,-2.9005,-2.9005,-2.9005,-2.9005,-2.9005,-2.9005,-2.9005,-2.9005,-2.9005,-2.9005,-2.9005,-2.9314,-2.9536,-2.9704,-3.1178,-3.2226,-1.7552,-1.7961,-1.8431,-1.93,-1.9819,-2.0479,-2.1812,-2.2271,-2.2909,-2.4618,-2.5191,-2.5797,-2.7126,-2.7603,-2.8062,-2.8877,-2.9005,-2.9005,-2.9005,-2.9345,-2.9935,-3.0901,-3.1329,-3.2039,-3.325,-3.2102,0.0,-3.2083,-3.1679,-3.1269,-3.0983,-3.1607,-3.1829,-3.1535,-3.212,-3.2616,-3.2969,-3.2969,-3.2715,-3.2187,-3.1328,-3.0898,-3.0898,-3.0898,-3.0898,-3.0898,-3.0898,-3.0898,-3.0898,-3.0898,-3.0898,-3.0898,-3.0898,-3.0898,-3.0898,-3.0898,-3.0898,-3.0898,-3.0898,-3.0898,-3.0898,-3.0898,-3.0898,-3.0878,-3.0693,-3.0625,-3.0575,-3.0472,-3.0431,-3.0404,-3.0404,-3.0404,-3.0404,-3.0404,-3.0404,-3.0404,-3.0404,-3.0404,-3.0317,-3.0042,-2.9837,-2.9678,-2.9607,-2.9523,-2.9485,-2.9579,-2.9259,-2.9005,-2.9005,-2.9005,-2.9005,-2.9005,-2.9005,-2.9005,-2.9005,-2.9005,-2.9005,-2.9005,-2.9005,-2.9005,-2.9005,-2.9005,-2.9005,-2.9005,-2.9005,-2.9005,-2.9005,-2.9304,-2.9435,-2.9441,-3.0804,-3.1702,-1.723,-1.7555,-1.8057,-1.9104,-1.9362,-1.9848,-2.1621,-2.2036,-2.2461,-2.3871,-2.4795,-2.5576,-2.6392,-2.72,-2.8007,-2.8803,-2.8968,-2.9005,-2.9005,-2.9262,-2.9848,-3.0922,-3.1252,-3.2168,-3.4057,-3.3493,0.0,-3.3026,0.0,-3.2643,-3.184,-3.1864,-3.1524,-3.0729,-3.0693,-3.1159,-3.2129,-3.2129,-3.2129,-3.2129,-3.1309,-3.0898,-3.0898,-3.0898,-3.0898,-3.0898,-3.0898,-3.0898,-3.0898,-3.0898,-3.0898,-3.0898,-3.0898,-3.0898,-3.0898,-3.0898,-3.0898,-3.0898,-3.0898,-3.0898,-3.0898,-3.0898,-3.0898,-3.0878,-3.0744,-3.0642,-3.0587,-3.0513,-3.0442,-3.0404,-3.0404,-3.0404,-3.0404,-3.0404,-3.0404,-3.0404,-3.0404,-3.0404,-3.0311,-3.0047,-2.9813,-2.9616,-2.9424,-2.9189,-2.9089,-2.9361,-2.916,-2.9005,-2.9005,-2.9005,-2.9005,-2.9005,-2.9005,-2.9005,-2.9005,-2.9005,-2.9005,-2.9005,-2.9005,-2.9005,-2.9005,-2.9005,-2.9005,-2.9005,-2.9005,-2.9005,-2.9005,-2.901,-2.916,-2.9433,-3.048,-3.1094,-1.6252,-1.6451,-1.6826,-1.7361,-1.7693,-1.8405,-2.0443,-2.1101,-2.1761,-2.3474,-2.419,-2.475,-2.5558,-2.6355,-2.7163,-2.797,-2.8601,-2.9005,-2.9005,-2.9743,-3.0607,-3.1495,-3.2344,-3.34,-3.4743,-3.4671,0.0,0.0,-3.3654,-3.2561,-3.1777,-3.1792,-3.1456,-3.065,-3.0677,-3.0866,-3.123,-3.123,-3.123,-3.123,-3.1016,-3.0898,-3.0898,-3.0898,-3.0898,-3.0898,-3.0898,-3.0898,-3.0898,-3.0898,-3.0898,-3.0898,-3.0898,-3.0898,-3.0898,-3.0898,-3.0898,-3.0898,-3.0898,-3.0898,-3.0898,-3.0898,-3.0898,-3.0878,-3.0744,-3.0642,-3.0587,-3.0513,-3.0442,-3.0404,-3.0404,-3.0404,-3.0404,-3.0404,-3.0404,-3.0404,-3.0404,-3.0404,-3.028,-2.9864,-2.9447,-2.9217,-2.9363,-2.9189,-2.9089,-2.9361,-2.916,-2.9005,-2.9005,-2.9005,-2.9005,-2.9005,-2.9005,-2.9005,-2.9005,-2.9005,-2.9005,-2.9005,-2.9005,-2.9005,-2.9005,-2.9005,-2.9005,-2.9005,-2.9005,-2.9005,-2.9005,-2.9346,-2.9551,-2.9644,-3.0258,-3.0938,-1.5884,-1.6039,-1.6382,-1.6712,-1.7052,-1.7895,-2.0209,-2.0856,-2.1511,-2.3336,-2.3976,-2.436,-2.4878,-2.5867,-2.6808,-2.7476,-2.8386,-2.9115,-2.9482,-3.0037,-3.091,-3.2169,-3.2852,-3.3711,-3.4975,-3.5105,-3.5062,0.0,-3.4391,-3.3506,-3.2295,-3.2262,-3.1772,-3.0639,-3.0645,-3.0734,-3.0898,-3.0898,-3.0898,-3.0898,-3.0898,-3.0898,-3.0898,-3.0898,-3.0898,-3.0898,0.0,-3.0898,-3.0898,-3.0898,-3.0898,-3.0898,-3.0898,-3.0898,-3.0898,-3.0898,-3.0898,-3.0898,-3.0898,-3.0898,-3.0898,-3.0898,-3.0898,-3.0898,-3.0815,-3.0698,-3.0594,-3.0547,-3.0467,-3.0404,-3.0404,-3.0404,-3.0404,-3.0404,-3.0404,-3.0404,-3.0404,-3.0404,-3.0267,-2.979,-2.9425,-2.9214,-2.9372,-2.9189,-2.9089,-2.9361,-2.916,-2.9005,-2.9005,-2.9005,-2.9005,-2.9005,-2.9005,-2.9005,-2.9005,-2.9005,-2.9005,-2.9005,-2.9005,-2.9005,-2.9005,-2.9005,-2.9005,-2.9005,-2.9005,-2.9005,-2.9005,-2.9385,-2.9598,-2.9713,-3.0066,-3.0548,-1.601,-1.6136,-1.6448,-1.6789,-1.7191,-1.8118,-2.0406,-2.1081,-2.1695,-2.3354,-2.3976,-2.4271,-2.4486,-2.5665,-2.6776,-2.7289,-2.8298,-2.928,-3.0099,-3.0283,-3.0998,-3.2748,-3.3043,-3.3604,-3.485,-3.4921,-3.4669,-3.4171,-3.4762,-3.4442,-3.2833,-3.2737,-3.208,-3.0658,-3.0614,-3.0714,-3.0898,-3.0898,-3.0898,-3.0898,-3.0898,-3.0898,-3.0898,-3.0898,-3.0898,-3.0898,0.0,0.0,-3.0898,-3.0898,-3.0898,-3.0898,-3.0898,-3.0898,-3.0898,-3.0898,-3.0898,-3.0898,-3.0898,-3.0898,-3.0898,-3.0898,-3.0898,-3.0898,-3.0898,-3.0755,-3.0603,-3.0603,-3.0498,-3.0404,-3.0404,-3.0404,-3.0404,-3.0404,-3.0404,-3.0404,-3.0404,-3.0367,-3.0221,-2.979,-2.9542,-2.9392,-2.9351,-2.9156,-2.9078,-2.931,-2.9156,-2.9005,-2.9005,-2.9005,-2.9005,-2.9005,-2.9005,-2.9005,-2.9005,-2.9005,-2.9005,-2.9005,-2.9005,-2.9005,-2.9005,-2.9005,-2.9005,-2.9005,-2.9005,-2.9028,-2.9044,-2.9301,-2.9533,-2.9738,-2.9954,-3.0189,-1.6725,-1.6672,-1.6789,-1.7138,-1.7926,-1.8977,-2.0298,-2.1476,-2.2574,-2.3512,-2.3976,-2.4409,-2.5106,-2.5981,-2.683,-2.7585,-2.8432,-2.928,-3.0099,-3.076,-3.1556,-3.2562,-3.3261,-3.3833,-3.4297,-3.3972,0.0,0.0,-3.3554,-3.2929,-3.1968,-3.191,-3.15,-3.0639,-3.0642,-3.0744,-3.0898,-3.0898,-3.0898,-3.0898,-3.0898,-3.0898,-3.0898,-3.0898,-3.0898,-3.0898,0.0,0.0,-3.0898,-3.0898,-3.0898,-3.0898,-3.0898,-3.0898,-3.0898,-3.0898,-3.0898,-3.0898,-3.0898,-3.0898,-3.0898,-3.0898,-3.0898,-3.0898,-3.0898,-3.0755,-3.0603,-3.0603,-3.0498,-3.0404,-3.0404,-3.0404,-3.0404,-3.0404,-3.0404,-3.0404,-3.0404,-3.0235,-3.0003,-2.9756,-2.9542,-2.933,-2.9112,-2.904,-2.9017,-2.9055,-2.904,-2.9005,-2.9005,-2.9005,-2.9005,-2.9005,-2.9005,-2.9005,-2.9005,-2.9005,-2.9005,-2.9005,-2.9005,-2.9005,-2.9005,-2.9005,-2.9005,-2.9005,-2.9005,-2.9112,-2.933,-2.9542,-2.9746,-2.9954,-3.0202,-3.0355,-1.6795,-1.693,-1.7122,-1.7441,-1.8336,-1.9479,-2.0689,-2.1811,-2.2805,-2.3541,-2.3976,-2.435,-2.4795,-2.5816,-2.6808,-2.7442,-2.8356,-2.9427,-3.065,-3.1158,-3.1843,-3.3091,-3.3568,-3.3915,-3.4164,-3.3586,-3.3164,-3.3119,-3.2469,-3.1955,-3.1712,-3.1292,-3.0935,-3.0619,-3.0671,-3.0769,-3.0898,-3.0898,-3.0898,-3.0898,-3.0898,-3.0898,-3.0898,-3.0898,-3.0898,-3.0898,-3.0898,0.0,-3.0898,-3.0898,-3.0898,-3.0898,-3.0898,-3.0898,-3.0898,-3.0898,-3.0898,-3.0898,-3.0898,-3.0898,-3.0898,-3.0898,-3.0898,-3.0898,-3.0898,-3.0755,-3.0603,-3.0603,-3.0498,-3.0404,-3.0404,-3.0404,-3.0404,-3.0404,-3.0404,-3.0404,-3.0404,-3.0305,-3.0109,-2.9773,-2.9607,-2.9445,-2.9067,-2.9005,-2.9005,-2.9005,-2.9005,-2.9005,-2.9005,-2.9005,-2.9005,-2.9005,-2.9005,-2.9005,-2.9005,-2.9005,-2.9005,-2.9005,-2.9005,-2.9005,-2.9005,-2.9005,-2.9005,-2.9005,-2.9005,-2.9055,-2.9181,-2.9523,-2.9738,-2.9853,-3.0228,-3.0404,-1.7023,-1.7292,-1.7584,-1.798,-1.8916,-2.0076,-2.1362,-2.233,-2.3121,-2.3689,-2.4016,-2.4336,-2.4788,-2.5826,-2.683,-2.7549,-2.8419,-2.9555,-3.1176,-3.1397,-3.2003,-3.3605,-3.3807,-3.3821,-3.3845,-3.3185,0.0,-3.218,-3.1508,0.0,-3.1398,-3.0828,-3.0516,-3.0575,-3.0638,-3.0711,-3.0858,-3.0858,-3.0878,-3.0898,-3.0898,-3.0898,-3.0898,-3.0898,-3.0898,-3.0898,-3.0898,0.0,0.0,-3.0898,-3.0898,-3.0898,-3.0898,-3.0898,-3.0898,-3.0898,-3.0898,-3.0898,-3.0898,-3.0898,-3.0898,-3.0898,-3.0898,-3.0898,-3.0898,-3.0761,-3.0625,-3.0609,-3.052,-3.0425,-3.039,-3.0404,-3.0404,-3.0404,-3.0404,-3.0404,-3.0404,-3.0404,-3.028,-2.9856,-2.9739,-2.957,-2.916,-2.9051,-2.9005,-2.9005,-2.9005,-2.9005,-2.9005,-2.9005,-2.9005,-2.9005,-2.9005,-2.9005,-2.9005,-2.9005,-2.9005,-2.9005,-2.9005,-2.9005,-2.9005,-2.9005,-2.9005,-2.9005,-2.9005,-2.904,-2.9078,-2.9504,-2.9731,-2.9763,-3.0208,-3.0404,-1.8121,-1.8086,-1.8301,-1.9061,-2.0051,-2.1141,-2.2249,-2.3302,-2.4069,-2.4142,-2.418,-2.4657,-2.6127,-2.6497,-2.7097,-2.8604,-2.8927,-2.9555,-3.1176,-3.1397,-3.2003,-3.3605,-3.3807,-3.3526,-3.2818,-3.2247,-3.168,-3.1091,0.0,0.0,-3.0519,-3.0454,-3.0436,-3.0511,-3.0528,-3.0584,-3.0718,-3.072,-3.0771,-3.0898,-3.0898,-3.0898,-3.0898,-3.0898,-3.0898,-3.0898,-3.0898,0.0,0.0,-3.0898,-3.0898,-3.0898,-3.0898,-3.0898,-3.0898,-3.0898,-3.0898,-3.0898,-3.0898,-3.0898,-3.0898,-3.0898,-3.0898,-3.0898,-3.0898,-3.0793,-3.068,-3.0625,-3.0556,-3.0477,-3.0419,-3.0404,-3.0404,-3.0404,-3.0404,-3.0404,-3.0404,-3.0404,-3.0311,-3.004,-2.9821,-2.9625,-2.9394,-2.9167,-2.9005,-2.9005,-2.9005,-2.9005,-2.9005,-2.9005,-2.9005,-2.9005,-2.9005,-2.9005,-2.9005,-2.9005,-2.9005,-2.9005,-2.9005,-2.9005,-2.9005,-2.9005,-2.9005,-2.9005,-2.9005,-2.9123,-2.9361,-2.9598,-2.9788,-2.9984,-3.026,-3.0404,-1.8356,-1.844,-1.8665,-1.9639,-2.057,-2.1526,-2.26,-2.3546,-2.419,-2.419,-2.4585,-2.5264,-2.6392,-2.6998,-2.7695,-2.8822,-2.9005,-2.939,-3.0522,-3.1091,-3.1819,-3.2931,-3.3513,-3.3476,-3.2674,-3.1974,-3.1188,-3.0254,0.0,0.0,-3.0404,-3.0404,-3.0439,-3.0498,-3.0498,-3.0561,-3.0695,-3.0665,-3.0729,-3.0898,-3.0816,-3.0816,-3.0898,-3.0898,-3.0898,-3.0898,-3.0898,0.0,0.0,-3.0898,-3.0898,-3.0898,-3.0898,-3.0898,-3.0898,-3.0898,-3.0898,-3.0898,-3.0898,-3.0898,-3.0898,-3.0898,-3.0898,-3.0898,-3.0898,-3.0814,-3.0686,-3.0625,-3.0544,-3.0472,-3.0425,-3.0404,-3.0404,-3.0404,-3.0404,-3.0404,-3.0404,-3.0404,-3.0317,-3.0042,-2.9837,-2.9644,-2.9434,-2.9189,-2.9005,-2.9005,-2.9005,-2.9005,-2.9005,-2.9005,-2.9005,-2.9005,-2.9005,-2.9005,-2.9005,-2.9005,-2.9005,-2.9005,-2.9005,-2.9005,-2.9005,-2.9005,-2.9005,-2.9005,-2.9005,-2.9134,-2.9402,-2.9607,-2.9796,-3.0006,-3.0286,-3.0404,-1.8592,-1.8725,-1.9002,-2.0255,-2.0979,-2.1733,-2.3061,-2.3786,-2.4263,-2.4511,-2.5007,-2.5723,-2.6759,-2.742,-2.8062,-2.8877,-2.9005,-2.9354,-3.0411,-3.1035,-3.1801,-3.2821,-3.3458,-3.3476,-3.2674,-3.1783,-3.0815,-2.9773,0.0,0.0,-3.0404,-3.0404,-3.0417,-3.0477,-3.0463,-3.0521,-3.0631,-3.06,-3.0665,-3.0837,-3.0745,-3.077,-3.0898,-3.0898,-3.0898,-3.0898,0.0,0.0,0.0,-3.0898,-3.0898,-3.0898,-3.0898,-3.0898,-3.0898,-3.0898,-3.0898,-3.0898,-3.0898,-3.0898,-3.0898,-3.0898,-3.0898,-3.0898,-3.0898,-3.0837,-3.0742,-3.0655,-3.0565,-3.0472,-3.0425,-3.0404,-3.0404,-3.0404,-3.0404,-3.0404,-3.0404,-3.0404,-3.0329,-3.015,-2.9885,-2.9652,-2.9513,-2.9225,-2.9005,-2.9005,-2.9005,-2.9005,-2.9005,-2.9005,-2.9005,-2.9005,-2.9005,-2.9005,-2.9005,-2.9005,-2.9005,-2.9005,-2.9005,-2.9005,-2.9005,-2.9005,-2.9005,-2.9005,-2.9005,-2.9134,-2.9402,-2.9607,-2.9796,-3.0006,-3.0286,-3.0404,-1.9052,-1.9002,-1.938,-2.0997,-2.1386,-2.1887,-2.3757,-2.419,-2.4438,-2.5209,-2.5393,-2.5888,-2.7486,-2.7787,-2.8062,-2.8877,-2.9005,-2.9555,-3.1158,-3.1397,-3.2003,-3.3605,-3.3788,-3.3476,-3.2674,-3.156,-3.0573,0.0,0.0,0.0,-3.0404,-3.0404,-3.0404,-3.0404,-3.0404,-3.0425,-3.0503,-3.0503,-3.0568,-3.0696,-3.0695,-3.077,-3.0898,-3.0898,-3.0898,0.0,0.0,0.0,0.0,-3.0898,-3.0898,-3.0898,-3.0898,-3.0898,-3.0898,-3.0898,-3.0898,-3.0898,-3.0898,-3.0898,-3.0898,-3.0898,-3.0898,-3.0898,-3.0898,-3.0898,-3.0878,-3.0743,-3.0592,-3.0472,-3.0425,-3.0404,-3.0404,-3.0404,-3.0404,-3.0404,-3.0404,-3.0404,-3.0404,-3.0398,-3.0015,-2.9705,-2.9696,-2.9314,-2.9005,-2.9005,-2.9005,-2.9005,-2.9005,-2.9005,-2.9005,-2.9005,-2.9005,-2.9005,-2.9005,-2.9005,-2.9005,-2.9005,-2.9005,-2.9005,-2.9005,-2.9005,-2.9005,-2.9005,-2.9005,-2.9134,-2.9402,-2.9607,-2.9796,-3.0006,-3.0286,-3.0404,-2.1034,-2.0982,-2.1177,-2.2237,-2.2493,-2.2785,-2.3942,-2.464,-2.5081,-2.5338,-2.6274,-2.721,-2.7706,-2.8246,-2.8877,-2.9684,-2.9824,-3.0191,-3.125,-3.1861,-3.2412,-3.2926,-3.2968,-3.2876,0.0,0.0,-3.0799,0.0,0.0,0.0,-3.0404,-3.0404,-3.0404,-3.0404,-3.0404,-3.0419,-3.0498,-3.0447,-3.0494,-3.0638,-3.0591,-3.0606,-3.0687,-3.0687,0.0,0.0,0.0,0.0,0.0,-3.0898,-3.0898,-3.0898,-3.0898,-3.0898,-3.0898,-3.0898,-3.0898,-3.0898,-3.0898,-3.0898,-3.0898,-3.0898,-3.0898,-3.0898,-3.0898,-3.0898,-3.0858,-3.0687,-3.0565,-3.0472,-3.0425,-3.0404,-3.0404,-3.0404,-3.0404,-3.0404,-3.0404,-3.0404,-3.0404,-3.0404,-3.0022,-2.9705,-2.9705,-2.9314,-2.9005,-2.9005,-2.9005,-2.9005,-2.9005,-2.9005,-2.9005,-2.9005,-2.9005,-2.9005,-2.9005,-2.9005,-2.9005,-2.9005,-2.9005,-2.9005,-2.9005,-2.9005,-2.9005,-2.9005,-2.9005,-2.9195,-2.9607,-2.967,-2.9896,-3.0286,-3.0361,-3.0404,-2.2171,-2.1911,-2.1996,-2.2804,-2.3006,-2.3208,-2.4025,-2.4824,-2.5485,-2.5797,-2.6898,-2.7879,-2.8209,-2.8656,-2.9152,-2.9666,-3.0008,-3.0485,-3.1286,-3.21,-3.2711,-3.3023,-3.3041,0.0,0.0,-3.184,0.0,0.0,0.0,0.0,0.0,-3.0404,-3.0404,-3.0404,-3.0404,-3.0411,-3.0467,-3.0411,-3.0447,-3.0554,-3.0513,-3.0537,-3.0603,-3.0603,0.0,0.0,0.0,0.0,0.0,-3.0878,-3.0878,-3.0836,-3.0879,-3.0898,-3.0898,-3.0898,-3.0898,-3.0898,-3.0898,-3.0898,-3.0898,-3.0898,-3.0898,-3.0898,-3.0898,-3.0898,-3.0857,-3.0665,-3.0568,-3.0524,-3.0422,-3.0404,-3.0404,-3.0404,-3.0404,-3.0404,-3.0404,-3.0404,-3.0404,-3.0404,-3.0022,-2.9705,-2.9705,-2.9314,-2.9005,-2.9005,-2.9005,-2.9005,-2.9005,-2.9005,-2.9005,-2.9005,-2.9005,-2.9005,-2.9005,-2.9005,-2.9005,-2.9005,-2.9005,-2.9005,-2.9005,-2.9005,-2.9005,-2.9005,-2.9005,-2.9185,-2.9589,-2.9748,-3.0022,-3.0404,-3.0404,-3.0404,0.0,-2.2126,-2.2195,-2.2914,-2.3107,-2.3309,-2.4107,-2.4915,0.0,-2.6521,-2.7328,-2.8136,-2.8932,-2.9042,-2.906,-2.9225,-2.9831,-3.0595,-3.1452,-3.221,-3.2949,-3.3715,-3.3807,0.0,-3.2748,-3.2333,0.0,0.0,0.0,0.0,0.0,-3.0404,-3.0404,-3.0404,-3.0404,-3.0404,-3.0404,-3.0404,-3.0439,-3.0485,-3.0485,-3.0521,-3.0587,-3.0587,0.0,0.0,0.0,0.0,0.0,-3.081,-3.0815,-3.0718,-3.0857,-3.0898,-3.0898,-3.0898,-3.0898,-3.0898,-3.0898,-3.0898,-3.0898,-3.0898,-3.0898,-3.0898,-3.0898,-3.0898,-3.0857,-3.0665,-3.0603,-3.0565,-3.0425,-3.0404,-3.0404,-3.0404,-3.0404,-3.0404,-3.0404,-3.0404,-3.0404,-3.0404,-3.003,-2.9722,-2.9705,-2.9334,-2.9028,-2.9005,-2.9005,-2.9005,-2.9005,-2.9005,-2.9005,-2.9005,-2.9005,-2.9005,-2.9005,-2.9005,-2.9005,-2.9005,-2.9005,-2.9005,-2.9005,-2.9005,-2.9005,-2.9005,-2.9021,-2.9171,-2.9414,-2.9821,-3.015,-3.0404,-3.0404,-3.0404,-2.4435,0.0,-2.4106,-2.4134,-2.4139,-2.4318,0.0,-2.5731,-2.6557,-2.7346,-2.8172,-2.895,-2.9769,-2.9409,-2.961,-3.1445,-3.1403,-3.1604,-3.3036,-3.3403,-3.3587,-3.377,-3.3807,-3.3733,-3.3532,-3.2516,0.0,0.0,0.0,-3.017,0.0,-3.0404,-3.0404,-3.0404,-3.0404,-3.0404,-3.0404,-3.0404,-3.0402,-3.0422,-3.0422,-3.0439,-3.0451,-3.0451,0.0,0.0,0.0,0.0,-3.0611,-3.0707,-3.0722,-3.0718,-3.0857,-3.0898,-3.0898,-3.0898,-3.0898,-3.0898,-3.0898,-3.0898,-3.0898,-3.0898,-3.0898,-3.0898,-3.0898,-3.0898,-3.0857,-3.0665,-3.0603,-3.0565,-3.0425,-3.0404,-3.0404,-3.0404,-3.0404,-3.0404,-3.0404,-3.0404,-3.0404,-3.0404,-3.0155,-2.9885,-2.9731,-2.9484,-2.9235,-2.904,-2.9005,-2.9005,-2.9005,-2.9005,-2.9005,-2.9005,-2.9005,-2.9005,-2.9005,-2.9005,-2.9005,-2.9005,-2.9005,-2.9005,-2.9005,-2.9005,-2.9005,-2.9005,-2.9346,-2.9561,-2.9625,-3.0073,-3.0349,-3.0404,-3.0404,-3.0404,-2.5044,-2.5241,-2.5299,-2.5105,-2.5333,-2.5652,-2.5894,-2.6576,-2.7273,-2.7714,-2.8436,-2.9133,-2.9574,-2.9592,-2.9977,-3.128,-3.1751,-3.2375,-3.3623,-3.3807,-3.3807,-3.3807,-3.3807,-3.3807,0.0,0.0,0.0,0.0,0.0,0.0,0.0,-3.0404,-3.0404,-3.0404,-3.0404,-3.0404,-3.0404,-3.0404,-3.0404,-3.0404,-3.0404,-3.0404,-3.0404,-3.0404,-3.0411,0.0,0.0,0.0,-3.052,-3.06,-3.0642,-3.0667,-3.0767,-3.0857,-3.0898,-3.0898,-3.0898,-3.0898,-3.0898,-3.0898,-3.0898,-3.0898,-3.0898,-3.0898,-3.0898,-3.0898,-3.0857,-3.0665,-3.0603,-3.0565,-3.0425,-3.0404,-3.0404,-3.0404,-3.0404,-3.0404,-3.0404,-3.0404,-3.0404,-3.0404,-3.0189,-2.9939,-2.972,-2.9542,-2.931,-2.9051,-2.9005,-2.9005,-2.9005,-2.9005,-2.9005,-2.9005,-2.9005,-2.9005,-2.9005,-2.9005,-2.9005,-2.9005,-2.9005,-2.9005,-2.9005,-2.9005,-2.9005,-2.9005,-2.9241,-2.9476,-2.9705,-2.9943,-3.0195,-3.0404,-3.0404,-3.0404,-2.5268,-2.5855,-2.6163,-2.5862,-2.6363,-2.6926,-2.6858,-2.7324,-2.7835,-2.7952,-2.8539,-2.9078,-2.9317,-2.9824,-3.032,-3.0687,-3.1885,-3.3023,-3.3697,-3.3807,-3.3807,-3.3807,-3.3697,0.0,0.0,0.0,0.0,0.0,0.0,0.0,0.0,-3.0404,-3.0404,-3.0404,-3.0404,-3.0404,-3.0404,-3.0404,-3.0404,-3.0404,-3.0404,-3.0404,-3.0404,-3.0404,-3.0404,0.0,0.0,0.0,-3.0408,-3.0533,-3.0594,-3.0611,-3.0677,-3.0771,-3.0898,-3.0898,-3.0898,-3.0898,-3.0898,-3.0898,-3.0898,-3.0898,-3.0898,-3.0898,-3.0898,-3.0898,-3.0857,-3.0665,-3.0603,-3.0565,-3.0425,-3.0404,-3.0404,-3.0404,-3.0404,-3.0404,-3.0404,-3.0404,-3.0404,-3.0404,-3.0209,-2.9977,-2.9748,-2.9551,-2.9343,-2.9033,-2.9005,-2.9005,-2.9005,-2.9005,-2.9005,-2.9005,-2.9005,-2.9005,-2.9005,-2.9005,-2.9005,-2.9005,-2.9005,-2.9005,-2.9005,-2.9005,-2.9005,-2.9005,-2.9078,-2.9304,-2.9705,-2.9773,-3.0007,-3.0404,-3.0404,-3.0404,-2.6076,-2.6861,-2.7093,-2.6394,-2.6677,-2.7286,-2.7764,-2.7822,-2.7989,-2.8675,-2.8913,-2.9427,-3.0779,-3.0577,-3.087,-3.2926,-3.3458,-3.366,0.0,0.0,-3.3807,-3.3807,0.0,0.0,0.0,0.0,0.0,0.0,0.0,0.0,0.0,-3.0404,-3.0404,-3.0404,-3.0404,-3.0404,-3.0404,-3.0404,-3.0404,-3.0404,-3.0404,-3.0404,-3.0404,-3.0404,-3.0404,0.0,0.0,-3.0408,-3.0416,-3.0486,-3.0556,-3.0611,-3.0677,-3.0771,-3.0898,-3.0898,-3.0898,-3.0898,-3.0898,-3.0898,-3.0898,-3.0898,-3.0898,-3.0898,-3.0898,-3.0898,-3.0857,-3.0665,-3.0603,-3.0565,-3.0425,-3.0404,-3.0404,-3.0404,-3.0404,-3.0404,-3.0404,-3.0404,-3.0404,-3.0404,-3.0367,-3.0208,-2.9773,-2.967,-2.9514,-2.9067,-2.9005,-2.9005,-2.9005,-2.9005,-2.9005,-2.9005,-2.9005,-2.9005,-2.9005,-2.9005,-2.9005,-2.9005,-2.9005,-2.9005,-2.9005,-2.9005,-2.9005,-2.9005,-2.9387,-2.9634,-2.9705,-3.0099,-3.0336,-3.0404,-3.0404,-3.0404,-2.4983,-2.6131,-2.7048,-2.7136,-2.7866,-2.8554,-2.8573,-2.863,-2.8727,-2.8948,-2.9005,-2.9354,-3.054,-3.0797,-3.1494,-3.3476,-3.3807,-3.3807,-3.3807,-3.3807,-3.3642,0.0,0.0,0.0,0.0,0.0,0.0,0.0,0.0,0.0,0.0,0.0,-3.0404,-3.0404,-3.0404,-3.0404,-3.0404,-3.0404,-3.0404,-3.0404,-3.0404,-3.0404,-3.0404,-3.0404,-3.0404,-3.0404,0.0,-3.0404,-3.041,-3.0425,-3.0491,-3.0544,-3.0628,-3.0705,-3.0794,-3.0878,-3.0898,-3.0898,-3.0898,-3.0898,-3.0898,-3.0898,-3.0898,-3.0898,-3.0898,-3.0898,-3.0857,-3.0665,-3.0603,-3.0565,-3.0425,-3.0404,-3.0404,-3.0404,-3.0404,-3.0404,-3.0404,-3.0404,-3.0404,-3.0404,-3.0404,-3.026,-2.9782,-2.9705,-2.9542,-2.9078,-2.9005,-2.9005,-2.9005,-2.9005,-2.9005,-2.9005,-2.9005,-2.9005,-2.9005,-2.9005,-2.9005,-2.9005,-2.9005,-2.9005,-2.9005,-2.9005,-2.9005,-2.9005,-2.9217,-2.9456,-2.9705,-2.9931,-3.0148,-3.0404,-3.0404,-3.0404,-2.4167,-2.5455,-2.6716,-2.7585,-2.8505,-2.918,-2.9177,-2.927,-2.9291,-2.9044,-2.9152,-2.9464,-3.0099,-3.0999,-3.2082,-3.333,-3.3678,-3.3733,-3.355,-3.3532,-3.322,0.0,0.0,0.0,0.0,0.0,0.0,0.0,0.0,0.0,0.0,0.0,-3.0404,-3.0404,-3.0404,-3.0404,-3.0404,-3.0404,-3.0404,-3.0404,-3.0404,-3.0404,-3.0404,-3.0404,-3.0404,-3.0404,-3.0404,-3.0404,-3.0404,-3.0404,-3.0436,-3.0511,-3.0571,-3.0657,-3.0768,-3.0858,-3.0898,-3.0898,-3.0898,-3.0898,-3.0898,-3.0898,-3.0898,-3.0898,-3.0898,-3.0898,-3.0857,-3.0665,-3.0603,-3.0565,-3.0425,-3.0404,-3.0404,-3.0404,-3.0404,-3.0404,-3.0404,-3.0404,-3.0404,-3.0404,-3.0404,-3.026,-2.9782,-2.9705,-2.9542,-2.9078,-2.9005,-2.9005,-2.9005,-2.9005,-2.9005,-2.9005,-2.9005,-2.9005,-2.9005,-2.9005,-2.9005,-2.9005,-2.9005,-2.9005,-2.9005,-2.9005,-2.9005,-2.9005,-2.9055,-2.9283,-2.9705,-2.9756,-3.0,-3.0404,-3.0404,-3.0404,-2.4955,-2.5812,-2.6428,-2.7299,-2.7591,-2.8008,-2.9346,-2.9475,-2.9259,-2.9033,-2.9592,-3.0136,-3.0191,-3.1476,-3.2546,-3.2674,-3.3311,-3.3532,-3.2784,0.0,0.0,0.0,0.0,0.0,0.0,0.0,0.0,0.0,0.0,0.0,0.0,0.0,0.0,-3.0404,-3.0404,-3.0404,-3.0404,-3.0404,-3.0404,-3.0404,-3.0404,-3.0404,-3.0404,-3.0404,-3.0404,-3.0404,-3.0404,-3.0404,-3.0404,-3.0404,-3.0436,-3.0511,-3.0571,-3.0718,-3.0898,-3.0898,-3.0898,-3.0898,-3.0898,-3.0898,-3.0898,-3.0898,-3.0898,-3.0898,-3.0898,-3.0898,-3.0857,-3.0665,-3.0603,-3.0565,-3.0425,-3.0404,-3.0404,-3.0404,-3.0404,-3.0404,-3.0404,-3.0404,-3.0404,-3.0404,-3.0404,-3.026,-2.9782,-2.9705,-2.9542,-2.9078,-2.9005,-2.9005,-2.9005,-2.9005,-2.9005,-2.9005,-2.9005,-2.9005,-2.9005,-2.9005,-2.9005,-2.9005,-2.9005,-2.9005,-2.9005,-2.9005,-2.9005,-2.9005,-2.9235,-2.9474,-2.9705,-2.9893,-3.0129,-3.0404,-3.0404,-3.0404,-2.3789,-2.5205,-2.6708,-2.7535,-2.7742,-2.7924,-2.8555,-2.9542,-3.0193,-2.9826,-2.9989,-3.021,-3.021,-3.1109,-3.2027,-3.2509,-3.2449,-3.2375,-3.2564,0.0,0.0,0.0,0.0,0.0,0.0,0.0,0.0,0.0,0.0,0.0,0.0,0.0,0.0,-3.0404,-3.0404,-3.0404,-3.0404,-3.0404,-3.0404,-3.0404,-3.0404,-3.0404,-3.0404,-3.0404,-3.0404,-3.0404,-3.0404,-3.0404,-3.0404,-3.0404,-3.0419,-3.0456,-3.0567,-3.0719,-3.0898,-3.0898,-3.0898,-3.0898,-3.0898,-3.0898,-3.0898,-3.0898,-3.0898,-3.0879,-3.0794,-3.0771,-3.0739,-3.0575,-3.0541,-3.0524,-3.0422,-3.0404,-3.0404,-3.0404,-3.0404,-3.0558,-3.1096,-3.1212,-3.1365,-3.1872,-3.1814,-3.1459,-3.0643,-3.0377,-2.9963,-2.9129,-2.9005,-2.9005,-2.9005,-2.9005,-2.9005,-2.9005,-2.9005,-2.9005,-2.9005,-2.9005,-2.9005,-2.9005,-2.9005,-2.9005,-2.9005,-2.9005,-2.9005,-2.9005,-2.91,-2.9259,-2.9513,-2.9589,-2.9807,-3.015,-3.015,-3.0248,-2.3716,-2.5392,-2.7204,-2.7762,-2.8088,-2.8292,-2.8311,-2.9447,-3.0387,-3.0028,-2.9883,-2.9824,-2.9824,-3.0485,-3.1201,0.0,-3.1586,-3.1494,0.0,0.0,0.0,0.0,0.0,0.0,0.0,0.0,0.0,0.0,0.0,0.0,0.0,0.0,0.0,0.0,-3.0404,-3.0404,-3.0404,-3.0404,-3.0404,-3.0404,-3.0404,-3.0404,-3.0404,-3.0404,-3.0404,-3.0404,-3.0404,-3.0404,-3.0404,-3.0404,-3.0414,-3.0441,-3.0533,-3.0676,-3.0837,-3.0837,-3.0858,-3.0898,-3.0898,-3.0898,-3.0898,-3.0898,-3.0878,-3.0816,-3.0722,-3.0686,-3.0635,-3.0533,-3.0498,-3.0472,-3.0425,-3.0404,-3.0404,-3.0404,-3.0615,-3.0962,-3.1564,-3.191,-3.2237,-3.2795,-3.2746,-3.2367,-3.1521,-3.1016,-3.0429,-2.9515,-2.9152,-2.9005,-2.9005,-2.9005,-2.9005,-2.9005,-2.9005,-2.9005,-2.9005,-2.9005,-2.9005,-2.9005,-2.9005,-2.9005,-2.9005,-2.9005,-2.9005,-2.9005,-2.9005,-2.9134,-2.9402,-2.9402,-2.957,-2.9908,-2.9977,-3.0096,-2.5245,-2.6664,-2.7895,-2.7895,-2.8511,-2.9068,-2.8853,-2.9233,-2.957,-2.9434,-2.92,-2.9005,-2.9005,-2.9647,0.0,-3.021,-3.0852,-3.1103,0.0,0.0,0.0,0.0,0.0,0.0,0.0,0.0,0.0,0.0,0.0,0.0,0.0,0.0,0.0,0.0,-3.0404,-3.0404,-3.0404,-3.0404,-3.0404,-3.0404,-3.0404,-3.0404,-3.0404,-3.0404,-3.0404,-3.0404,-3.0404,-3.0404,-3.0404,-3.0404,-3.0436,-3.0498,-3.0498,-3.0587,-3.0695,-3.0695,-3.0772,-3.0898,-3.0898,-3.0898,-3.0898,-3.0898,-3.0815,-3.0695,-3.0695,-3.0639,-3.0587,-3.0509,-3.0498,-3.0491,-3.0425,-3.0404,-3.0404,-3.0404,-3.1077,-3.1698,-3.1718,-3.2333,-3.291,-3.291,-3.2929,-3.2778,-3.2296,-3.1562,-3.0818,-3.0286,-2.9519,-2.9005,-2.9005,-2.9005,-2.9005,-2.9005,-2.9005,-2.9005,-2.9005,-2.9005,-2.9005,-2.9005,-2.9005,-2.9005,-2.9005,-2.9005,-2.9005,-2.9005,-2.9005,-2.9134,-2.9402,-2.9402,-2.9504,-2.9705,-2.9908,-3.0006,-2.4758,-2.6315,-2.8028,-2.7978,-2.8993,-2.9988,-2.994,-3.0386,-3.0696,-3.0333,-3.0032,-2.9666,-2.9097,-2.9207,0.0,-3.0118,-2.9934,0.0,0.0,0.0,0.0,0.0,0.0,0.0,0.0,0.0,0.0,0.0,0.0,0.0,0.0,0.0,0.0,0.0,-3.0404,-3.0404,-3.0404,-3.0404,-3.0404,-3.0404,-3.0404,-3.0404,-3.0404,-3.0404,-3.0404,-3.0404,-3.0404,-3.0404,-3.0404,-3.0404,-3.0436,-3.0498,-3.0498,-3.0587,-3.0695,-3.0695,-3.0772,-3.0898,-3.0898,-3.0898,-3.0898,-3.0898,-3.0878,-3.0814,-3.0663,-3.0623,-3.0575,-3.0462,-3.0433,-3.0422,-3.0416,-3.0404,-3.0404,-3.0404,-3.1077,-3.1852,-3.2429,-3.3199,-3.4007,-3.4615,-3.4415,-3.3922,-3.3176,-3.254,-3.1695,-3.038,-3.0008,-2.9629,-2.9078,-2.9005,-2.9005,-2.9005,-2.9005,-2.9005,-2.9005,-2.9005,-2.9005,-2.9005,-2.9005,-2.9005,-2.9005,-2.9005,-2.9089,-2.9278,-2.9089,-2.9134,-2.9402,-2.9402,-2.9504,-2.9705,-2.9908,-3.0096,-2.6317,-2.7688,-2.905,-2.8996,-2.9699,-3.0404,-3.0404,-3.0536,-3.0566,-3.0192,-2.9902,-2.9574,-2.9097,-2.9078,0.0,-2.9652,0.0,0.0,0.0,0.0,0.0,0.0,0.0,0.0,0.0,0.0,0.0,0.0,0.0,0.0,0.0,0.0,0.0,0.0,-3.0404,-3.0404,-3.0404,-3.0404,-3.0404,-3.0404,-3.0404,-3.0404,-3.0404,-3.0404,-3.0404,-3.0404,-3.0404,-3.0404,-3.0404,-3.0404,-3.0422,-3.0462,-3.0462,-3.0548,-3.0667,-3.0667,-3.0762,-3.0898,-3.0898,-3.0898,-3.0898,-3.0898,-3.0858,-3.079,-3.0641,-3.0581,-3.0541,-3.0433,-3.0404,-3.0404,-3.0404,-3.0404,-3.0481,-3.0827,-3.1564,-3.2391,-3.3237,-3.4103,-3.4872,-3.5404,-3.5147,-3.4652,-3.4035,-3.3269,-3.2287,-3.0895,-3.0136,-2.9537,-2.906,-2.9005,-2.9005,-2.9005,-2.9005,-2.9005,-2.9005,-2.9005,-2.9005,-2.9005,-2.91,-2.9167,-2.9167,-2.9167,-2.9225,-2.9402,-2.9322,-2.9365,-2.9523,-2.9523,-2.9579,-2.9705,-2.9908,-3.0082,-2.8819,-2.9827,-3.0412,-3.038,-3.0409,-3.0404,-3.0404,-3.0044,-2.9678,-2.9484,-2.9257,-2.9067,-2.9067,-2.9267,-2.9361,0.0,0.0,0.0,0.0,0.0,0.0,0.0,0.0,0.0,0.0,0.0,0.0,0.0,0.0,0.0,0.0,0.0,0.0,0.0,-3.0404,-3.0404,-3.0404,-3.0404,-3.0404,0.0,-3.0404,-3.0404,-3.0404,-3.0404,-3.0404,-3.0404,-3.0404,-3.0404,-3.0404,-3.0404,-3.0404,-3.0404,-3.0421,-3.0491,-3.0606,-3.0611,-3.0726,-3.0898,-3.0898,-3.0898,-3.0898,-3.0898,-3.0814,-3.0687,-3.0628,-3.0544,-3.0495,-3.0431,-3.0404,-3.0404,-3.0404,-3.0404,-3.0635,-3.1583,-3.2372,-3.3141,-3.4013,-3.4872,-3.55,-3.55,-3.5254,-3.4981,-3.4734,-3.3802,-3.2683,-3.1562,-3.0099,-2.9115,-2.9115,-2.906,-2.906,-2.9207,-2.9097,-2.9023,-2.9097,-2.9042,-2.9017,-2.9021,-2.9267,-2.9412,-2.9424,-2.9424,-2.9434,-2.9454,-2.9626,-2.9713,-2.9731,-2.9731,-2.9731,-2.972,-2.9939,-3.0047,-2.7525,-2.8567,-2.9695,-2.9576,-2.9979,-3.0404,-3.0404,-3.0169,-2.9924,-2.9885,-2.9695,-2.9551,-2.9551,-2.9588,-2.9626,0.0,0.0,0.0,0.0,0.0,0.0,0.0,0.0,0.0,0.0,0.0,0.0,0.0,0.0,0.0,0.0,0.0,0.0,-3.0404,-3.0404,-3.0404,-3.0404,-3.0404,-3.0404,0.0,-3.0404,-3.0404,-3.0404,-3.0404,-3.0404,-3.0404,-3.0404,-3.0404,-3.0404,-3.0404,-3.0404,-3.0416,-3.0457,-3.0525,-3.0611,-3.0665,-3.0768,-3.0898,-3.0898,-3.0898,-3.0898,-3.0898,-3.0814,-3.0687,-3.0628,-3.0544,-3.0495,-3.0431,-3.0404,-3.0404,-3.0404,-3.0404,-3.0788,-3.2275,-3.2776,-3.3141,-3.4013,-3.4872,-3.55,-3.55,-3.5113,-3.4764,-3.4704,-3.4088,-3.3127,-3.1629,-3.0577,-2.9953,-2.9953,-2.939,-2.9482,-3.0742,-2.9739,-2.9262,-2.9886,-2.9354,-2.9089,-2.9299,-2.9372,-2.9474,-2.9635,-2.9644,-2.9713,-2.9869,-2.9754,-2.9771,-2.9939,-2.9939,-2.9939,-2.9947,-3.0196,-3.0311,-2.8127,-2.9062,-2.9999,-2.9901,-3.0161,-3.0436,-3.0402,-3.0299,-3.0196,-3.0196,-2.9927,-2.9705,-2.9705,-2.9771,-2.9813,0.0,0.0,0.0,0.0,0.0,0.0,0.0,0.0,0.0,0.0,0.0,0.0,0.0,0.0,0.0,0.0,-3.0404,-3.0404,-3.0404,-3.0404,-3.0404,-3.0404,-3.0404,-3.0404,-3.0404,-3.0404,-3.0404,-3.0404,-3.0404,-3.0404,-3.0404,-3.0404,-3.0404,-3.0404,-3.0404,-3.0404,-3.0421,-3.0472,-3.0545,-3.0614,-3.0679,-3.0772,-3.0898,-3.0898,-3.0898,-3.0898,-3.0898,-3.0814,-3.0687,-3.0628,-3.0544,-3.0495,-3.0431,-3.0404,-3.0404,-3.0404,-3.0404,-3.0827,-3.2506,-3.2891,-3.3256,-3.4545,-3.5173,-3.55,-3.55,-3.507,-3.4694,-3.4694,-3.3557,-3.2228,-3.0999,-3.0136,-2.9629,-2.9629,-2.9262,-2.9464,-3.0687,-3.0081,-2.9898,-3.0705,-3.0155,-2.982,-2.9969,-2.9786,-2.972,-2.9837,-2.9958,-3.0018,-3.0006,-3.0018,-3.008,-3.0196,-3.0196,-3.0196,-3.0196,-3.0323,-3.0404,-2.8798,-2.9702,-3.042,-3.052,-3.0509,-3.0491,-3.0433,-3.0402,-3.0404,-3.0404,-3.0099,-2.9823,-2.9823,-2.9966,0.0,0.0,0.0,0.0,0.0,0.0,0.0,0.0,0.0,0.0,0.0,0.0,0.0,0.0,0.0,0.0,-3.0323,-3.0323,-3.0355,-3.0404,-3.0404,-3.0404,-3.0404,-3.0404,-3.0404,-3.0404,-3.0404,-3.0404,-3.0404,-3.0404,-3.0404,-3.0404,-3.0404,-3.0404,-3.0404,-3.0404,-3.0421,-3.0422,-3.0481,-3.0551,-3.0633,-3.071,-3.0795,-3.0898,-3.0898,-3.0898,-3.0898,-3.0878,-3.0771,-3.0675,-3.0609,-3.0537,-3.0463,-3.0419,-3.0404,-3.0404,-3.0404,-3.0404,-3.0827,-3.2506,-3.2865,-3.3313,-3.5109,-3.55,-3.55,-3.55,-3.507,-3.4663,-3.4569,-3.2922,-3.1329,-3.0522,-2.9831,-2.9354,-2.9225,-2.9335,-2.9721,-3.054,-3.0485,-3.0723,-3.1544,-3.106,-3.0785,-3.0862,-3.0567,-3.0346,-3.0305,-3.0638,-3.0669,-3.0305,-3.0356,-3.0404,-3.0404,-3.0404,-3.0404,-3.0404,-3.0404,-3.0404,-2.7109,-2.8375,-2.9819,-3.0507,-3.0591,-3.0494,-3.05,-3.0441,-3.0404,-3.0404,-3.0349,-3.0318,-3.0318,0.0,0.0,0.0,0.0,0.0,0.0,0.0,0.0,0.0,0.0,0.0,0.0,0.0,0.0,0.0,0.0,0.0,-3.0042,-3.0042,-3.0157,-3.0398,-3.0404,-3.0404,-3.0404,-3.0404,-3.0404,-3.0404,-3.0404,-3.0404,-3.0404,-3.0404,-3.0404,-3.0404,-3.0404,-3.0404,-3.0404,-3.0404,-3.0425,-3.0485,-3.0554,-3.0636,-3.0692,-3.0836,-3.0879,-3.0898,-3.0898,-3.0898,-3.0879,-3.0769,-3.0673,-3.0606,-3.0537,-3.0472,-3.0414,-3.041,-3.0404,-3.0404,-3.0404,-3.0404,-3.0827,-3.2506,-3.2725,-3.3085,-3.5062,-3.55,-3.55,-3.55,-3.507,-3.4537,-3.4018,-3.3101,-3.2173,-3.1347,-3.1146,-3.0834,-3.0136,-3.065,-3.1384,-3.2179,-3.1659,-3.1568,-3.2362,-3.1734,-3.148,-3.1958,-3.1939,-3.1789,-3.1495,-3.2186,-3.2225,-3.1495,-3.0776,-3.0404,-3.0404,-3.0404,-3.0404,-3.0404,-3.0404,-3.0404,-2.7957,-2.8861,-2.9687,-3.0509,-3.0663,-3.06,-3.0509,-3.0477,-3.0451,-3.0402,-3.0404,-3.0404,-3.0404,0.0,0.0,0.0,0.0,0.0,0.0,0.0,0.0,0.0,0.0,0.0,0.0,0.0,0.0,0.0,0.0,-3.0006,-3.0006,-3.0006,-3.0129,-3.0398,-3.0404,-3.0404,-3.0404,-3.0404,-3.0404,-3.0404,-3.0404,-3.0404,-3.0404,-3.0404,-3.0404,-3.0404,-3.0404,-3.0404,-3.039,-3.0441,-3.0467,-3.052,-3.0623,-3.0677,-3.0718,-3.0857,-3.0898,-3.0898,-3.0898,-3.0898,-3.0879,-3.0745,-3.0642,-3.0587,-3.0513,-3.0447,-3.0404,-3.0404,-3.0404,-3.0404,-3.0404,-3.0404,-3.0827,-3.2506,-3.2807,-3.3233,-3.5102,-3.5376,-3.5231,-3.5088,-3.4715,-3.4146,-3.328,-3.2467,-3.1806,-3.1452,-3.1029,-3.076,-3.0852,-3.1182,-3.1715,-3.2509,-3.2271,-3.2394,-3.3201,-3.2674,-3.2471,-3.2844,-3.2411,-3.2212,-3.2378,-3.2581,-3.2574,-3.2391,-3.2006,-3.1795,-3.1795,-3.1795,-3.1558,-3.1135,-3.1135,-3.0865,-2.8547,-2.9082,-2.9393,-3.0448,-3.0693,-3.0653,-3.0562,-3.0521,-3.0495,0.0,-3.0414,-3.0327,-3.0115,0.0,0.0,0.0,0.0,0.0,0.0,0.0,0.0,0.0,0.0,0.0,0.0,0.0,0.0,0.0,0.0,-2.9924,-2.9924,-2.9924,-3.0061,-3.0398,-3.0404,-3.0404,-3.0404,-3.0404,-3.0404,-3.0404,-3.0404,-3.0404,-3.0404,-3.0404,-3.0404,-3.0404,-3.0404,-3.0408,-3.0433,-3.0482,-3.0517,-3.0558,-3.0667,-3.072,-3.0768,-3.0858,-3.0898,-3.0898,-3.0898,-3.0879,-3.0836,-3.0711,-3.0638,-3.0554,-3.049,-3.0436,-3.0404,-3.0404,-3.0404,-3.0404,-3.0404,-3.0558,-3.1096,-3.2545,-3.3032,-3.3562,-3.5166,-3.5289,-3.5016,-3.4744,-3.4423,-3.3925,-3.3051,-3.2247,-3.1641,-3.1433,-3.1054,-3.0889,-3.1072,-3.1635,-3.2155,-3.2564,-3.2784,-3.3146,-3.3752,-3.3425,-3.332,-3.3598,-3.2989,-3.2769,-3.3112,-3.3154,-3.3169,-3.3237,-3.3449,-3.3333,-3.2891,-3.2891,-3.2487,-3.1698,-3.1698,-3.1346,-2.7609,-2.8123,-2.8586,-3.0281,-3.0659,-3.0623,-3.0678,-3.0597,-3.0498,-3.0494,-3.0446,-3.0154,0.0,0.0,0.0,0.0,0.0,0.0,0.0,0.0,0.0,0.0,0.0,0.0,0.0,0.0,0.0,0.0,0.0,-2.9722,-2.9722,-2.9722,-2.9939,-3.0392,-3.0404,-3.0404,-3.0404,-3.0404,-3.0404,-3.0404,-3.0404,-3.0404,-3.0404,-3.0404,-3.0404,-3.0404,-3.0404,-3.0449,-3.049,-3.0498,-3.0578,-3.0689,-3.0693,-3.0771,-3.0898,-3.0898,-3.0898,-3.0898,-3.0898,-3.0816,-3.0692,-3.0636,-3.0554,-3.0485,-3.0422,-3.039,-3.0404,-3.0404,-3.0404,-3.0404,-3.0404,-3.1,-3.1852,-3.2699,-3.3331,-3.4071,-3.5254,-3.5289,-3.5016,-3.4744,-3.4423,-3.4092,-3.38,-3.3073,-3.2271,-3.1513,-3.2008,-3.194,-3.0448,-3.2265,-3.3403,-3.2674,-3.3293,-3.3752,-3.3807,-3.3765,-3.3867,-3.4144,-3.4118,-3.3993,-3.377,-3.4533,-3.4706,-3.4141,-3.4949,-3.4538,-3.2891,-3.2891,-3.2487,-3.1698,-3.1698,-3.1679,-2.6839,-2.7174,-2.764,-2.9475,-2.9907,-3.0037,-3.0589,-3.0669,-3.0625,-3.0571,-3.007,-2.9525,0.0,0.0,0.0,0.0,0.0,0.0,0.0,0.0,0.0,0.0,0.0,0.0,0.0,0.0,0.0,0.0,0.0,0.0,-2.9513,-2.9644,-2.9848,-3.0136,-3.0311,-3.0404,-3.0404,-3.0404,-3.0404,-3.0404,-3.0404,-3.0404,-3.0404,-3.0404,-3.0404,-3.041,-3.0451,-3.0477,-3.0507,-3.0556,-3.0625,-3.0717,-3.0793,-3.0858,-3.0898,-3.0898,-3.0898,-3.0898,-3.0898,-3.0815,-3.0689,-3.0628,-3.0547,-3.0495,-3.0411,-3.0404,-3.0404,-3.0404,-3.0404,-3.0404,-3.0404,-3.1038,-3.2045,-3.341,-3.4325,-3.4846,-3.4705,-3.4323,-3.398,-3.3884,-3.3493,-3.3141,-3.3049,-3.2357,-3.1916,-3.2137,-3.1971,-3.1806,-3.1739,-3.2944,-3.3697,-3.3403,-3.3623,-3.3807,-3.3807,-3.3807,-3.3897,-3.4176,-3.4043,-3.4157,-3.4622,-3.4764,-3.4909,-3.5038,-3.5346,-3.5192,-3.4577,-3.4577,-3.4141,-3.3295,-3.3295,-3.3006,-2.6414,-2.6667,-2.7102,-2.8931,-2.9191,-2.9296,-3.0449,-3.0461,-3.0328,-3.0577,-2.9881,-2.9148,0.0,0.0,0.0,0.0,0.0,0.0,0.0,0.0,0.0,0.0,0.0,0.0,0.0,0.0,0.0,0.0,0.0,0.0,-2.9082,-2.9202,-2.9404,-2.969,-2.987,-3.0096,-3.0404,-3.0404,-3.0404,-3.0404,-3.0404,-3.0404,-3.0404,-3.0417,-3.0425,-3.043,-3.0507,-3.0533,-3.0545,-3.0611,-3.0696,-3.0771,-3.0878,-3.0898,-3.0898,-3.0898,-3.0898,-3.0898,-3.0857,-3.0765,-3.0663,-3.0591,-3.0513,-3.0457,-3.0414,-3.0404,-3.0404,-3.0404,-3.0404,-3.0404,-3.0404,-3.125,-3.2468,-3.3878,-3.4872,-3.525,-3.4398,-3.377,-3.3318,-3.3044,-3.2557,-3.221,-3.221,-3.1751,-3.1494,-3.1739,-3.1568,-3.1586,-3.2137,-3.2908,-3.3495,-3.377,-3.3807,-3.3807,-3.3807,-3.3807,-3.3876,-3.4056,-3.3902,-3.3981,-3.4387,-3.4319,-3.4338,-3.4513,-3.4883,-3.5064,-3.5064,-3.5365,-3.5045,-3.4205,-3.4205,-3.3725,0.0,0.0,0.0,-2.8696,-2.8531,-2.8433,-3.0246,0.0,-2.9627,-3.0528,-2.9936,-2.9006,0.0,0.0,0.0,0.0,0.0,0.0,0.0,0.0,0.0,0.0,0.0,0.0,0.0,0.0,0.0,0.0,0.0,-2.9101,-2.8435,-2.8376,-2.8582,-2.9058,-2.9088,-2.9506,-3.0346,-3.0385,-3.0404,-3.039,-3.039,-3.039,-3.0402,-3.0467,-3.0507,-3.0511,-3.0571,-3.0609,-3.0614,-3.0677,-3.0771,-3.0898,-3.0898,-3.0898,-3.0898,-3.0898,-3.0898,-3.0878,-3.0745,-3.0642,-3.0587,-3.0517,-3.0452,-3.0404,-3.0404,-3.0404,-3.0404,-3.0404,-3.0404,-3.0404,-3.0423,-3.1654,-3.3083,-3.3955,-3.4814,-3.5192,-3.4314,-3.3702,-3.311,-3.2307,-3.1738,-3.136,-3.1378,-3.136,-3.1103,-3.032,-3.0852,-3.136,-3.136,-3.21,-3.2894,-3.3678,-3.3788,-3.3807,-3.3807,-3.377,-3.377,-3.3807,-3.377,-3.3541,-3.3026,-3.3269,-3.3157,-3.2657,-3.3644,-3.4167,-3.4205,-3.5064,-3.5064,-3.4244,-3.4244,-3.3776,-2.5725,0.0,0.0,0.0,0.0,0.0,0.0,0.0,-2.8894,-3.0383,-2.9492,-2.8363,0.0,0.0,0.0,0.0,0.0,0.0,0.0,0.0,0.0,0.0,0.0,0.0,0.0,0.0,0.0,0.0,-2.9338,-2.8804,-2.8414,-2.7983,-2.7898,-2.8217,-2.88,-2.9223,-2.9467,-3.0077,-3.0422,-3.0467,-3.0467,-3.0494,-3.0548,-3.0558,-3.0571,-3.0575,-3.0633,-3.0677,-3.0677,-3.069,-3.0771,-3.0898,-3.0898,-3.0898,-3.0898,-3.0898,-3.0837,-3.0746,-3.0718,-3.0614,-3.0521,-3.0511,-3.0452,-3.0404,-3.0404,-3.0404,-3.0404,-3.0404,-3.0404,-3.0558,-3.1173,-3.1679,-3.2237,-3.3064,-3.3449,-3.3391,-3.2564,-3.212,-3.1781,-3.1409,-3.1056,-3.0761,-3.0558,-3.0522,-3.0467,-3.0228,-3.0393,-3.0522,-3.0522,-3.1751,-3.2693,-3.2913,-3.3458,-3.3807,-3.3807,-3.3275,-3.3183,-3.3752,-3.3256,-3.3038,-3.3269,-3.3361,-3.3523,-3.3747,-3.3429,-3.3564,-3.4205,-3.5064,-3.5385,-3.5135,-3.5135,-3.468,-2.5794,-2.6088,-2.6587,-2.7074,0.0,0.0,-2.8523,-2.8184,-2.7955,0.0,-2.8588,-2.7636,0.0,0.0,0.0,0.0,0.0,0.0,0.0,0.0,0.0,0.0,0.0,0.0,0.0,0.0,0.0,-3.0006,-2.9486,-2.8837,-2.807,-2.7452,-2.7194,-2.7351,-2.7813,-2.8242,-2.8607,-2.945,-2.9922,-2.9961,-3.0354,-3.0558,-3.0606,-3.0636,-3.065,-3.0652,-3.074,-3.0771,-3.0771,-3.0771,-3.0836,-3.0898,-3.0898,-3.0898,-3.0898,-3.0898,-3.0816,-3.0693,-3.0673,-3.0594,-3.0494,-3.0477,-3.0439,-3.0404,-3.0404,-3.0404,-3.0404,-3.0404,-3.0404,-3.0519,-3.1019,-3.1429,-3.1814,-3.2295,-3.266,-3.2679,-3.1872,-3.1485,-3.1123,-3.0567,-3.0263,-3.0015,-2.9743,-2.9702,-2.9702,-2.9702,-2.9702,-2.9824,-3.0173,-3.1311,-3.2228,-3.2564,-3.333,-3.3807,-3.3807,-3.3073,-3.2996,-3.3906,-3.3204,-3.295,-3.3392,-3.3167,-3.3012,-3.2996,-3.2936,-3.3506,-3.4737,-3.4891,-3.5135,-3.55,-3.55,-3.5026,-2.6362,-2.6479,-2.6708,-2.7503,-2.719,0.0,-2.7741,-2.7337,-2.7033,0.0,-2.7526,-2.6931,0.0,0.0,0.0,0.0,0.0,0.0,0.0,0.0,0.0,0.0,0.0,0.0,0.0,-3.0022,-2.9845,-3.0021,-2.9793,-2.9022,-2.7611,-2.7044,-2.6736,-2.6736,-2.6736,-2.7121,-2.7895,-2.8684,-2.9074,-2.909,-3.0037,-3.0484,-3.0494,-3.0645,-3.0721,-3.0722,-3.0857,-3.0898,-3.0898,-3.0898,-3.0898,-3.0898,-3.0898,-3.0898,-3.0879,-3.0879,-3.0791,-3.0675,-3.0617,-3.0533,-3.0482,-3.0411,-3.0404,-3.0404,-3.0404,-3.0404,-3.0404,-3.0404,-3.0404,-3.0404,-3.0404,-3.0962,-3.1564,-3.1564,-3.2102,-3.2429,-3.1718,-3.1332,-3.0875,-2.988,-2.9542,-2.931,-2.9051,-2.9005,-2.9005,-2.9005,-2.9005,-2.9262,-2.9971,-3.076,-3.1531,-3.2252,-3.3054,-3.3545,-3.3584,-3.2923,-3.2933,-3.3906,-3.3295,-3.3026,-3.328,-3.2702,-3.2092,-3.1481,-3.2416,-3.366,-3.5212,-3.4622,-3.4737,-3.55,-3.55,-3.5084,-2.7153,-2.75,-2.7763,-2.679,-2.6931,0.0,-2.6969,-2.6756,-2.6912,0.0,-2.7366,-2.6773,-2.6788,0.0,0.0,0.0,0.0,0.0,0.0,0.0,0.0,0.0,0.0,0.0,0.0,-3.0324,-3.028,-3.0317,-2.964,-2.8815,-2.7865,-2.7701,-2.764,-2.764,-2.764,-2.7736,-2.7895,-2.811,-2.8268,-2.8323,-2.9271,-2.9741,-2.982,-3.0545,-3.0858,-3.0858,-3.0898,-3.0898,-3.0898,-3.0898,-3.0898,-3.0898,-3.0898,-3.0837,-3.0744,-3.0744,-3.0652,-3.0541,-3.0521,-3.0472,-3.0425,-3.0396,-3.0404,-3.0404,-3.0404,-3.0404,-3.0404,-3.0404,-3.0404,-3.0404,-3.0404,-3.0538,-3.0654,-3.0654,-3.0769,-3.0846,-3.0692,-3.0445,-3.0137,-2.9767,-2.9542,-2.931,-2.9051,-2.9005,-2.9005,-2.9005,-2.9005,-2.906,-2.9207,-2.9953,-3.0485,-3.065,-3.1384,-3.1955,-3.2164,-3.2054,-3.212,-3.2482,-3.2419,-3.2449,-3.2678,-3.1949,-3.1866,-3.257,-3.2801,-3.3064,-3.341,-3.4661,-3.5327,-3.55,-3.55,-3.5404,-2.7735,-2.794,-2.8096,-2.7464,0.0,0.0,0.0,-2.6082,-2.6102,-2.7021,-2.6618,-2.6236,-2.666,0.0,0.0,0.0,0.0,0.0,0.0,0.0,0.0,0.0,0.0,0.0,0.0,-3.0411,-3.0404,-3.0404,-3.0,-2.9371,-2.8549,-2.8492,-2.8126,-2.7274,-2.7255,-2.7055,-2.665,-2.7152,-2.7435,-2.7519,-2.8458,-2.8923,-2.8984,-2.9844,-3.0254,-3.0273,-3.0703,-3.0898,-3.0898,-3.0898,-3.0898,-3.0898,-3.0836,-3.0768,-3.0693,-3.0667,-3.0591,-3.0498,-3.0498,-3.0452,-3.0404,-3.0404,-3.0404,-3.0404,-3.0404,-3.0404,-3.0404,-3.0404,-3.0404,-3.0404,-3.0404,-3.0404,-3.0404,-3.0404,-3.0404,-3.0404,-3.0404,-3.0196,-2.9947,-2.9748,-2.9542,-2.931,-2.9051,-2.9005,-2.9005,-2.9005,-2.9005,-2.9005,-2.9005,-2.9702,-3.021,-3.021,-3.1052,-3.1647,-3.1782,-3.1522,-3.1619,-3.2265,-3.1958,-3.2048,-3.2666,-3.1938,-3.1756,-3.2295,-3.3122,-3.3545,-3.3545,-3.4865,-3.55,-3.55,-3.55,-3.55,-2.8263,-2.8263,-2.8248,-2.8134,0.0,-2.7113,0.0,0.0,0.0,-2.5979,-2.5726,0.0,0.0,0.0,0.0,0.0,0.0,0.0,0.0,0.0,0.0,0.0,0.0,0.0,0.0,-3.0436,-3.0404,-3.0404,-3.0404,-3.0096,-2.939,-2.9357,-2.8736,-2.7365,-2.7178,-2.6699,-2.5917,-2.6507,-2.6751,-2.6658,-2.7595,-2.8047,-2.8086,-2.8945,-2.9434,-2.9648,-3.0332,-3.0742,-3.0898,-3.0898,-3.0898,-3.0898,-3.0771,-3.0716,-3.0677,-3.0628,-3.0556,-3.0482,-3.0482,-3.0451,-3.0404,-3.0404,-3.0404,-3.0404,-3.0404,-3.0404,-3.0404,-3.0404,-3.0404,-3.0404,-3.0404,-3.0404,-3.0404,-3.0404,-3.0404,-3.0404,-3.0404,-3.0169,-2.9901,-2.9739,-2.9542,-2.933,-2.9112,-2.9078,-2.9089,-2.9127,-2.9138,-2.9138,-2.9138,-2.9691,-3.0097,-3.0097,-3.0883,-3.1406,-3.1458,-3.1149,-3.1297,-3.2039,-3.163,-3.1766,-3.2635,-3.2045,-3.1698,-3.1698,-3.3179,-3.4032,-3.4205,-3.5064,-3.55,-3.55,-3.55,-3.55,0.0,0.0,0.0,0.0,-2.755,0.0,0.0,0.0,-2.5719,-2.5113,0.0,0.0,0.0,0.0,0.0,0.0,0.0,0.0,0.0,0.0,0.0,0.0,0.0,0.0,0.0,0.0,-3.0404,-3.0404,-3.0404,-3.0365,-3.025,-3.025,-3.0173,-2.9962,-2.9217,-2.8453,-2.7713,-2.709,-2.6448,-2.5758,-2.6697,-2.7148,-2.7187,-2.8047,-2.8867,-2.9609,-2.9707,-3.0195,-3.0898,-3.0898,-3.0898,-3.0898,-3.0879,-3.076,-3.0617,-3.0606,-3.0528,-3.0414,-3.0414,-3.0416,-3.0404,-3.0404,-3.0404,-3.0404,-3.0404,-3.0404,-3.0404,-3.0404,-3.0404,-3.0404,-3.0404,-3.0404,-3.0404,-3.0404,-3.0404,-3.0404,-3.0404,-3.0044,-2.9731,-2.9705,-2.9542,-2.9392,-2.9361,-2.9351,-2.9424,-2.9588,-2.9625,-2.9625,-2.9625,-2.97,-2.9747,-2.9747,-2.9869,-3.0004,-3.0201,-3.0856,-3.1076,-3.065,-3.1283,-3.1718,-3.1833,-3.1756,-3.1698,-3.1698,-3.2583,-3.343,-3.4205,-3.5064,-3.55,-3.55,-3.55,-3.55,0.0,0.0,0.0,0.0,0.0,0.0,-2.5355,0.0,-2.5174,0.0,0.0,0.0,0.0,0.0,0.0,0.0,0.0,0.0,0.0,0.0,0.0,0.0,0.0,0.0,0.0,0.0,0.0,0.0,0.0,-3.052,-3.052,-3.052,-3.0292,-2.9826,-2.9462,-2.8657,-2.7369,-2.7026,-2.6454,-2.566,-2.6054,-2.625,-2.6289,-2.7148,-2.7754,-2.8144,-2.916,-2.9784,-3.0127,-3.0596,-3.0762,-3.0721,-3.0721,-3.0674,-3.0594,-3.0516,-3.0451,-3.0404,-3.0404,-3.0404,-3.0404,-3.0404,-3.0404,-3.0404,-3.0404,-3.0404,-3.0404,-3.0404,-3.0404,-3.0404,-3.0404,-3.0404,-3.0404,-3.0404,-3.0404,-3.0404,-3.0404,-3.0254,-3.0059,-2.9901,-2.9804,-2.9756,-2.9756,-2.9643,-2.9607,-2.9687,-2.9705,-2.9705,-2.9705,-2.9705,-2.9705,-2.9705,-2.9804,-2.9908,-2.9999,-3.0468,-3.0676,-3.0417,-3.0731,-3.0942,-3.0942,-3.1429,-3.1698,-3.1698,-3.2487,-3.3083,-3.3449,-3.4314,-3.4757,-3.4757,-3.525,-3.55,-2.8559,0.0,0.0,0.0,0.0,0.0,0.0,0.0,0.0,0.0,0.0,0.0,0.0,0.0,-2.5532,-2.5304,0.0,-2.55,0.0,0.0,0.0,0.0,0.0,0.0,0.0,0.0,0.0,0.0,0.0,0.0,-3.0603,-3.0603,-3.0333,-2.9752,-2.9733,-2.9046,-2.7631,-2.7377,-2.6845,-2.6055,-2.5801,-2.5703,-2.5723,-2.6367,-2.6777,-2.707,-2.8573,-2.9327,-2.956,-3.0349,-3.0633,-3.0603,-3.0578,-3.0571,-3.0554,-3.0467,-3.0419,-3.0404,-3.0404,-3.0404,-3.0404,-3.0404,-3.0404,-3.0404,-3.0404,-3.0404,-3.0404,-3.0404,-3.0404,-3.0404,-3.0404,-3.0404,-3.0404,-3.0404,-3.0404,-3.0404,-3.0404,-3.0349,-3.0299,-3.0359,-3.0349,-3.0426,-3.0662,-3.0189,-2.9815,-2.988,-2.9888,-2.9888,-2.9888,-2.9888,-2.9888,-2.9888,-3.0018,-3.0103,-3.0103,-3.0299,-3.0404,-3.0404,-3.0404,-3.0404,-3.0404,-3.1231,-3.1698,-3.1698,-3.2487,-3.3026,-3.3256,-3.3898,-3.4321,-3.4564,-3.5212,-3.55,0.0,0.0,0.0,-2.6833,0.0,0.0,0.0,0.0,-2.5376,0.0,0.0,0.0,0.0,-2.7003,-2.6863,-2.6087,-2.5982,0.0,0.0,0.0,0.0,0.0,0.0,0.0,0.0,0.0,0.0,0.0,0.0,0.0,-3.0603,-3.0603,-3.0583,-3.0564,-3.0564,-3.019,-2.9424,-2.8585,-2.7741,-2.6953,-2.6094,-2.5703,-2.5703,-2.5723,-2.6191,-2.7051,-2.7877,-2.8721,-2.9559,-3.0305,-3.0606,-3.0597,-3.0529,-3.0507,-3.0503,-3.0498,-3.0452,-3.0404,-3.0404,-3.0404,-3.0404,-3.0404,-3.0404,-3.0404,-3.0404,-3.0404,-3.0404,-3.0404,-3.0404,-3.0404,-3.0404,-3.0404,-3.0404,-3.0404,-3.0404,-3.0404,-3.0404,-3.0196,-3.0261,-3.1108,-3.126,-3.1535,-3.2363,-3.11,-3.0075,-3.0343,-3.0386,-3.0386,-3.0386,-3.0386,-3.0386,-3.0386,-3.0373,-3.0398,-3.0398,-3.0398,-3.0404,-3.0404,-3.0404,-3.0404,-3.0404,-3.1231,-3.1698,-3.1698,-3.2487,-3.3314,-3.4167,-3.4186,-3.4622,-3.5462,-3.5481,-3.55,0.0,0.0,-2.6274,-2.6539,0.0,0.0,0.0,0.0,0.0,0.0,0.0,0.0,0.0,-2.686,-2.6905,-2.6643,-2.6266,-2.5914,0.0,0.0,0.0,0.0,0.0,0.0,0.0,0.0,0.0,0.0,0.0,0.0,0.0,-3.0807,-3.0807,-3.0807,-3.0807,-3.0401,-2.9567,-2.8708,-2.783,-2.6992,-2.6113,-2.5703,-2.5703,-2.5659,-2.579,-2.6121,-2.6928,-2.7736,-2.8576,-2.9345,-2.9988,-3.0467,-3.0441,-3.0425,-3.0425,-3.0425,-3.0411,-3.0404,-3.0404,-3.0404,-3.0404,-3.0404,-3.0404,-3.0404,-3.0404,-3.0404,-3.0404,-3.0404,-3.0404,-3.0404,-3.0404,-3.0404,-3.0404,-3.0404,-3.0404,-3.0404,-3.0404,-3.0784,-3.1207,-3.152,-3.2,-3.2441,-3.2755,-3.2307,-3.177,-3.1321,-3.0769,-3.0404,-3.0404,-3.0404,-3.0404,-3.0404,-3.0404,-3.0404,-3.0404,-3.0404,-3.0404,-3.0404,-3.0404,-3.0404,-3.0404,-3.0673,-3.1115,-3.1698,-3.1404,-3.1948,-3.3333,-3.3333,-3.3795,-3.4641,-3.5231,-3.55,-2.6025,-2.5797,0.0,-2.6043,-2.5383,0.0,-2.4915,0.0,0.0,0.0,0.0,0.0,0.0,-2.695,-2.7032,-2.6449,-2.6042,-2.5706,0.0,-2.6214,0.0,0.0,0.0,0.0,0.0,0.0,-3.065,-3.065,0.0,0.0,0.0,0.0,-3.0898,-3.0898,-3.0898,-3.0625,-3.0078,-2.9199,-2.832,-2.7441,-2.6542,-2.5954,-2.5661,-2.5599,-2.5563,-2.5637,-2.6748,-2.7514,-2.8081,-2.9192,-2.9934,-3.0404,-3.0404,-3.0404,-3.0404,-3.0404,-3.0404,-3.0404,-3.0404,-3.0404,-3.0404,-3.0404,-3.0404,-3.0404,-3.0404,-3.0404,-3.0404,-3.0404,-3.0404,-3.0404,-3.0404,-3.0404,-3.0404,-3.0404,-3.0404,-3.0481,-3.0808,-3.1288,-3.1872,-3.2468,-3.3006,-3.3468,-3.3776,-3.3564,-3.3083,-3.2256,-3.166,-3.1192,-3.0904,-3.1115,-3.1058,-3.0462,-3.0673,-3.0731,-3.0423,-3.0404,-3.0404,-3.0404,-3.0404,-3.0404,-3.0404,-3.0692,-3.0981,-3.1231,-3.0981,-3.1385,-3.2468,-3.2756,-3.3353,-3.4225,-3.5084,-3.55]},{"header":{"parameterUnit":"m.s-1","parameterCategory":1,"la1":30.6,"la2":29.2853,"lo1":-89.7004,"lo2":-87.6739,"dy":0.0162,"dx":0.0183,"nx":112,"ny":82,"refTime":"2024-07-15T00:00:00:Z","depth":0,"parameterNumber":3,"parameterNumberName":"V-component_of_WINDS"},"data":[0.0,0.0,0.0,0.0,0.0,0.0,0.0,0.0,0.0,0.0,0.0,0.0,0.0,0.0,0.0,0.0,0.0,0.0,0.0,0.0,0.0,0.0,0.0,0.0,0.0,0.0,0.0,0.0,0.0,0.0,0.0,0.0,0.0,0.0,0.0,0.0,0.0,0.0,0.0,0.0,0.0,0.0,0.0,0.0,0.0,0.0,0.0,0.0,0.0,0.0,0.0,0.0,0.0,0.0,0.0,0.0,0.0,0.0,0.0,0.0,0.0,0.0,0.0,0.0,0.0,0.0,0.0,0.0,0.0,0.0,0.0,0.0,0.0,0.0,0.0,0.0,0.0,0.0,0.0,0.0,0.0,0.0,0.0,0.0,0.0,0.0,0.0,0.0,0.0,0.0,-0.1546,-0.1546,-0.2356,-0.3241,-0.4089,-0.4214,-0.4611,-0.5518,0.0,0.0,0.0,0.0,0.0,0.0,0.0,0.0,0.0,0.0,0.0,0.0,0.0,0.0,0.0,0.0,0.0,0.0,0.0,0.0,0.0,0.0,0.0,0.0,0.0,0.0,0.0,0.0,0.0,0.0,0.0,0.0,0.0,0.0,0.0,0.0,0.0,0.0,0.0,0.0,0.0,0.0,0.0,0.0,0.0,0.0,0.0,0.0,0.0,0.0,0.0,0.0,0.0,0.0,0.0,0.0,0.0,0.0,0.0,0.0,0.0,0.0,0.0,0.0,0.0,0.0,0.0,0.0,0.0,0.0,0.0,0.0,0.0,0.0,0.0,0.0,0.0,0.0,0.0,0.0,0.0,0.0,0.0,0.0,0.0,0.0,0.0,0.0,0.0,0.0,0.0,0.0,0.0,0.0,0.0,0.0,0.0,0.0,0.0,0.0,0.0,0.0,0.0,0.0,-0.2671,-0.2671,-0.3335,-0.3859,-0.4006,-0.4727,-0.5259,-0.5429,0.0,0.0,0.0,0.0,0.0,0.0,0.0,0.0,0.0,0.0,0.0,0.0,0.0,0.0,0.0,0.0,0.0,0.0,0.0,0.0,0.0,0.0,0.0,0.0,0.0,0.0,0.0,0.0,0.0,0.0,0.0,0.0,0.0,0.0,0.0,0.0,0.0,0.0,0.0,0.0,0.0,0.0,0.0,0.0,0.0,0.0,0.0,0.0,0.0,0.0,0.0,0.0,0.0,0.0,0.0,0.0,0.0,0.0,0.0,0.0,0.0,0.0,0.0,0.0,0.0,0.0,0.0,0.0,0.0,0.0,0.0,0.0,0.0,0.0,0.0,0.0,0.0,0.0,0.0,0.0,0.0,0.0,0.0,0.0,0.0,0.0,0.0,0.0,0.0,0.0,0.0,0.0,0.0,0.0,0.0,0.0,0.0,0.0,0.0,0.0,0.0,0.0,0.0,-0.312,-0.3496,-0.3511,-0.4267,-0.4754,-0.4758,-0.516,-0.5395,-0.5395,-0.6203,0.0,0.0,0.0,0.0,0.0,0.0,0.0,0.0,0.0,0.0,0.0,0.0,0.0,0.0,0.0,0.0,0.0,0.0,0.0,0.0,0.0,0.0,0.0,0.0,0.0,0.0,0.0,0.0,0.0,0.0,0.0,0.0,0.0,0.0,0.0,0.0,0.0,0.0,0.0,0.0,0.0,0.0,0.0,0.0,0.0,0.0,0.0,0.0,0.0,0.0,0.0,0.0,0.0,0.0,0.0,0.0,0.0,0.0,0.0,0.0,0.0,0.0,0.0,0.0,0.0,0.0,0.0,0.0,0.0,0.0,0.0,0.0,0.0,0.0,0.0,0.0,0.0,0.0,0.0,0.0,0.0,0.0,0.0,0.0,0.0,0.0,0.0,0.0,0.0,0.0,0.0,0.0,0.0,0.0,0.0,0.0,0.0,0.0,0.0,0.0,0.0,0.0,-0.3949,-0.433,-0.4381,-0.5005,-0.5395,-0.5395,-0.5395,-0.5395,-0.5395,-0.6541,0.0,0.0,0.0,0.0,0.0,0.0,0.0,0.0,0.0,0.0,0.0,0.0,0.0,0.0,0.0,0.0,0.0,0.0,0.0,0.0,0.0,0.0,0.0,0.0,0.0,0.0,0.0,0.0,0.0,0.0,0.0,0.0,0.0,0.0,0.0,0.0,0.0,0.0,0.0,0.0,0.0,0.0,0.0,0.0,0.0,0.0,0.0,0.0,0.0,0.0,0.0,0.0,0.0,0.0,0.0,0.0,0.0,0.0,0.0,0.0,0.0,0.0,0.0,0.0,0.0,0.0,0.0,0.0,0.0,0.0,0.0,0.0,0.0,0.0,0.0,0.0,0.0,0.0,0.0,0.0,0.0,0.0,0.0,0.0,0.0,0.0,0.0,0.0,0.0,0.0,0.0,0.0,0.0,0.0,0.0,0.0,0.0,0.0,0.0,0.0,0.0,0.0,-0.5352,-0.5353,-0.5469,-0.545,-0.5395,-0.5395,-0.5395,-0.5395,-0.5395,-0.6695,0.0,0.0,0.0,0.0,0.0,0.0,0.0,0.0,0.0,0.0,0.0,0.0,0.0,0.0,0.0,0.0,0.0,0.0,0.0,0.0,0.0,0.0,0.0,0.0,0.0,0.0,0.0,0.0,0.0,0.0,0.0,0.0,0.0,0.0,0.0,0.0,0.0,0.0,0.0,0.0,0.0,0.0,0.0,0.0,0.0,0.0,0.0,0.0,0.0,0.0,0.0,0.0,0.0,0.0,0.0,0.0,0.0,0.0,0.0,0.0,0.0,0.0,0.0,0.0,0.0,0.0,0.0,0.0,0.0,0.0,0.0,0.0,0.0,0.0,0.0,0.0,0.0,0.0,0.0,0.0,0.0,0.0,0.0,0.0,0.0,0.0,0.0,0.0,0.0,0.0,0.0,0.0,0.0,0.0,0.0,0.0,0.0,0.0,0.0,0.0,0.0,0.0,-0.5429,-0.5419,-0.5474,-0.5429,-0.5395,-0.5395,-0.5395,-0.5395,-0.5395,0.0,0.0,0.0,0.0,0.0,0.0,0.0,0.0,0.0,0.0,0.0,0.0,0.0,0.0,0.0,0.0,0.0,0.0,0.0,0.0,0.0,0.0,0.0,0.0,0.0,0.0,0.0,0.0,0.0,0.0,0.0,0.0,0.0,0.0,0.0,0.0,0.0,0.0,0.0,0.0,0.0,0.0,0.0,0.0,0.0,0.0,0.0,0.0,0.0,0.0,0.0,0.0,0.0,0.0,0.0,0.0,0.0,0.0,0.0,0.0,0.0,0.0,0.0,0.0,0.0,0.0,0.0,0.0,0.0,0.0,0.0,0.0,0.0,0.0,0.0,0.0,0.0,0.0,0.0,0.0,0.0,0.0,0.0,0.0,0.0,0.0,0.0,0.0,0.0,0.0,0.0,0.0,0.0,0.0,0.0,0.0,0.0,0.0,0.0,0.0,0.0,0.0,-0.5257,-0.5365,-0.5395,-0.5395,-0.5395,-0.5395,-0.5395,-0.5395,-0.547,-0.5643,0.0,0.0,0.0,0.0,0.0,0.0,0.0,0.0,0.0,0.0,0.0,0.0,0.0,0.0,0.0,0.0,0.0,0.0,0.0,0.0,0.0,0.0,0.0,0.0,0.0,0.0,0.0,0.0,0.0,0.0,0.0,0.0,0.0,0.0,0.0,0.0,0.0,0.0,0.0,0.0,0.0,0.0,0.0,0.0,0.0,0.0,0.0,0.0,0.0,0.0,0.0,0.0,0.0,0.0,0.0,0.0,0.0,0.0,0.0,0.0,0.0,0.0,0.0,0.0,0.0,0.0,0.0,0.0,0.0,0.0,0.0,0.0,0.0,0.0,0.0,0.0,0.0,0.0,0.0,0.0,0.0,0.0,0.0,0.0,0.0,0.0,0.0,0.0,0.0,0.0,0.0,0.0,0.0,0.0,0.0,0.0,0.0,0.0,0.0,0.0,0.0,0.0,-0.5079,-0.5267,-0.5395,-0.5395,-0.5395,-0.5395,-0.5395,-0.5395,-0.5618,0.0,0.0,0.0,0.0,0.0,0.0,0.0,0.0,0.0,0.0,0.0,0.0,0.0,0.0,0.0,0.0,0.0,0.0,0.0,0.0,0.0,0.0,0.0,0.0,0.0,0.0,0.0,0.0,0.0,0.0,0.0,0.0,0.0,0.0,0.0,0.0,0.0,0.0,0.0,0.0,0.0,0.0,0.0,0.0,0.0,0.0,0.0,0.0,0.0,0.0,0.0,0.0,0.0,0.0,0.0,0.0,0.0,0.0,0.0,0.0,0.0,0.0,0.0,0.0,0.0,0.0,0.0,0.0,0.0,0.0,0.0,0.0,0.0,0.0,0.0,0.0,0.0,0.0,0.0,0.0,0.0,0.0,0.0,0.0,0.0,0.0,0.0,0.0,0.0,0.0,0.0,0.0,0.0,0.0,0.0,0.0,0.0,0.0,0.0,0.0,0.0,0.0,0.0,-0.5079,-0.5267,-0.5395,-0.5395,-0.5395,-0.5395,-0.5395,-0.5395,-0.5618,-0.6167,0.0,0.0,0.0,0.0,0.0,0.0,0.0,0.0,0.0,0.0,0.0,0.0,0.0,0.0,0.0,0.0,0.0,0.0,0.0,0.0,0.0,0.0,0.0,0.0,0.0,0.0,0.0,0.0,0.0,0.0,0.0,0.0,0.0,0.0,0.0,0.0,0.0,0.0,0.0,0.0,0.0,0.0,0.0,0.0,0.0,0.0,0.0,0.0,0.0,0.0,0.0,0.0,0.0,0.0,0.0,0.0,0.0,0.0,0.0,0.0,0.0,0.0,0.0,0.0,0.0,0.0,0.0,0.0,0.0,0.0,0.0,0.0,0.0,0.0,0.0,0.0,0.0,0.0,0.0,0.0,0.0,0.0,0.0,0.0,0.0,0.0,0.0,0.0,0.0,0.0,0.0,0.0,0.0,0.0,0.0,0.0,0.0,0.0,0.0,0.0,0.0,0.0,-0.5005,-0.523,-0.5395,-0.5395,-0.5395,-0.5395,-0.5395,-0.5395,-0.5618,-0.6167,0.0,0.0,0.0,0.0,0.0,0.0,0.0,0.0,0.0,0.0,0.0,0.0,0.0,0.0,0.0,0.0,0.0,0.0,0.0,0.0,0.0,0.0,0.0,0.0,0.0,0.0,0.0,0.0,0.0,0.0,0.0,0.0,0.0,0.0,0.0,0.0,0.0,0.0,0.0,0.0,0.0,0.0,0.0,0.0,0.0,0.0,0.0,0.0,0.0,0.0,0.0,0.0,0.0,0.0,0.0,0.0,0.0,0.0,0.0,0.0,0.0,0.0,0.0,0.0,0.0,0.0,0.0,0.0,0.0,0.0,0.0,0.0,0.0,0.0,0.0,0.0,0.0,0.0,0.0,0.0,0.0,0.0,0.0,0.0,0.0,0.0,0.0,0.0,0.0,0.0,0.0,0.0,0.0,0.0,0.0,0.0,0.0,0.0,0.0,0.0,0.0,0.0,-0.4887,-0.5179,-0.5395,-0.5395,-0.5395,-0.5395,-0.5395,-0.5395,-0.5618,-0.6167,0.0,0.0,0.0,0.0,0.0,0.0,0.0,0.0,0.0,0.0,0.0,0.0,0.0,0.0,0.0,0.0,0.0,0.0,0.0,0.0,0.0,0.0,0.0,0.0,0.0,0.0,0.0,0.0,0.0,0.0,0.0,0.0,0.0,0.0,0.0,0.0,0.0,0.0,0.0,0.0,0.0,0.0,0.0,0.0,0.0,0.0,0.0,0.0,0.0,0.0,0.0,0.0,0.0,0.0,0.0,0.0,0.0,0.0,0.0,0.0,-0.1087,0.0,0.0,0.0,0.0,0.0,0.0,0.0,0.0,0.0,0.0,0.0,0.0,0.0,0.0,0.0,0.0,0.0,0.0,0.0,0.0,0.0,0.0,0.0,0.0,0.0,0.0,0.0,0.0,0.0,0.0,0.0,0.0,0.0,0.0,0.0,0.0,0.0,0.0,0.0,0.0,0.0,-0.4887,-0.5179,-0.5395,-0.5395,-0.5395,-0.5395,-0.5395,-0.5395,-0.5618,-0.6167,-0.6826,0.0,0.0,0.0,0.0,0.0,0.0,0.0,0.0,0.0,0.0,0.0,0.0,0.0,0.0,0.0,0.0,0.0,0.0,0.0,0.0,0.0,0.0,0.0,0.0,0.0,0.0,0.0,0.0,0.0,0.0,0.0,0.0,0.0,0.0,0.0,0.0,0.0,0.0,0.0,0.0,0.0,0.0,0.0,0.0,0.0,0.0,0.0,0.0,0.0,0.0,0.0,0.0,0.0,0.0,0.0,0.0,0.0,0.0,0.0,0.0,-0.1529,0.0,0.0,0.0,0.0,0.0,0.0,0.0,0.0,0.0,0.0,0.0,0.0,0.0,0.0,0.0,0.0,0.0,0.0,0.0,0.0,0.0,0.0,0.0,0.0,0.0,0.0,0.0,0.0,0.0,0.0,0.0,0.0,0.0,0.0,0.0,0.0,0.0,0.0,0.0,0.0,-0.4982,-0.522,-0.5395,-0.5395,-0.5395,-0.5395,-0.5395,-0.5395,-0.5683,-0.6386,-0.699,0.0,0.0,0.0,0.0,0.0,0.0,0.0,0.0,0.0,0.0,0.0,0.0,0.0,0.0,0.0,0.0,0.0,0.0,0.0,0.0,0.0,0.0,0.0,0.0,0.0,0.0,0.0,0.0,0.0,0.0,0.0,0.0,0.0,0.0,0.0,0.0,0.0,0.0,0.0,0.0,0.0,0.0,0.0,0.0,0.0,0.0,0.0,0.0,0.0,0.0,0.0,0.0,0.0,-0.0337,-0.037,-0.104,-0.0337,0.0,-0.0034,-0.0772,-0.1073,-0.1207,0.0,0.0,0.0,0.0,0.0,0.0,0.0,0.0,0.0,0.0,0.0,0.0,0.0,0.0,0.0,0.0,0.0,0.0,0.0,0.0,0.0,0.0,0.0,0.0,0.0,-0.412,-0.4372,0.0,0.0,0.0,0.0,0.0,0.0,0.0,0.0,0.0,0.0,0.0,0.0,-0.5083,-0.5267,-0.5395,-0.5395,-0.5395,-0.5395,-0.5395,-0.5395,-0.5785,-0.6654,-0.7212,-0.7923,0.0,0.0,0.0,0.0,0.0,0.0,0.0,0.0,0.0,0.0,0.0,0.0,0.0,0.0,0.0,0.0,0.0,0.0,0.0,0.0,0.0,0.0,0.0,0.0,0.0,0.0,0.0,0.0,0.0,0.0,0.0,0.0,0.1141,0.1248,0.0,0.0,0.0,0.0,0.0,0.0,0.0,0.0,0.0,0.0,0.0,0.0,0.0,-0.077,0.0,-0.0753,-0.0823,-0.0168,-0.0067,-0.0067,-0.0168,-0.0067,0.0,0.0,-0.0135,0.0,-0.0236,-0.1241,0.0,0.0,0.0,0.0,0.0,0.0,0.0,0.0,0.0,0.0,0.0,0.0,0.0,0.0,0.0,0.0,0.0,0.0,0.0,0.0,0.0,0.0,-0.3964,-0.401,-0.4619,-0.5249,0.0,-0.5332,-0.5292,-0.512,-0.5081,0.0,0.0,0.0,0.0,0.0,0.0,0.0,-0.5096,-0.5267,-0.5395,-0.5395,-0.5395,-0.5395,-0.5395,-0.5395,-0.5785,-0.6654,-0.7212,-0.8033,-0.9177,-0.9547,0.0,0.0,0.0,0.0,0.0,0.0,0.0,0.0,0.0,0.0,0.0,0.0,0.0,0.0,0.0,0.0,0.0,0.0,0.0,0.0,0.0,0.0,0.0,0.0,0.0,0.0,0.0,0.0,0.0,0.0731,0.0658,0.1141,0.0478,0.0,0.0,0.0,0.0,0.0,0.0,0.0,0.0,0.0,0.0,0.0,-0.0385,-0.0387,0.0,-0.0386,-0.0383,0.0,0.0,0.0,0.0,0.0,0.0,0.0,0.0,0.0,-0.0067,-0.094,-0.1541,-0.2009,0.0,0.0,0.0,0.0,0.0,-0.3754,-0.2882,-0.2245,0.0,0.0,0.0,0.0,0.0,0.0,0.0,0.0,0.0,0.0,0.0,0.0,0.0,-0.4788,-0.509,-0.5395,-0.5395,-0.5395,-0.5362,0.0,-0.5259,-0.5219,-0.5057,0.0,0.0,0.0,0.0,-0.513,-0.525,-0.5351,-0.5395,-0.5395,-0.5395,-0.5395,-0.5395,-0.5848,-0.6498,-0.7372,-0.7641,-0.8467,-0.9977,-0.9681,-0.9665,0.0,0.0,0.0,0.0,0.0,0.0,0.0,0.0,0.0,0.0,0.0,0.0,0.0,0.0,0.0,0.0,0.0,0.0,0.0,0.0,0.0,0.0,0.0,0.0,0.0,0.0,0.0,0.0,0.0659,0.0504,0.107,0.0468,0.0,0.0,0.0,0.0,0.0,0.0,0.0,0.0,0.0,0.0,0.0,0.0,0.0,0.0,0.0,0.0,0.0,0.0,0.0,0.0,0.0,0.0,0.0,0.0,0.0,-0.0034,-0.0706,-0.1106,-0.1374,-0.2076,-0.2477,-0.2678,-0.2444,-0.241,-0.2377,-0.161,-0.1343,-0.1336,-0.1327,0.0,-0.2557,-0.4099,0.0,0.0,0.0,0.0,-0.5395,-0.5395,-0.5395,-0.5395,-0.5395,-0.5395,-0.5395,-0.5395,-0.5395,-0.5395,0.0,-0.5395,-0.5359,-0.519,0.0,0.0,0.0,0.0,-0.5233,-0.5382,-0.5395,-0.5395,-0.5395,-0.5395,-0.5395,-0.5395,-0.6203,-0.7079,-0.7962,-0.8221,-0.9,-1.053,-0.9977,-0.9819,-1.0234,0.0,0.0,0.0,0.0,0.0,0.0,0.0,0.0,0.0,0.0,0.0,0.0,0.0,0.0,0.0,0.0,0.0,0.0,0.0,0.0,0.0,0.0,0.0,0.0,0.0,0.0,0.0,0.0,0.0,0.1267,0.0516,0.0,0.0,0.0,0.0,0.0,0.0,0.0,0.0,0.0,0.0,0.0,0.0,0.0,0.0,0.0,0.0,0.0,0.0,0.0,0.0,0.0,0.0,0.0,0.0,0.0,0.0,-0.0034,-0.0538,-0.1307,-0.134,-0.1909,-0.2577,-0.1708,-0.1574,-0.1677,-0.0505,-0.0101,-0.0101,-0.01,-0.1633,-0.3531,-0.363,-0.4469,0.0,0.0,-0.5388,-0.5395,-0.5395,-0.5395,-0.5395,-0.5395,-0.5395,-0.5395,-0.5395,-0.5395,-0.5395,0.0,-0.5395,-0.5395,-0.5395,0.0,-0.5392,-0.5385,-0.5382,-0.5385,-0.5392,-0.5395,-0.5395,-0.5395,-0.5395,-0.5395,-0.5395,-0.6203,-0.7079,-0.7962,-0.878,-0.9658,-1.0561,-1.0561,-1.0555,-1.0566,-1.0274,0.0,0.0,0.0,0.0,0.0,0.0,0.0,0.0,0.0,0.0,0.0,0.0,0.0,0.0,0.0,0.0,0.0,0.0,0.0,0.0,0.0,0.0,0.0,0.0,0.0,0.0,0.0,0.0,0.1375,0.1147,0.0,0.0069,0.0,0.0,0.0,0.0,0.0,0.0,0.0,0.0,0.0,0.0,0.0,0.0,0.0,0.0,0.0,0.0,0.0,0.0,0.0,0.0,0.0,0.0,0.0,0.0,0.0,-0.0168,-0.0471,-0.0471,-0.0672,-0.0908,-0.0572,-0.0538,-0.0572,-0.0135,0.0,-0.0371,-0.2718,-0.4059,-0.4761,-0.4755,-0.5057,-0.5395,-0.5395,-0.5395,-0.5395,-0.5395,-0.5395,-0.5395,-0.5395,-0.5395,-0.5395,-0.5395,-0.5395,-0.5395,-0.5395,-0.5395,-0.5395,-0.5395,-0.5395,-0.5395,-0.5395,-0.5395,-0.5395,-0.5395,-0.5395,-0.5395,-0.5395,-0.5395,-0.562,-0.6203,-0.7051,-0.7897,-0.878,-0.9139,-0.969,-1.0561,-1.0047,-1.0047,-1.0593,-1.0486,-1.0261,0.0,0.0,0.0,0.0,0.0,0.0,0.0,0.0,0.0,0.0,0.0,0.0,0.0,0.0,0.0,0.0,0.0,0.0,0.0,0.0,0.0,0.0,0.0,0.0,0.0,0.0,0.2444,0.1412,0.1434,0.1087,0.0104,0.0,0.0,0.0,0.0,0.0,0.0,0.0,0.0,0.0,0.0,0.0,0.0,0.0,0.0,0.0,0.0,0.0,0.0,0.0,0.0,0.0,0.0,0.0,0.0,0.0,0.0,0.0,0.0,0.0,0.0,0.0,0.0,0.0,0.0,0.0,-0.0504,-0.3527,-0.4498,-0.4592,-0.5226,-0.5395,-0.5395,-0.5395,-0.5395,-0.5395,-0.5395,-0.5395,-0.5395,-0.5395,-0.5395,-0.5395,-0.5395,-0.5395,-0.5395,-0.5395,-0.5395,-0.5395,-0.5395,-0.5395,-0.5395,-0.5395,-0.5395,-0.5395,-0.5395,-0.5395,-0.5395,-0.5395,-0.5653,-0.6075,-0.6654,-0.7762,-0.8678,-0.9274,-0.9562,-1.0015,-1.0593,-1.0047,-1.0009,-1.0593,-1.0492,-1.0314,-1.0083,0.0,0.0,0.0,0.0,0.0,0.0,0.0,0.0,0.0,0.0,0.0,0.0,0.0,0.0,0.0,0.0,0.0,0.0,0.0,0.0,0.0,0.0,0.0,0.2981,0.2796,0.2447,0.1509,0.1376,0.1004,0.0135,0.0,0.0,0.0,0.0,0.0,0.0,0.0,0.0,0.0,0.0,0.0,0.0,0.0,0.0,0.0,0.0,0.0,0.0,0.0,0.0,0.0,0.0,0.0,0.0,0.0,0.0,0.0,0.0,0.0,0.0,0.0,0.0,0.0,0.0,0.0,-0.0301,-0.2107,-0.2741,-0.3103,-0.4851,-0.5395,-0.5395,-0.5395,-0.5395,-0.5395,-0.5395,-0.5395,-0.5395,-0.5395,-0.5395,-0.5395,-0.5395,-0.5395,-0.5395,-0.5395,-0.5395,-0.5395,-0.5395,-0.5395,-0.5395,-0.5395,-0.5395,0.0,-0.5395,-0.5395,-0.5395,-0.5428,-0.6203,-0.6719,-0.6785,-0.8318,-0.9306,-0.9338,-1.0142,-1.0593,-1.0593,-1.0593,-1.0593,-1.0593,-1.0274,-1.0134,-1.0134,0.0,0.0,0.0,0.0,0.0,0.0,0.0,0.0,0.0,0.0,0.0,0.0,0.0,0.0,0.0,0.0,0.0,0.0,0.0,0.0,0.0,0.5019,0.4938,0.4486,0.4652,0.4417,0.338,0.2791,0.2062,0.104,0.0388,0.0,0.0,0.0,0.0,0.0,0.0,0.0,0.0,0.0,0.0,0.0,0.0,0.0,0.0,0.0,0.0,0.0,0.0,0.0,0.0,0.0,0.0,0.0,0.0,0.0,0.0,0.0,0.0,0.0,0.0,0.0,0.0,0.0,0.0,-0.0303,-0.211,-0.3587,-0.4737,-0.5266,-0.5395,-0.5395,-0.5395,-0.5395,-0.5395,-0.5395,-0.5395,-0.5395,-0.5395,-0.5395,-0.5395,-0.5395,-0.5395,-0.5395,-0.5395,-0.5395,-0.5395,-0.5395,-0.5395,-0.5395,-0.5395,-0.5395,0.0,-0.5395,-0.5395,-0.5657,-0.6268,-0.6556,-0.7209,-0.8484,-0.9011,-0.9562,-1.0206,-1.0466,-1.0593,-1.0593,-1.0593,-1.0593,-1.0593,-1.0512,-1.0472,0.0,0.0,0.0,0.0,0.0,0.0,0.0,0.0,0.0,0.0,0.0,0.0,0.0,0.0,0.0,0.0,0.0,0.0,0.0,0.0,0.0,0.0,0.5186,0.5226,0.5226,0.5382,0.5148,0.4115,0.3303,0.2409,0.1409,0.0524,0.0,0.0,0.0,0.0,0.0,0.0,0.0,0.0,0.0,0.0,0.0,0.0,0.0,0.0,0.0,0.0,0.0,0.0,0.0,0.0,0.0,0.0,0.0,0.0,0.0,0.0,0.0,0.0,0.0,0.0,0.0,0.0,0.0,0.0,-0.0236,-0.1642,-0.3253,-0.474,-0.5236,-0.5399,-0.5395,-0.5395,-0.5395,-0.5395,-0.5395,-0.5395,-0.5395,-0.5395,-0.5395,-0.5395,-0.5395,-0.5395,-0.5395,-0.5395,0.0,0.0,-0.5395,-0.5395,-0.5395,-0.5395,-0.5395,-0.5395,0.0,-0.5395,-0.5719,-0.6621,-0.7013,-0.78,-0.9172,-0.9626,0.0,0.0,0.0,-1.0593,-1.0593,-1.0593,0.0,0.0,0.0,0.0,0.0,0.0,0.0,0.0,-0.8867,-0.8726,0.0,0.0,0.0,0.0,0.0,0.0,0.0,0.0,0.0,0.0,0.0,0.0,0.0,0.0,0.0,0.0,0.5274,0.5395,0.5395,0.5395,0.509,0.4251,0.338,0.2477,0.1541,0.0672,0.0101,0.0,0.0,0.0,0.0,0.0,0.0,0.0,0.0,0.0,0.0,0.0,0.0,0.0,0.0,0.0,0.0,0.0,0.0,0.0,0.0,0.0,0.0,0.0,0.0,0.0,0.0,0.0,0.0,0.0,0.0,0.0,0.0,0.0,0.0,-0.1006,-0.2312,-0.3723,-0.4903,-0.5302,-0.5395,-0.5395,-0.5395,-0.5395,-0.5395,-0.5395,-0.5395,-0.5395,-0.5395,-0.5395,-0.5395,-0.5395,-0.5395,-0.5395,-0.5395,-0.5395,-0.5395,-0.5395,-0.5395,-0.5395,-0.5395,0.0,-0.5524,-0.5557,-0.5914,-0.6883,0.0,0.0,-0.9364,-1.0174,-1.0593,-1.0593,-1.0593,-1.0593,-1.0593,-1.0593,-1.0593,-1.0593,-1.0593,-1.0206,-0.9434,-1.0484,-0.965,-0.7108,-0.8904,-0.8801,0.0,0.0,0.0,0.0,0.0,0.0,0.0,0.0,0.0,0.0,0.0,0.0,0.0,0.0,0.0,0.5327,0.5375,0.5395,0.5395,0.5395,0.5326,0.516,0.4317,0.3413,0.2511,0.1608,0.0772,0.0067,0.0,0.0,0.0,0.0,0.0,0.0,0.0,0.0,0.0,0.0,0.0,0.0,0.0,0.0,0.0,0.0,0.0,0.0,0.0,0.0,0.0,0.0,0.0,0.0,0.0,0.0,0.0,0.0,0.0,0.0,0.0,0.0,-0.0135,-0.1006,-0.2009,-0.3047,-0.3984,-0.4788,0.0,-0.5395,-0.5395,-0.5395,-0.5395,-0.5395,-0.5395,-0.5395,-0.5395,-0.5395,-0.5395,-0.5395,-0.5395,-0.5395,-0.5395,-0.5395,-0.5395,-0.5395,-0.5395,-0.5395,-0.5395,-0.5653,-0.6367,-0.6461,-0.7046,-0.8619,-0.8941,-0.9396,-1.0269,-1.0498,-1.0593,-1.0593,-1.0593,-1.0593,-1.0593,-1.0593,-1.0593,-1.0593,-1.0593,-1.053,-1.0333,-1.0783,-1.0013,-0.8135,-0.8634,-0.7924,0.0,0.0,0.0,0.0,0.0,0.0,0.0,0.0,0.0,0.0,0.0,0.6845,0.6483,0.0,0.6585,0.6682,0.6334,0.6042,0.6042,0.5686,0.5395,0.5395,0.4586,0.3813,0.338,0.2108,0.1106,0.0672,0.0247,0.0,0.0,0.0,0.0,0.0,0.0,0.0,0.0,0.0,0.0,0.0,0.0,0.0,0.0,0.0,0.0,0.0,0.0,0.0,0.0,0.0,0.0,0.0,0.0,0.0,0.0,0.0,0.0,0.0,0.0,0.0,-0.0067,-0.0504,-0.1575,-0.2778,-0.3211,-0.4317,-0.5395,-0.5395,-0.5395,-0.5395,-0.5395,-0.5395,-0.5395,-0.5395,-0.5395,-0.5395,-0.5395,-0.5395,-0.5395,-0.5395,-0.5395,-0.5395,-0.5395,-0.5395,-0.5395,-0.5395,-0.5395,-0.5719,-0.6588,-0.6687,-0.7372,-0.9107,-0.9306,-0.9658,-1.053,-1.0593,-1.0593,-1.0593,-1.0593,-1.0593,-1.0593,-1.0593,-1.0593,-1.0593,-1.0593,-1.0168,-0.9288,-1.0593,-0.9788,-0.7145,-0.8387,-0.7954,0.0,0.0,0.0,0.0,0.0,0.0,0.0,0.8094,0.805,0.7876,0.7936,0.7965,0.7777,0.7899,0.7994,0.7994,0.7405,0.6883,0.6719,0.6108,0.5591,0.5428,0.4722,0.4184,0.4015,0.2678,0.1675,0.134,0.0635,0.0182,0.0,0.0,0.0,0.0,0.0,0.0,0.0,0.0,0.0,0.0,0.0,0.0,0.0,0.0,0.0,0.0,0.0,0.0,0.0,0.0,0.0,0.0,0.0,0.0,0.0,0.0,0.0,0.0,0.0,0.0,0.0,0.0,-0.1108,-0.2477,-0.2644,-0.3849,-0.516,-0.5359,-0.5395,-0.5395,-0.5395,-0.5395,-0.5395,-0.5395,-0.5395,-0.5395,-0.5395,-0.5395,-0.5395,-0.5395,-0.5395,-0.5395,-0.5395,-0.5395,-0.5395,-0.5395,-0.5557,-0.598,-0.685,-0.7111,-0.7795,-0.9396,-0.9562,-0.9849,-1.053,-1.0593,-1.0593,-1.0593,-1.0593,-1.0593,-1.0593,-1.0593,-1.0593,-1.0593,-1.0593,-0.9907,-0.8511,-1.0353,-0.9645,-0.6655,-0.8332,-0.8127,1.0337,1.0472,1.0092,0.8947,0.913,0.9568,0.0,0.9471,0.9395,0.9143,0.9113,0.8901,0.8115,0.7974,0.7994,0.7994,0.7929,0.7567,0.6817,0.6621,0.6268,0.5491,0.5296,0.4921,0.4082,0.3813,0.3045,0.1407,0.1199,0.08,0.0036,0.0,0.0,0.0,0.0,0.0,0.0,0.0,0.0,0.0,0.0,0.0,0.0,0.0,0.0,0.0,0.0,0.0,0.0,0.0,0.0,0.0,0.0,0.0,0.0,0.0,0.0,0.0,0.0,0.0,0.0,0.0,-0.0672,-0.1608,-0.2444,-0.338,-0.4317,-0.516,-0.5395,-0.5395,-0.5395,-0.5395,-0.5395,-0.5395,-0.5395,-0.5395,-0.5395,-0.5395,-0.5395,-0.5395,-0.5395,-0.5395,-0.5395,-0.5395,-0.5395,-0.5395,-0.6075,-0.6883,-0.773,-0.8517,-0.9364,-1.0333,-1.046,-1.0491,-1.0593,-1.0593,-1.0593,-1.0593,-1.0593,-1.0593,-1.0593,-1.0593,-1.0593,-1.0593,-1.0593,-1.0498,-1.0301,-1.0558,-1.0246,-0.9423,-0.8805,-0.7709,0.9735,1.0186,1.0335,0.9855,0.9773,0.9836,1.0006,0.9729,0.9477,0.9715,0.9768,0.9718,0.9551,0.9518,0.9518,0.0,0.9102,0.8613,0.8253,0.734,0.6556,0.6203,0.5719,0.5259,0.4855,0.4317,0.368,0.2945,0.191,0.1137,0.0782,0.0262,0.0,0.0,0.0,0.0,0.0,0.0,0.0,0.0,0.0,0.0,0.0,0.0,0.0,0.0,0.0,0.0,0.0,0.0,0.0,0.0,0.0,0.0,0.0,0.0,0.0,0.0,0.0,0.0,0.0,0.0,-0.0605,-0.1474,-0.241,-0.3311,-0.4184,-0.5126,-0.5395,-0.5395,-0.5395,-0.5395,-0.5395,-0.5395,-0.5395,-0.5395,-0.5395,-0.5395,-0.5395,-0.5395,-0.5815,-0.6009,-0.5491,-0.5815,-0.6174,-0.6174,-0.6461,-0.7209,-0.8581,-0.9075,-0.9626,-1.0498,-1.0593,-1.0593,-1.0593,-1.0593,-1.0593,-1.0593,-1.0593,-1.0593,-1.0593,-1.0593,-1.0593,-1.0593,-1.0593,-1.0333,-0.9849,-1.0012,-0.9663,-0.8883,-0.8198,-0.753,0.9896,1.0386,1.0702,1.0554,1.0424,1.0329,1.0313,0.9885,0.9603,0.9916,1.006,1.018,1.0432,1.0539,1.0593,1.0593,1.0079,0.9562,0.9338,0.7994,0.6981,0.6719,0.5947,0.5412,0.5453,0.4809,0.4284,0.4015,0.2576,0.1571,0.1327,0.0475,0.0,0.0,0.0,0.0,0.0,0.0,0.0,0.0,0.0,0.0,0.0,0.0,0.0,0.0,0.0,0.0,0.0,0.0,0.0,0.0,0.0,0.0,0.0,0.0,0.0,0.0,0.0,0.0,0.0,0.0,-0.0437,-0.1174,-0.2344,-0.3145,-0.3882,-0.5057,-0.5395,-0.5395,-0.5395,-0.5395,-0.5395,-0.5395,-0.5395,-0.5395,-0.5395,-0.5395,-0.5395,-0.5395,-0.6108,-0.6494,-0.5881,-0.6494,-0.7144,-0.7372,-0.7405,-0.7864,-0.9139,-0.9498,-0.9888,-1.053,-1.0593,-1.0593,-1.0593,-1.0593,-1.0593,-1.0593,-1.0593,-1.0593,-1.0593,-1.0593,-1.0593,-1.0593,-1.0593,-1.0301,-0.9658,-0.9848,-0.9612,-0.8946,-0.8118,-0.7728,1.1768,1.1987,1.1907,1.1014,1.1258,1.1487,1.052,1.0287,1.0164,0.9806,0.992,1.009,1.0097,1.0399,1.0593,1.0593,1.0593,1.0269,0.9434,0.8517,0.7632,0.6785,0.5947,0.5453,0.5569,0.545,0.499,0.4082,0.3158,0.2268,0.1362,0.0467,0.0,0.0,0.0,0.0,0.0,0.0,0.0,0.0,0.0,0.0,0.0,0.0,0.0,0.0,0.0,0.0,0.0,0.0,0.0,0.0,0.0,0.0,0.0,0.0,0.0,0.0,0.0,0.0,0.0,0.0,-0.0034,-0.037,-0.2144,-0.2711,-0.3111,-0.4891,-0.5395,-0.5395,-0.5395,-0.5395,-0.5395,-0.5395,-0.5395,-0.5395,-0.5395,-0.5395,-0.5395,-0.5395,-0.6108,-0.6687,-0.6654,-0.7372,-0.8253,-0.9107,-0.921,-0.9236,-0.9306,-1.004,-1.0561,-1.0593,-1.0593,-1.0593,-1.0593,-1.0593,-1.0593,-1.0593,-1.0593,-1.0593,-1.0593,-1.0593,-1.0593,-1.0593,-1.0593,-1.0593,-1.0561,-1.0568,-1.0683,-1.0863,-0.918,-0.8527,1.2139,1.2058,1.1854,1.1814,1.1398,1.0866,1.0351,0.9885,0.9543,0.9397,0.9437,0.9624,1.0047,1.02,1.0327,1.0559,1.0593,1.0498,1.0206,0.8903,0.7919,0.7731,0.6417,0.5569,0.5718,0.5539,0.0,0.5089,0.4128,0.3427,0.3121,0.1674,0.085,0.085,0.0289,0.0,0.0,0.0,0.0,0.0,0.0,0.0,0.0,0.0,0.0,0.0,0.0,0.0,0.0,0.0,0.0,0.0,0.0,0.0,0.0,0.0,0.0,0.0,0.0,0.0,0.0,0.0,0.0,-0.0337,-0.2144,-0.2711,-0.3078,-0.4891,-0.5395,-0.5395,-0.5395,-0.5395,-0.5395,-0.5395,-0.5395,-0.5395,-0.5395,-0.5395,-0.5557,-0.6137,-0.6948,-0.7567,-0.7567,-0.7795,-0.8091,-0.8388,-0.9422,-1.0174,-1.0174,-1.0434,-1.0593,-1.0593,-1.0593,-1.0593,-1.0593,-1.0593,-1.0593,-1.0593,-1.0593,-1.0593,-1.0593,-1.0593,-1.0593,-1.0593,-1.0593,-1.0593,-1.0593,-0.9454,-0.9206,-0.9831,-0.7593,-0.696,1.2491,1.2315,1.1998,1.2236,1.1762,1.1033,1.0345,0.9858,0.946,0.9112,0.9138,0.9357,0.9873,1.0047,1.0214,1.0546,1.0593,1.0593,1.0593,0.9358,0.8407,0.8208,0.6945,0.601,0.59,0.5661,0.0,0.5657,0.4735,0.4151,0.4079,0.2661,0.1703,0.1308,0.0771,0.032,0.0,0.0,0.0,0.0,0.0,0.0,0.0,0.0,0.0,0.0,0.0,0.0,0.0,0.0,0.0,0.0,0.0,0.0,0.0,0.0,0.0,0.0,0.0,0.0,0.0,0.0,0.0,-0.0269,-0.1743,-0.2444,-0.3011,-0.4486,-0.5126,-0.5395,-0.5395,-0.5395,-0.5395,-0.5395,-0.5395,-0.5395,-0.5395,-0.5395,-0.5653,-0.6523,-0.7405,-0.8091,-0.842,-0.871,-0.8839,-0.8517,-0.9684,-1.0593,-1.0593,-1.0593,-1.0593,-1.0593,-1.0593,-1.0593,-1.0593,-1.0593,-1.0593,-1.0593,-1.0593,-1.0593,-1.0593,-1.0593,-1.0593,-1.0593,-1.0593,-1.0593,-1.0593,-0.9486,-0.9069,-0.9247,-0.7395,-0.6702,1.2866,1.2754,1.2381,1.2288,1.2246,1.1867,1.0516,1.0188,0.9912,0.9044,0.9025,0.9277,0.9606,0.99,1.0194,1.0519,1.0579,1.0593,1.0593,0.9862,0.9054,0.8358,0.7539,0.6764,0.6159,0.5981,0.0,0.5823,0.0,0.4479,0.4298,0.3455,0.2481,0.1409,0.134,0.0884,0.0,0.0,0.0,0.0,0.0,0.0,0.0,0.0,0.0,0.0,0.0,0.0,0.0,0.0,0.0,0.0,0.0,0.0,0.0,0.0,0.0,0.0,0.0,0.0,0.0,0.0,0.0,-0.0168,-0.104,-0.1941,-0.2878,-0.3747,-0.4686,-0.5395,-0.5395,-0.5395,-0.5395,-0.5395,-0.5395,-0.5395,-0.5395,-0.5395,-0.5686,-0.6593,-0.7502,-0.8388,-0.9172,-1.0015,-1.0301,-0.9434,-1.004,-1.0593,-1.0593,-1.0593,-1.0593,-1.0593,-1.0593,-1.0593,-1.0593,-1.0593,-1.0593,-1.0593,-1.0593,-1.0593,-1.0593,-1.0593,-1.0593,-1.0593,-1.0593,-1.0593,-1.0593,-1.0523,-1.004,-0.921,-0.8417,-0.7609,1.3014,1.2824,1.2394,1.2016,1.1628,1.1196,1.0642,1.0065,0.966,0.9574,0.9195,0.8978,0.9271,0.9593,0.9886,1.018,1.0445,1.0593,1.0593,1.0024,0.9577,0.9479,0.8932,0.8212,0.7424,0.7291,0.0,0.0,0.5745,0.5412,0.5246,0.4362,0.341,0.2379,0.1675,0.0876,0.0,0.0,0.0,0.0,0.0,0.0,0.0,0.0,0.0,0.0,0.0,0.0,0.0,0.0,0.0,0.0,0.0,0.0,0.0,0.0,0.0,0.0,0.0,0.0,0.0,0.0,0.0,-0.0168,-0.104,-0.1941,-0.2878,-0.3747,-0.4686,-0.5395,-0.5395,-0.5395,-0.5395,-0.5395,-0.5395,-0.5395,-0.5395,-0.5395,-0.5851,-0.7377,-0.8898,-0.9811,-0.9364,-1.0015,-1.0301,-0.9434,-1.004,-1.0593,-1.0593,-1.0593,-1.0593,-1.0593,-1.0593,-1.0593,-1.0593,-1.0593,-1.0593,-1.0593,-1.0593,-1.0593,-1.0593,-1.0593,-1.0593,-1.0593,-1.0593,-1.0593,-1.0593,-0.9288,-0.8544,-0.8291,-0.6812,-0.6049,1.3064,1.2873,1.2401,1.192,1.1394,1.0832,1.0242,0.9808,0.9549,0.9756,0.9263,0.9077,0.9957,0.9897,0.989,1.0444,1.0578,1.0633,1.0767,1.049,1.023,1.0143,0.9848,0.9191,0.7914,0.7783,0.7333,0.0,0.6064,0.5908,0.5694,0.5182,0.4218,0.2748,0.2177,0.1308,0.0,0.0,0.0,0.0,0.0,0.0,0.0,0.0,0.0,0.0,0.0,0.0,0.0,0.0,0.0,0.0,0.0,0.0,0.0,0.0,0.0,0.0,0.0,0.0,0.0,0.0,0.0,-0.0101,-0.0572,-0.1642,-0.2811,-0.3278,-0.4384,-0.5395,-0.5395,-0.5395,-0.5395,-0.5395,-0.5395,-0.5395,-0.5395,-0.5395,-0.5918,-0.767,-0.9102,-0.9881,-0.9402,-1.0015,-1.0301,-0.9434,-1.004,-1.0593,-1.0593,-1.0593,-1.0593,-1.0593,-1.0593,-1.0593,-1.0593,-1.0593,-1.0593,-1.0593,-1.0593,-1.0593,-1.0593,-1.0593,-1.0593,-1.0593,-1.0593,-1.0593,-1.0593,-0.923,-0.8382,-0.7962,-0.6597,-0.58,1.2878,1.272,1.2282,1.1811,1.1325,1.0726,0.9843,0.9552,0.9518,0.9763,0.9263,0.9256,1.0742,1.0304,0.9978,1.0818,1.0756,1.0693,1.0955,1.1022,1.0939,1.0641,1.0617,0.9994,0.8367,0.8062,0.7488,0.6295,0.6208,0.6112,0.5789,0.5772,0.483,0.275,0.2577,0.171,0.0,0.0,0.0,0.0,0.0,0.0,0.0,0.0,0.0,0.0,0.0,0.0,0.0,0.0,0.0,0.0,0.0,0.0,0.0,0.0,0.0,0.0,0.0,0.0,0.0,0.0,0.0,0.0,0.0,-0.1276,-0.2711,-0.2711,-0.4015,-0.5395,-0.5395,-0.5395,-0.5395,-0.5395,-0.5395,-0.5395,-0.5395,-0.5491,-0.6046,-0.767,-0.8716,-0.9338,-0.9466,-1.011,-1.0333,-0.9594,-1.011,-1.0593,-1.0593,-1.0593,-1.0593,-1.0593,-1.0593,-1.0593,-1.0593,-1.0593,-1.0593,-1.0593,-1.0593,-1.0593,-1.0593,-1.0593,-1.0593,-1.0593,-1.0593,-1.053,-1.0428,-0.9556,-0.8678,-0.7795,-0.6915,-0.6108,1.1902,1.1975,1.1811,1.1263,1.0931,1.0682,1.0454,0.9816,0.935,0.9739,0.9263,0.8944,0.948,0.9649,0.9831,1.0211,1.0454,1.0693,1.0955,1.1196,1.1408,1.1611,1.186,1.1526,1.0404,0.9421,0.0,0.0,0.6408,0.5806,0.5637,0.5627,0.4743,0.2748,0.1941,0.104,0.0,0.0,0.0,0.0,0.0,0.0,0.0,0.0,0.0,0.0,0.0,0.0,0.0,0.0,0.0,0.0,0.0,0.0,0.0,0.0,0.0,0.0,0.0,0.0,0.0,0.0,0.0,0.0,0.0,-0.1276,-0.2711,-0.2711,-0.4015,-0.5395,-0.5395,-0.5395,-0.5395,-0.5395,-0.5395,-0.5395,-0.5395,-0.598,-0.6789,-0.78,-0.8716,-0.953,-1.0238,-1.0498,-1.0561,-1.0396,-1.0498,-1.0593,-1.0593,-1.0593,-1.0593,-1.0593,-1.0593,-1.0593,-1.0593,-1.0593,-1.0593,-1.0593,-1.0593,-1.0593,-1.0593,-1.0593,-1.0593,-1.0593,-1.0593,-1.0238,-0.953,-0.8646,-0.7762,-0.6915,-0.6042,-0.5557,1.1597,1.1608,1.1252,1.0714,1.0427,1.0167,0.9703,0.9399,0.9301,0.9721,0.9263,0.9104,1.0112,0.9974,0.989,1.0534,1.0602,1.0747,1.1156,1.1302,1.159,1.2044,1.2218,1.1885,1.0895,1.0188,0.9119,0.7532,0.6754,0.6139,0.5627,0.5061,0.4141,0.2746,0.1775,0.0873,0.0,0.0,0.0,0.0,0.0,0.0,0.0,0.0,0.0,0.0,0.0,0.0,0.0,0.0,0.0,0.0,0.0,0.0,0.0,0.0,0.0,0.0,0.0,0.0,0.0,0.0,0.0,0.0,0.0,-0.1276,-0.2711,-0.2711,-0.4015,-0.5395,-0.5395,-0.5395,-0.5395,-0.5395,-0.5395,-0.5395,-0.5395,-0.5719,-0.64,-0.7735,-0.835,-0.9037,-1.0364,-1.0593,-1.0593,-1.0593,-1.0593,-1.0593,-1.0593,-1.0593,-1.0593,-1.0593,-1.0593,-1.0593,-1.0593,-1.0593,-1.0593,-1.0593,-1.0593,-1.0593,-1.0593,-1.0593,-1.0593,-1.0593,-1.0593,-1.0396,-0.9977,-0.864,-0.7795,-0.734,-0.6013,-0.5395,1.1082,1.0989,1.0592,1.0224,0.9979,0.9629,0.8958,0.8965,0.9195,0.9511,0.9159,0.9251,1.0682,1.0271,0.9998,1.0852,1.0767,1.0794,1.1309,1.1389,1.1608,1.2231,1.2305,1.1977,1.112,1.0623,0.0,0.7689,0.6949,0.0,0.5607,0.4745,0.3882,0.3011,0.2277,0.1374,0.0303,0.0269,0.0168,0.0,0.0,0.0,0.0,0.0,0.0,0.0,0.0,0.0,0.0,0.0,0.0,0.0,0.0,0.0,0.0,0.0,0.0,0.0,0.0,0.0,0.0,0.0,0.0,0.0,0.0,-0.1108,-0.2444,-0.2644,-0.3849,-0.516,-0.5359,-0.5395,-0.5395,-0.5395,-0.5395,-0.5395,-0.5395,-0.5395,-0.5851,-0.7409,-0.7864,-0.8479,-1.004,-1.0466,-1.0593,-1.0593,-1.0593,-1.0593,-1.0593,-1.0593,-1.0593,-1.0593,-1.0593,-1.0593,-1.0593,-1.0593,-1.0593,-1.0593,-1.0593,-1.0593,-1.0593,-1.0593,-1.0593,-1.0593,-1.0593,-1.0498,-1.0333,-0.8775,-0.7897,-0.7697,-0.6112,-0.5395,0.9559,0.9667,0.968,0.987,0.9725,0.9468,0.9216,0.9003,0.885,0.8877,0.8831,0.9005,0.9704,0.9775,0.9896,1.0552,1.0636,1.0794,1.1309,1.1389,1.1608,1.2231,1.2305,1.2161,1.1823,1.079,0.961,0.8404,0.0,0.0,0.5416,0.5336,0.4855,0.3915,0.3782,0.2911,0.1207,0.1173,0.0772,0.0,0.0,0.0,0.0,0.0,0.0,0.0,0.0,0.0,0.0,0.0,0.0,0.0,0.0,0.0,0.0,0.0,0.0,0.0,0.0,0.0,0.0,0.0,0.0,0.0,0.0,-0.0672,-0.1608,-0.2444,-0.338,-0.4317,-0.5193,-0.5395,-0.5395,-0.5395,-0.5395,-0.5395,-0.5395,-0.5395,-0.5686,-0.6625,-0.747,-0.8285,-0.9268,-1.0079,-1.0593,-1.0593,-1.0593,-1.0593,-1.0593,-1.0593,-1.0593,-1.0593,-1.0593,-1.0593,-1.0593,-1.0593,-1.0593,-1.0593,-1.0593,-1.0593,-1.0593,-1.0593,-1.0593,-1.0593,-1.0593,-1.0206,-0.9434,-0.8452,-0.76,-0.6785,-0.5848,-0.5395,0.8879,0.9019,0.9003,0.895,0.8971,0.8971,0.876,0.8745,0.8804,0.8804,0.8918,0.9164,0.9606,0.9826,1.008,1.0526,1.0593,1.0734,1.1109,1.1316,1.1542,1.2027,1.2198,1.2184,1.1933,1.1283,1.0134,0.8284,0.0,0.0,0.5395,0.5395,0.4957,0.4015,0.4015,0.3145,0.1307,0.1876,0.1409,0.0,0.0538,0.0504,0.0,0.0,0.0,0.0,0.0,0.0,0.0,0.0,0.0,0.0,0.0,0.0,0.0,0.0,0.0,0.0,0.0,0.0,0.0,0.0,0.0,0.0,0.0,-0.0605,-0.1507,-0.2444,-0.3311,-0.4215,-0.516,-0.5395,-0.5395,-0.5395,-0.5395,-0.5395,-0.5395,-0.5395,-0.5653,-0.6523,-0.7405,-0.8291,-0.9139,-1.0015,-1.0593,-1.0593,-1.0593,-1.0593,-1.0593,-1.0593,-1.0593,-1.0593,-1.0593,-1.0593,-1.0593,-1.0593,-1.0593,-1.0593,-1.0593,-1.0593,-1.0593,-1.0593,-1.0593,-1.0593,-1.0593,-1.0174,-0.9306,-0.842,-0.7567,-0.6687,-0.5818,-0.5395,0.8326,0.8459,0.846,0.8416,0.8556,0.867,0.8536,0.8657,0.8831,0.8891,0.9071,0.9331,0.974,0.998,1.0214,1.0546,1.0593,1.072,1.1069,1.1296,1.1535,1.1986,1.2178,1.2184,1.1933,1.106,0.9827,0.8117,0.0,0.0,0.5395,0.5395,0.509,0.4453,0.4417,0.368,0.2108,0.2744,0.2178,0.0404,0.1006,0.0839,0.0,0.0,0.0,0.0,0.0,0.0,0.0,0.0,0.0,0.0,0.0,0.0,0.0,0.0,0.0,0.0,0.0,0.0,0.0,0.0,0.0,0.0,0.0,-0.0437,-0.1107,-0.2043,-0.3111,-0.4215,-0.516,-0.5395,-0.5395,-0.5395,-0.5395,-0.5395,-0.5395,-0.5395,-0.5587,-0.6203,-0.7209,-0.8188,-0.8812,-0.9849,-1.0593,-1.0593,-1.0593,-1.0593,-1.0593,-1.0593,-1.0593,-1.0593,-1.0593,-1.0593,-1.0593,-1.0593,-1.0593,-1.0593,-1.0593,-1.0593,-1.0593,-1.0593,-1.0593,-1.0593,-1.0593,-1.0174,-0.9306,-0.842,-0.7567,-0.6687,-0.5818,-0.5395,0.7746,0.7919,0.8027,0.8563,0.8695,0.8704,0.8794,0.8804,0.8865,0.9144,0.9211,0.9391,0.997,1.0114,1.0214,1.0546,1.0593,1.0794,1.1302,1.1389,1.1608,1.2231,1.2298,1.2184,1.1933,0.98,0.8299,0.0,0.0,0.0,0.5395,0.5395,0.5395,0.5395,0.5395,0.4921,0.3982,0.3982,0.3078,0.1273,0.1307,0.0839,0.0,0.0,0.0,0.0,0.0,0.0,0.0,0.0,0.0,0.0,0.0,0.0,0.0,0.0,0.0,0.0,0.0,0.0,0.0,0.0,0.0,0.0,0.0,0.0,-0.0202,-0.1074,-0.2609,-0.4215,-0.516,-0.5395,-0.5395,-0.5395,-0.5395,-0.5395,-0.5395,-0.5395,-0.5395,-0.5428,-0.6826,-0.7994,-0.8027,-0.9454,-1.0593,-1.0593,-1.0593,-1.0593,-1.0593,-1.0593,-1.0593,-1.0593,-1.0593,-1.0593,-1.0593,-1.0593,-1.0593,-1.0593,-1.0593,-1.0593,-1.0593,-1.0593,-1.0593,-1.0593,-1.0593,-1.0174,-0.9306,-0.842,-0.7567,-0.6687,-0.5818,-0.5395,0.7243,0.7508,0.7997,0.8397,0.8494,0.8547,0.8744,0.8938,0.9098,0.9191,0.9531,0.987,1.005,1.0281,1.0546,1.0841,1.0855,1.0989,1.1335,1.1597,1.1797,1.1984,1.204,1.2007,0.0,0.0,0.8361,0.0,0.0,0.0,0.5395,0.5395,0.5395,0.5395,0.5395,0.4954,0.4015,0.4652,0.4048,0.2277,0.2845,0.2678,0.1843,0.1843,0.0,0.0,0.0,0.0,0.0,0.0,0.0,0.0,0.0,0.0,0.0,0.0,0.0,0.0,0.0,0.0,0.0,0.0,0.0,0.0,0.0,0.0,-0.0303,-0.1843,-0.3111,-0.4215,-0.516,-0.5395,-0.5395,-0.5395,-0.5395,-0.5395,-0.5395,-0.5395,-0.5395,-0.5395,-0.6793,-0.7994,-0.7994,-0.9454,-1.0593,-1.0593,-1.0593,-1.0593,-1.0593,-1.0593,-1.0593,-1.0593,-1.0593,-1.0593,-1.0593,-1.0593,-1.0593,-1.0593,-1.0593,-1.0593,-1.0593,-1.0593,-1.0593,-1.0593,-1.0593,-0.9875,-0.842,-0.8124,-0.7246,-0.5818,-0.5524,-0.5395,0.6911,0.7331,0.7979,0.8328,0.8402,0.8476,0.8744,0.9004,0.9244,0.9357,0.9757,1.0147,1.0267,1.0466,1.0646,1.0834,1.0922,1.1096,1.1349,1.1683,1.1946,1.206,1.2067,0.0,0.0,0.9887,0.0,0.0,0.0,0.0,0.0,0.5395,0.5395,0.5395,0.5395,0.5123,0.4519,0.5123,0.4652,0.3211,0.3747,0.3547,0.2711,0.2711,0.0,0.0,0.0,0.0,0.0,0.0269,0.0202,0.0471,0.0135,0.0,0.0,0.0,0.0,0.0,0.0,0.0,0.0,0.0,0.0,0.0,0.0,0.0,-0.037,-0.2178,-0.3078,-0.3816,-0.5057,-0.5395,-0.5395,-0.5395,-0.5395,-0.5395,-0.5395,-0.5395,-0.5395,-0.5395,-0.6793,-0.7994,-0.7994,-0.9454,-1.0593,-1.0593,-1.0593,-1.0593,-1.0593,-1.0593,-1.0593,-1.0593,-1.0593,-1.0593,-1.0593,-1.0593,-1.0593,-1.0593,-1.0593,-1.0593,-1.0593,-1.0593,-1.0593,-1.0593,-1.0593,-0.9907,-0.8484,-0.7832,-0.6793,-0.5395,-0.5395,-0.5395,0.0,0.7243,0.7887,0.8255,0.8353,0.8426,0.8745,0.9038,0.0,0.9653,0.9947,1.0241,1.0566,1.0606,1.0613,1.0673,1.0894,1.1136,1.1409,1.1724,1.2033,1.2271,1.2305,0.0,1.196,1.0078,0.0,0.0,0.0,0.0,0.0,0.5395,0.5395,0.5395,0.5395,0.5395,0.5395,0.5395,0.4957,0.4115,0.4115,0.368,0.2878,0.2878,0.0,0.0,0.0,0.0,0.0,0.0807,0.0572,0.1207,0.0337,0.0,0.0,0.0,0.0,0.0,0.0,0.0,0.0,0.0,0.0,0.0,0.0,0.0,-0.037,-0.2178,-0.2711,-0.3111,-0.4921,-0.5395,-0.5395,-0.5395,-0.5395,-0.5395,-0.5395,-0.5395,-0.5395,-0.5395,-0.6761,-0.7929,-0.7994,-0.939,-1.053,-1.0593,-1.0593,-1.0593,-1.0593,-1.0593,-1.0593,-1.0593,-1.0593,-1.0593,-1.0593,-1.0593,-1.0593,-1.0593,-1.0593,-1.0593,-1.0593,-1.0593,-1.0593,-1.0593,-1.0491,-1.0009,-0.9204,-0.747,-0.6203,-0.5395,-0.5395,-0.5395,0.5641,0.0,0.7055,0.7696,0.7872,0.8078,0.0,0.9365,0.9666,0.9953,1.0254,1.0573,1.0835,1.074,1.0814,1.1484,1.143,1.1503,1.2024,1.2158,1.2225,1.2291,1.2305,1.2278,1.2204,1.0722,0.0,0.0,0.0,0.6104,0.0,0.5395,0.5395,0.5395,0.5395,0.5395,0.5395,0.5395,0.5292,0.5057,0.5057,0.4957,0.4755,0.4755,0.0,0.0,0.0,0.0,0.2611,0.1475,0.1106,0.1207,0.0337,0.0,0.0,0.0,0.0,0.0,0.0,0.0,0.0,0.0,0.0,0.0,0.0,0.0,-0.037,-0.2178,-0.2711,-0.3111,-0.4921,-0.5395,-0.5395,-0.5395,-0.5395,-0.5395,-0.5395,-0.5395,-0.5395,-0.5395,-0.6272,-0.7209,-0.7897,-0.8909,-0.9817,-1.0498,-1.0593,-1.0593,-1.0593,-1.0593,-1.0593,-1.0593,-1.0593,-1.0593,-1.0593,-1.0593,-1.0593,-1.0593,-1.0593,-1.0593,-1.0593,-1.0593,-1.0593,-1.0593,-0.9288,-0.8511,-0.8285,-0.6564,-0.5591,-0.5395,-0.5395,-0.5395,0.484,0.5885,0.6927,0.7735,0.7987,0.8273,0.9201,0.9673,0.9927,1.0087,1.0385,1.064,1.0801,1.0807,1.0948,1.1424,1.1557,1.1784,1.2238,1.2305,1.2305,1.2305,1.2305,1.2305,0.0,0.0,0.0,0.0,0.0,0.0,0.0,0.5395,0.5395,0.5395,0.5395,0.5395,0.5395,0.5395,0.5395,0.5395,0.5395,0.5395,0.5395,0.5395,0.5123,0.0,0.0,0.0,0.3849,0.2509,0.1941,0.1842,0.094,0.0337,0.0,0.0,0.0,0.0,0.0,0.0,0.0,0.0,0.0,0.0,0.0,0.0,-0.037,-0.2178,-0.2711,-0.3111,-0.4921,-0.5395,-0.5395,-0.5395,-0.5395,-0.5395,-0.5395,-0.5395,-0.5395,-0.5395,-0.6108,-0.6981,-0.7859,-0.8716,-0.9594,-1.0466,-1.0593,-1.0593,-1.0593,-1.0593,-1.0593,-1.0593,-1.0593,-1.0593,-1.0593,-1.0593,-1.0593,-1.0593,-1.0593,-1.0593,-1.0593,-1.0593,-1.0593,-1.0593,-0.9678,-0.8801,-0.7994,-0.7051,-0.6178,-0.5395,-0.5395,-0.5395,0.4143,0.5555,0.6949,0.7661,0.8029,0.8457,0.9346,0.9844,1.0097,1.0174,1.0388,1.062,1.0707,1.0855,1.1035,1.1169,1.1645,1.206,1.2265,1.2305,1.2305,1.2305,1.2265,0.0,0.0,0.0,0.0,0.0,0.0,0.0,0.0,0.5395,0.5395,0.5395,0.5395,0.5395,0.5395,0.5395,0.5395,0.5395,0.5395,0.5395,0.5395,0.5395,0.5395,0.0,0.0,0.0,0.5259,0.358,0.2811,0.2611,0.1675,0.0772,0.0,0.0,0.0,0.0,0.0,0.0,0.0,0.0,0.0,0.0,0.0,0.0,-0.037,-0.2178,-0.2711,-0.3111,-0.4921,-0.5395,-0.5395,-0.5395,-0.5395,-0.5395,-0.5395,-0.5395,-0.5395,-0.5395,-0.6009,-0.6817,-0.7832,-0.8613,-0.9428,-1.046,-1.0593,-1.0593,-1.0593,-1.0593,-1.0593,-1.0593,-1.0593,-1.0593,-1.0593,-1.0593,-1.0593,-1.0593,-1.0593,-1.0593,-1.0593,-1.0593,-1.0593,-1.0593,-1.0333,-0.9486,-0.7994,-0.7735,-0.6859,-0.5395,-0.5395,-0.5395,0.3491,0.5009,0.6286,0.6185,0.6837,0.7728,0.8721,0.9546,1.0187,1.0472,1.0559,1.0747,1.1202,1.1129,1.1236,1.1984,1.2178,1.2251,0.0,0.0,1.2305,1.2305,0.0,0.0,0.0,0.0,0.0,0.0,0.0,0.0,0.0,0.5395,0.5395,0.5395,0.5395,0.5395,0.5395,0.5395,0.5395,0.5395,0.5395,0.5395,0.5395,0.5395,0.5395,0.0,0.0,0.5259,0.5329,0.4251,0.338,0.2611,0.1675,0.0772,0.0,0.0,0.0,0.0,0.0,0.0,0.0,0.0,0.0,0.0,0.0,0.0,-0.037,-0.2178,-0.2711,-0.3111,-0.4921,-0.5395,-0.5395,-0.5395,-0.5395,-0.5395,-0.5395,-0.5395,-0.5395,-0.5395,-0.5491,-0.6112,-0.7735,-0.8124,-0.8742,-1.0364,-1.0593,-1.0593,-1.0593,-1.0593,-1.0593,-1.0593,-1.0593,-1.0593,-1.0593,-1.0593,-1.0593,-1.0593,-1.0593,-1.0593,-1.0593,-1.0593,-1.0593,-1.0593,-0.916,-0.8253,-0.7994,-0.6535,-0.5657,-0.5395,-0.5395,-0.5395,0.3261,0.4431,0.538,0.5336,0.6497,0.8053,0.9457,0.9718,0.9857,1.0465,1.0593,1.072,1.1116,1.1209,1.1463,1.2184,1.2305,1.2305,1.2305,1.2305,1.2245,0.0,0.0,0.0,0.0,0.0,0.0,0.0,0.0,0.0,0.0,0.0,0.5395,0.5395,0.5395,0.5395,0.5395,0.5395,0.5395,0.5395,0.5395,0.5395,0.5395,0.5395,0.5395,0.5395,0.0,0.5395,0.5362,0.4921,0.4217,0.3311,0.241,0.1508,0.0638,0.0168,0.0,0.0,0.0,0.0,0.0,0.0,0.0,0.0,0.0,0.0,-0.037,-0.2178,-0.2711,-0.3111,-0.4921,-0.5395,-0.5395,-0.5395,-0.5395,-0.5395,-0.5395,-0.5395,-0.5395,-0.5395,-0.5395,-0.5951,-0.7702,-0.7994,-0.8576,-1.0333,-1.0593,-1.0593,-1.0593,-1.0593,-1.0593,-1.0593,-1.0593,-1.0593,-1.0593,-1.0593,-1.0593,-1.0593,-1.0593,-1.0593,-1.0593,-1.0593,-1.0593,-1.0593,-0.9811,-0.8935,-0.7994,-0.7186,-0.6305,-0.5395,-0.5395,-0.5395,0.3021,0.4089,0.5042,0.5175,0.6417,0.799,0.9621,0.9652,0.9588,1.0428,1.0646,1.076,1.0955,1.1283,1.1677,1.2131,1.2258,1.2278,1.2211,1.2204,1.2091,0.0,0.0,0.0,0.0,0.0,0.0,0.0,0.0,0.0,0.0,0.0,0.5395,0.5395,0.5395,0.5395,0.5395,0.5395,0.5395,0.5395,0.5395,0.5395,0.5395,0.5395,0.5395,0.5395,0.5395,0.5395,0.5395,0.5395,0.4855,0.3915,0.3045,0.2009,0.0906,0.0236,0.0,0.0,0.0,0.0,0.0,0.0,0.0,0.0,0.0,0.0,-0.037,-0.2178,-0.2711,-0.3111,-0.4921,-0.5395,-0.5395,-0.5395,-0.5395,-0.5395,-0.5395,-0.5395,-0.5395,-0.5395,-0.5395,-0.5951,-0.7702,-0.7994,-0.8576,-1.0333,-1.0593,-1.0593,-1.0593,-1.0593,-1.0593,-1.0593,-1.0593,-1.0593,-1.0593,-1.0593,-1.0593,-1.0593,-1.0593,-1.0593,-1.0593,-1.0593,-1.0593,-1.0593,-1.0396,-0.955,-0.7994,-0.78,-0.6892,-0.5395,-0.5395,-0.5395,0.2485,0.4204,0.595,0.6083,0.6211,0.666,0.7898,0.8871,0.9684,1.046,1.0807,1.0969,1.0989,1.1456,1.1886,1.1933,1.2124,1.2204,1.1973,0.0,0.0,0.0,0.0,0.0,0.0,0.0,0.0,0.0,0.0,0.0,0.0,0.0,0.0,0.5395,0.5395,0.5395,0.5395,0.5395,0.5395,0.5395,0.5395,0.5395,0.5395,0.5395,0.5395,0.5395,0.5395,0.5395,0.5395,0.5395,0.4855,0.3915,0.3045,0.1643,0.0101,0.0034,0.0,0.0,0.0,0.0,0.0,0.0,0.0,0.0,0.0,0.0,-0.037,-0.2178,-0.2711,-0.3111,-0.4921,-0.5395,-0.5395,-0.5395,-0.5395,-0.5395,-0.5395,-0.5395,-0.5395,-0.5395,-0.5395,-0.5951,-0.7702,-0.7994,-0.8576,-1.0333,-1.0593,-1.0593,-1.0593,-1.0593,-1.0593,-1.0593,-1.0593,-1.0593,-1.0593,-1.0593,-1.0593,-1.0593,-1.0593,-1.0593,-1.0593,-1.0593,-1.0593,-1.0593,-0.9817,-0.8941,-0.7994,-0.7177,-0.6301,-0.5395,-0.5395,-0.5395,0.216,0.3374,0.4649,0.5228,0.5393,0.5967,0.8121,0.8716,0.9195,1.0562,1.0915,1.0995,1.0995,1.1323,1.1657,1.1873,1.181,1.1784,1.1893,0.0,0.0,0.0,0.0,0.0,0.0,0.0,0.0,0.0,0.0,0.0,0.0,0.0,0.0,0.5395,0.5395,0.5395,0.5395,0.5395,0.5395,0.5395,0.5395,0.5395,0.5395,0.5395,0.5395,0.5395,0.5395,0.5395,0.5395,0.5395,0.5193,0.4722,0.328,0.161,0.0,0.0,0.0,0.0,0.0,0.0,0.0,0.0,0.0,-0.0101,-0.0638,-0.0806,-0.1174,-0.3011,-0.3513,-0.3816,-0.5057,-0.5395,-0.5395,-0.5395,-0.5395,-0.5423,-0.5518,-0.5539,-0.5566,-0.562,-0.6148,-0.6902,-0.796,-0.8639,-0.9411,-1.0423,-1.0593,-1.0593,-1.0593,-1.0593,-1.0593,-1.0593,-1.0593,-1.0593,-1.0593,-1.0593,-1.0593,-1.0593,-1.0593,-1.0593,-1.0593,-1.0593,-1.0593,-1.0593,-1.0269,-0.9684,-0.8812,-0.8484,-0.7605,-0.6203,-0.6203,-0.5914,0.2101,0.3146,0.4157,0.4739,0.4921,0.5532,0.7685,0.827,0.8749,1.0157,1.0692,1.0855,1.0855,1.1096,1.1356,0.0,1.1496,1.1463,0.0,0.0,0.0,0.0,0.0,0.0,0.0,0.0,0.0,0.0,0.0,0.0,0.0,0.0,0.0,0.0,0.5395,0.5395,0.5395,0.5395,0.5395,0.5395,0.5395,0.5395,0.5395,0.5395,0.5395,0.5395,0.5395,0.5395,0.5395,0.5395,0.5226,0.4821,0.358,0.2011,0.0404,0.0404,0.0236,0.0,0.0,0.0,0.0,0.0,-0.0202,-0.0538,-0.1106,-0.1507,-0.2041,-0.358,-0.4015,-0.4215,-0.516,-0.5395,-0.5395,-0.5395,-0.5433,-0.5494,-0.5566,-0.5627,-0.5684,-0.5783,-0.6365,-0.7138,-0.8152,-0.8821,-0.9558,-1.0561,-1.0646,-1.0593,-1.0593,-1.0593,-1.0593,-1.0593,-1.0593,-1.0593,-1.0593,-1.0593,-1.0593,-1.0593,-1.0593,-1.0593,-1.0593,-1.0593,-1.0593,-1.0593,-1.0593,-1.0174,-0.9306,-0.9306,-0.8549,-0.7111,-0.6817,-0.6363,0.232,0.3658,0.4887,0.4887,0.4995,0.5322,0.6199,0.7323,0.8409,0.9139,0.9983,1.0593,1.0593,1.0827,0.0,1.0995,1.1229,1.1282,0.0,0.0,0.0,0.0,0.0,0.0,0.0,0.0,0.0,0.0,0.0,0.0,0.0,0.0,0.0,0.0,0.5395,0.5395,0.5395,0.5395,0.5395,0.5395,0.5395,0.5395,0.5395,0.5395,0.5395,0.5395,0.5395,0.5395,0.5395,0.5395,0.4855,0.4015,0.4015,0.2878,0.1307,0.1307,0.0739,0.0,0.0,0.0,0.0,0.0,-0.0572,-0.1307,-0.1307,-0.1975,-0.2878,-0.378,-0.4015,-0.4217,-0.516,-0.5395,-0.5395,-0.5395,-0.5515,-0.5589,-0.5593,-0.5701,-0.5803,-0.5803,-0.5806,-0.6408,-0.8277,-0.8383,-0.8873,-1.0725,-1.078,-1.0593,-1.0593,-1.0593,-1.0593,-1.0593,-1.0593,-1.0593,-1.0593,-1.0593,-1.0593,-1.0593,-1.0593,-1.0593,-1.0593,-1.0593,-1.0593,-1.0593,-1.0593,-1.0174,-0.9306,-0.9306,-0.8844,-0.7994,-0.7111,-0.6687,0.1162,0.2418,0.3472,0.3994,0.4722,0.5389,0.565,0.6597,0.7832,0.9274,1.0267,1.0834,1.0626,1.0667,0.0,1.0962,1.0895,0.0,0.0,0.0,0.0,0.0,0.0,0.0,0.0,0.0,0.0,0.0,0.0,0.0,0.0,0.0,0.0,0.0,0.5395,0.5395,0.5395,0.5395,0.5395,0.5395,0.5395,0.5395,0.5395,0.5395,0.5395,0.5395,0.5395,0.5395,0.5395,0.5395,0.4855,0.4015,0.4015,0.2878,0.1307,0.1307,0.0739,0.0,0.0,0.0,0.0,0.0,-0.0168,-0.0639,-0.1909,-0.2477,-0.3011,-0.4553,-0.499,-0.5057,-0.5329,-0.5395,-0.5395,-0.5395,-0.5515,-0.5616,-0.5718,-0.5854,-0.5996,-0.6143,-0.7276,-0.8379,-0.8696,-0.9871,-1.0836,-1.0983,-1.0922,-1.0821,-1.062,-1.0593,-1.0593,-1.0593,-1.0593,-1.0593,-1.0593,-1.0593,-1.0593,-1.0593,-1.0593,-1.0593,-1.0593,-1.0593,-1.0301,-0.969,-1.0301,-1.0174,-0.9306,-0.9306,-0.8844,-0.7994,-0.7111,-0.6363,0.0775,0.2179,0.331,0.3753,0.4637,0.5395,0.5395,0.6456,0.7869,0.9267,1.0223,1.0801,1.0626,1.0333,0.0,1.0756,0.0,0.0,0.0,0.0,0.0,0.0,0.0,0.0,0.0,0.0,0.0,0.0,0.0,0.0,0.0,0.0,0.0,0.0,0.5395,0.5395,0.5395,0.5395,0.5395,0.5395,0.5395,0.5395,0.5395,0.5395,0.5395,0.5395,0.5395,0.5395,0.5395,0.5395,0.5057,0.4553,0.4553,0.3447,0.1842,0.1842,0.1074,0.0,0.0,0.0,0.0,0.0,-0.0236,-0.0806,-0.2243,-0.2945,-0.3513,-0.499,-0.5395,-0.5395,-0.5395,-0.5395,-0.5409,-0.547,-0.5566,-0.5711,-0.5861,-0.6013,-0.6149,-0.6282,-0.7591,-0.876,-0.8961,-1.0291,-1.1275,-1.1168,-1.0969,-1.0787,-1.0613,-1.0593,-1.0593,-1.0593,-1.0593,-1.0593,-1.0593,-1.0593,-1.0593,-1.0593,-1.0269,-1.0079,-1.0079,-1.0079,-0.9849,-0.9306,-0.9492,-0.9294,-0.878,-0.878,-0.8517,-0.7994,-0.7111,-0.6429,0.0723,0.238,0.3768,0.3865,0.4646,0.5395,0.5395,0.6695,0.8091,0.8909,0.9754,1.0364,1.0364,0.9722,0.9434,0.0,0.0,0.0,0.0,0.0,0.0,0.0,0.0,0.0,0.0,0.0,0.0,0.0,0.0,0.0,0.0,0.0,0.0,0.0,0.5395,0.5395,0.5395,0.5395,0.5395,0.0,0.5395,0.5395,0.5395,0.5395,0.5395,0.5395,0.5395,0.5395,0.5395,0.5395,0.5395,0.5395,0.5296,0.4217,0.2678,0.2611,0.1476,0.0,0.0,0.0,0.0,0.0,-0.0605,-0.1474,-0.241,-0.3311,-0.4184,-0.5126,-0.5395,-0.5395,-0.5395,-0.5395,-0.5436,-0.5569,-0.5708,-0.5844,-0.5959,-0.6149,-0.63,-0.63,-0.7173,-0.8237,-0.9145,-1.0013,-1.0777,-1.1332,-1.0955,-1.0633,-1.0633,-1.0613,-1.0613,-1.0667,-1.0626,-1.06,-1.0626,-1.0606,-1.0561,-1.0491,-0.9722,-0.9274,-0.9172,-0.9172,-0.9139,-0.9075,-0.8355,-0.7962,-0.7897,-0.7897,-0.7897,-0.7859,-0.6981,-0.6593,-0.0871,0.0623,0.2044,0.2783,0.4213,0.5395,0.5395,0.6207,0.7046,0.7209,0.7957,0.8544,0.8544,0.8415,0.8355,0.0,0.0,0.0,0.0,0.0,0.0,0.0,0.0,0.0,0.0,0.0,0.0,0.0,0.0,0.0,0.0,0.0,0.0,0.5395,0.5395,0.5395,0.5395,0.5395,0.5395,0.0,0.5395,0.5395,0.5395,0.5395,0.5395,0.5395,0.5395,0.5395,0.5395,0.5395,0.5395,0.5329,0.4586,0.3647,0.2611,0.1876,0.0906,0.0,0.0,0.0,0.0,0.0,-0.0605,-0.1474,-0.241,-0.3311,-0.4184,-0.5126,-0.5395,-0.5395,-0.5395,-0.5395,-0.5463,-0.5691,-0.5779,-0.5844,-0.5959,-0.6149,-0.63,-0.63,-0.7744,-0.9031,-0.9258,-1.0748,-1.1772,-1.1434,-1.1129,-1.0902,-1.0902,-1.0734,-1.0767,-1.1189,-1.0861,-1.0687,-1.0914,-1.072,-1.0301,-0.9626,-0.9402,-0.9011,-0.8323,-0.8291,-0.7962,-0.7274,-0.773,-0.7665,-0.6981,-0.6981,-0.6981,-0.6948,-0.6075,-0.5686,-0.1443,-0.0222,0.1113,0.2879,0.4038,0.4855,0.5292,0.5752,0.6075,0.6075,0.7116,0.7994,0.7994,0.7665,0.7502,0.0,0.0,0.0,0.0,0.0,0.0,0.0,0.0,0.0,0.0,0.0,0.0,0.0,0.0,0.0,0.0,0.5395,0.5395,0.5395,0.5395,0.5395,0.5395,0.5395,0.5395,0.5395,0.5395,0.5395,0.5395,0.5395,0.5395,0.5395,0.5395,0.5395,0.5395,0.5395,0.5395,0.5296,0.435,0.348,0.2577,0.1641,0.0739,0.0,0.0,0.0,0.0,0.0,-0.0605,-0.1474,-0.241,-0.3311,-0.4184,-0.5126,-0.5395,-0.5395,-0.5395,-0.5395,-0.547,-0.5732,-0.58,-0.5864,-0.6091,-0.6242,-0.63,-0.63,-0.7936,-0.9296,-0.9296,-1.0742,-1.173,-1.1283,-1.0969,-1.0821,-1.0821,-1.0687,-1.076,-1.1169,-1.0949,-1.0882,-1.1176,-1.0568,-0.9978,-0.9521,-0.8576,-0.7859,-0.7405,-0.6985,-0.6724,-0.6687,-0.6724,-0.6531,-0.6075,-0.6075,-0.6075,-0.6075,-0.562,-0.5395,-0.1698,-0.0551,0.0763,0.2972,0.378,0.4217,0.499,0.5292,0.5395,0.5395,0.6535,0.754,0.754,0.6953,0.0,0.0,0.0,0.0,0.0,0.0,0.0,0.0,0.0,0.0,0.0,0.0,0.0,0.0,0.0,0.0,0.562,0.562,0.5557,0.5395,0.5395,0.5395,0.5395,0.5395,0.5395,0.5395,0.5395,0.5395,0.5395,0.5395,0.5395,0.5395,0.5395,0.5395,0.5395,0.5395,0.5296,0.5057,0.4148,0.3245,0.2344,0.1408,0.0605,0.0,0.0,0.0,-0.0034,-0.0168,-0.0806,-0.1708,-0.2644,-0.3547,-0.4417,-0.5193,-0.5395,-0.5395,-0.5395,-0.5395,-0.547,-0.5732,-0.5943,-0.6099,-0.627,-0.63,-0.63,-0.63,-0.7936,-0.941,-0.975,-1.0737,-1.1403,-1.1109,-1.0894,-1.072,-1.0673,-1.0713,-1.0854,-1.1116,-1.1096,-1.1182,-1.1442,-1.0581,-0.9854,-0.9546,-0.7941,-0.6867,-0.6511,-0.5851,-0.5788,-0.6511,-0.5763,-0.5395,-0.5395,-0.5395,-0.5395,-0.5395,-0.5395,-0.5395,-0.2312,-0.0495,0.1204,0.1565,0.2845,0.4048,0.4151,0.4821,0.5395,0.5395,0.5591,0.5756,0.5756,0.0,0.0,0.0,0.0,0.0,0.0,0.0,0.0,0.0,0.0,0.0,0.0,0.0,0.0,0.0,0.0,0.0,0.6523,0.6523,0.617,0.5428,0.5395,0.5395,0.5395,0.5395,0.5395,0.5395,0.5395,0.5395,0.5395,0.5395,0.5395,0.5395,0.5395,0.5395,0.5395,0.5395,0.4921,0.4115,0.3211,0.231,0.1374,0.0505,0.0101,0.0,0.0,0.0,-0.0135,-0.0873,-0.1742,-0.2678,-0.3547,-0.4486,-0.5226,-0.5362,-0.5395,-0.5395,-0.5395,-0.5395,-0.547,-0.5732,-0.6472,-0.6957,-0.6419,-0.63,-0.63,-0.63,-0.7936,-0.9863,-1.1589,-1.1844,-1.171,-1.141,-1.1336,-1.1223,-1.0969,-1.1156,-1.1423,-1.1752,-1.1523,-1.149,-1.1819,-1.1433,-1.0495,-0.8863,-0.8483,-0.7559,-0.5837,-0.5748,-0.5755,-0.5731,-0.5531,-0.5395,-0.5395,-0.5395,-0.5395,-0.5395,-0.5395,-0.5395,-0.2692,-0.1229,0.0162,0.1065,0.1909,0.2744,0.378,0.4317,0.4755,0.5292,0.5395,0.5395,0.5395,0.0,0.0,0.0,0.0,0.0,0.0,0.0,0.0,0.0,0.0,0.0,0.0,0.0,0.0,0.0,0.0,0.6687,0.6687,0.6687,0.6301,0.5428,0.5395,0.5395,0.5395,0.5395,0.5395,0.5395,0.5395,0.5395,0.5395,0.5395,0.5395,0.5395,0.5395,0.5395,0.5359,0.4821,0.4384,0.3849,0.2477,0.1675,0.1207,0.0337,0.0,0.0,0.0,0.0,-0.0135,-0.1006,-0.1941,-0.2878,-0.3747,-0.4652,-0.5395,-0.5395,-0.5395,-0.5395,-0.5395,-0.5395,-0.547,-0.5732,-0.6154,-0.6422,-0.6308,-0.6756,-0.7288,-0.7859,-0.914,-1.0562,-1.1867,-1.1817,-1.1577,-1.1409,-1.1255,-1.1196,-1.1229,-1.1349,-1.1543,-1.1873,-1.1785,-1.179,-1.2084,-1.141,-1.0355,-0.8954,-0.876,-0.7808,-0.5782,-0.6296,-0.6332,-0.5711,-0.5644,-0.5606,-0.5606,-0.5606,-0.56,-0.5525,-0.5525,-0.5477,-0.3063,-0.2129,-0.1123,0.0299,0.0804,0.1372,0.2943,0.368,0.4184,0.0,0.5226,0.5382,0.5344,0.0,0.0,0.0,0.0,0.0,0.0,0.0,0.0,0.0,0.0,0.0,0.0,0.0,0.0,0.0,0.0,0.7046,0.7046,0.7046,0.6527,0.5428,0.5395,0.5395,0.5395,0.5395,0.5395,0.5395,0.5395,0.5395,0.5395,0.5395,0.5395,0.5395,0.5395,0.5259,0.499,0.4284,0.3713,0.3178,0.1842,0.1173,0.0906,0.0236,0.0,0.0,0.0,-0.0135,-0.0471,-0.1374,-0.2277,-0.3211,-0.4082,-0.4855,-0.5395,-0.5395,-0.5395,-0.5395,-0.5395,-0.5423,-0.5518,-0.5739,-0.601,-0.6258,-0.628,-0.7099,-0.8084,-0.9107,-1.0115,-1.1064,-1.1867,-1.1737,-1.1516,-1.1402,-1.1303,-1.1243,-1.1309,-1.1475,-1.1703,-1.1893,-1.1973,-1.2064,-1.2285,-1.1509,-1.0586,-0.9594,-0.9382,-0.8398,-0.6324,-0.7009,-0.6937,-0.5861,-0.5898,-0.5878,-0.58,-0.58,-0.5728,-0.5589,-0.5589,-0.5562,-0.3512,-0.2987,-0.2218,-0.1388,-0.0535,0.0301,0.1239,0.2778,0.4015,0.4048,0.4788,0.5351,0.0,0.0,0.0,0.0,0.0,0.0,0.0,0.0,0.0,0.0,0.0,0.0,0.0,0.0,0.0,0.0,0.0,0.7929,0.7929,0.7929,0.7153,0.5462,0.5395,0.5395,0.5395,0.5395,0.5395,0.5395,0.5395,0.5395,0.5395,0.5395,0.5395,0.5395,0.5395,0.4891,0.4082,0.4015,0.2978,0.1441,0.134,0.0806,0.0067,0.0,0.0,0.0,0.0,-0.0538,-0.1374,-0.231,-0.3211,-0.4115,-0.5057,-0.5359,-0.5395,-0.5395,-0.5395,-0.5395,-0.5395,-0.5501,-0.5616,-0.5766,-0.663,-0.7203,-0.6454,-0.7099,-0.8084,-0.9107,-1.0115,-1.1118,-1.2094,-1.2037,-1.1785,-1.147,-1.165,-1.1665,-1.1082,-1.1744,-1.2158,-1.1933,-1.2118,-1.2285,-1.2305,-1.2248,-1.1786,-1.0765,-1.0717,-0.9707,-0.7487,-0.7656,-0.7219,-0.602,-0.6162,-0.6129,-0.58,-0.58,-0.5728,-0.5589,-0.5589,-0.5586,-0.3533,-0.3216,-0.2722,-0.148,-0.0946,-0.036,0.1001,0.1809,0.2444,0.3045,0.3825,0.4347,0.0,0.0,0.0,0.0,0.0,0.0,0.0,0.0,0.0,0.0,0.0,0.0,0.0,0.0,0.0,0.0,0.0,0.0,0.8812,0.8291,0.7442,0.6268,0.5686,0.5395,0.5395,0.5395,0.5395,0.5395,0.5395,0.5395,0.5395,0.5395,0.5395,0.5362,0.4755,0.4317,0.3949,0.338,0.2444,0.124,0.0672,0.0269,0.0,0.0,0.0,0.0,0.0,-0.0572,-0.1441,-0.241,-0.3278,-0.4184,-0.5123,-0.5395,-0.5395,-0.5395,-0.5395,-0.5395,-0.5395,-0.5508,-0.565,-0.5891,-0.6323,-0.6616,-0.6197,-0.7335,-0.8551,-0.8921,-1.036,-1.1614,-1.1988,-1.1777,-1.1617,-1.1697,-1.1637,-1.1577,-1.1591,-1.1991,-1.2265,-1.2158,-1.2238,-1.2305,-1.2305,-1.2305,-1.1879,-1.0858,-1.1391,-1.0525,-0.7794,-0.8386,-0.7939,-0.6218,-0.6272,-0.6245,-0.6136,-0.6136,-0.602,-0.5871,-0.5871,-0.582,-0.3889,-0.3778,-0.3478,-0.2309,-0.1977,-0.1535,0.0066,0.0698,0.1192,0.2038,0.2877,0.3482,0.0,0.0,0.0,0.0,0.0,0.0,0.0,0.0,0.0,0.0,0.0,0.0,0.0,0.0,0.0,0.0,0.0,0.0,0.8753,0.8201,0.7365,0.6209,0.5603,0.5341,0.5395,0.5395,0.5395,0.5395,0.5395,0.5395,0.5395,0.509,0.4921,0.4888,0.3949,0.358,0.348,0.2611,0.1676,0.0806,0.0236,0.0,0.0,0.0,0.0,-0.0034,-0.0337,-0.1007,-0.1909,-0.2845,-0.3747,-0.4586,-0.5226,-0.5395,-0.5395,-0.5395,-0.5395,-0.5395,-0.5395,-0.5545,-0.5725,-0.5936,-0.6149,-0.6255,-0.6027,-0.7487,-0.8772,-0.8738,-1.0343,-1.1724,-1.1724,-1.1557,-1.1463,-1.1591,-1.149,-1.1496,-1.1697,-1.1977,-1.2191,-1.2291,-1.2305,-1.2305,-1.2305,-1.2305,-1.1996,-1.1354,-1.1922,-1.1205,-0.8773,-0.9035,-0.8403,-0.6591,-0.6308,-0.6183,-0.6183,-0.6276,-0.6179,-0.5993,-0.5993,-0.5909,0.0,0.0,0.0,-0.3937,-0.3693,-0.3208,-0.1684,0.0,0.0323,0.1066,0.1962,0.2793,0.0,0.0,0.0,0.0,0.0,0.0,0.0,0.0,0.0,0.0,0.0,0.0,0.0,0.0,0.0,0.0,0.0,0.8758,0.7752,0.767,0.6862,0.5156,0.5096,0.5203,0.5385,0.5392,0.5395,0.5359,0.5359,0.5359,0.5292,0.4384,0.3949,0.3915,0.3045,0.2644,0.2577,0.1675,0.0772,0.0,0.0,0.0,0.0,0.0,0.0,-0.0168,-0.1006,-0.1941,-0.2878,-0.3713,-0.4619,-0.5395,-0.5395,-0.5395,-0.5395,-0.5395,-0.5395,-0.5395,-0.5399,-0.5617,-0.5833,-0.5949,-0.6139,-0.6245,-0.6051,-0.7433,-0.8717,-0.8619,-1.0083,-1.1375,-1.1382,-1.1375,-1.1282,-1.1035,-1.1229,-1.1375,-1.1375,-1.1683,-1.2013,-1.2258,-1.2298,-1.2305,-1.2305,-1.2291,-1.2291,-1.2305,-1.2291,-1.1713,-1.0413,-0.954,-0.8459,-0.7091,-0.635,-0.5986,-0.5993,-0.6183,-0.6183,-0.6,-0.6,-0.5956,-0.471,0.0,0.0,0.0,0.0,0.0,0.0,0.0,-0.1356,-0.0696,0.0129,0.0959,0.0,0.0,0.0,0.0,0.0,0.0,0.0,0.0,0.0,0.0,0.0,0.0,0.0,0.0,0.0,0.0,0.7145,0.7349,0.768,0.7009,0.6089,0.4975,0.5046,0.512,0.5196,0.5337,0.5057,0.4384,0.4384,0.4048,0.3447,0.3178,0.3045,0.3011,0.2075,0.1675,0.1675,0.1407,0.0772,0.0,0.0,0.0,0.0,0.0,-0.0404,-0.0973,-0.1207,-0.2342,-0.368,-0.3915,-0.4619,-0.5395,-0.5395,-0.5395,-0.5395,-0.5395,-0.5395,-0.5423,-0.5532,-0.5586,-0.5684,-0.583,-0.5898,-0.5888,-0.5742,-0.6608,-0.7593,-0.8196,-0.931,-1.0367,-1.1009,-1.1109,-1.1089,-1.1002,-1.1062,-1.1109,-1.1109,-1.1557,-1.194,-1.202,-1.2178,-1.2305,-1.2305,-1.2111,-1.2078,-1.2285,-1.2104,-1.1255,-0.954,-0.9213,-0.8203,-0.6331,-0.6007,-0.5918,-0.5993,-0.6183,-0.6279,-0.6235,-0.6235,-0.6115,-0.5277,-0.5101,-0.4988,-0.4228,0.0,0.0,-0.2715,-0.2342,-0.2016,0.0,-0.0561,0.0121,0.0,0.0,0.0,0.0,0.0,0.0,0.0,0.0,0.0,0.0,0.0,0.0,0.0,0.0,0.0,0.6687,0.6943,0.7056,0.7064,0.6117,0.5348,0.4823,0.4904,0.4948,0.5012,0.4829,0.4472,0.3911,0.3593,0.3178,0.2678,0.231,0.211,0.2076,0.1141,0.0772,0.0772,0.0772,0.0471,0.0,0.0,0.0,0.0,0.0,-0.0538,-0.134,-0.1742,-0.2811,-0.4048,-0.4453,-0.4957,-0.5395,-0.5395,-0.5395,-0.5395,-0.5395,-0.5395,-0.5416,-0.5504,-0.5542,-0.561,-0.5694,-0.5759,-0.5762,-0.562,-0.6299,-0.715,-0.7941,-0.8893,-0.9825,-1.0679,-1.0847,-1.0847,-1.0847,-1.0847,-1.0855,-1.0982,-1.1396,-1.173,-1.1893,-1.2131,-1.2305,-1.2305,-1.2037,-1.1847,-1.1675,-1.1433,-1.0587,-0.9025,-0.8577,-0.7735,-0.6414,-0.5993,-0.5908,-0.6125,-0.6152,-0.6235,-0.63,-0.63,-0.6176,-0.6238,-0.5992,-0.586,-0.519,-0.4947,0.0,-0.3069,-0.2602,-0.2276,0.0,-0.0841,-0.0353,0.0,0.0,0.0,0.0,0.0,0.0,0.0,0.0,0.0,0.0,0.0,0.0,0.0,0.6793,0.7372,0.6621,0.7256,0.7202,0.6121,0.5196,0.4714,0.4714,0.4714,0.4782,0.4887,0.4159,0.3763,0.3636,0.2892,0.25,0.2366,0.1539,0.114,0.1106,0.0337,0.0,0.0,0.0,0.0,0.0,0.0,-0.0067,-0.0135,-0.0135,-0.0773,-0.1708,-0.2544,-0.3411,-0.4284,-0.5123,-0.5395,-0.5395,-0.5395,-0.5395,-0.5395,-0.5395,-0.5395,-0.5395,-0.5395,-0.5494,-0.5566,-0.5566,-0.5661,-0.5718,-0.5593,-0.6268,-0.7093,-0.7867,-0.8716,-0.9594,-1.0466,-1.0593,-1.0593,-1.0593,-1.0593,-1.0687,-1.0909,-1.1196,-1.1476,-1.1779,-1.2031,-1.2168,-1.2058,-1.182,-1.138,-1.0609,-1.0338,-0.9744,-0.8684,-0.7776,-0.7115,-0.6799,-0.6118,-0.5935,-0.6248,-0.6105,-0.6125,-0.63,-0.63,-0.6186,-0.7403,-0.724,-0.7083,-0.6031,-0.5847,0.0,-0.4513,-0.4238,-0.3992,0.0,-0.2906,-0.2549,-0.1903,0.0,0.0,0.0,0.0,0.0,0.0,0.0,0.0,0.0,0.0,0.0,0.0,0.5723,0.5851,0.5653,0.5661,0.5503,0.5165,0.4978,0.4874,0.4874,0.4874,0.4891,0.4887,0.417,0.344,0.2758,0.1951,0.1201,0.0521,0.0333,0.0269,0.0236,0.0067,0.0,0.0,0.0,0.0,0.0,0.0,-0.0437,-0.104,-0.104,-0.2076,-0.3513,-0.368,-0.435,-0.516,-0.5326,-0.5395,-0.5395,-0.5395,-0.5395,-0.5395,-0.5395,-0.5395,-0.5395,-0.5395,-0.5419,-0.544,-0.544,-0.546,-0.5474,-0.5446,-0.6125,-0.6992,-0.7837,-0.8716,-0.9594,-1.0466,-1.0593,-1.0593,-1.0593,-1.0593,-1.0613,-1.0667,-1.0902,-1.1096,-1.1156,-1.1423,-1.1277,-1.0606,-1.0376,-0.9974,-0.9237,-0.9029,-0.8543,-0.7619,-0.7303,-0.6773,-0.6037,-0.5858,-0.583,-0.5891,-0.6112,-0.6269,-0.63,-0.63,-0.6282,-0.8281,-0.821,-0.8023,-0.7071,0.0,0.0,0.0,-0.4922,-0.4485,-0.4189,-0.3416,-0.2815,-0.289,0.0,0.0,0.0,0.0,0.0,0.0,0.0,0.0,0.0,0.0,0.0,0.0,0.5123,0.5395,0.5395,0.5324,0.5179,0.5002,0.4992,0.4928,0.4809,0.4806,0.4588,0.4161,0.3394,0.2611,0.1804,0.1025,0.041,0.0,0.0,0.0,0.0,0.0,0.0,0.0,0.0,0.0,-0.0034,-0.0471,-0.0906,-0.134,-0.1842,-0.2845,-0.4015,-0.4015,-0.4619,-0.5395,-0.5395,-0.5395,-0.5395,-0.5395,-0.5395,-0.5395,-0.5395,-0.5395,-0.5395,-0.5395,-0.5395,-0.5395,-0.5395,-0.5395,-0.5395,-0.5395,-0.6075,-0.6948,-0.7832,-0.8716,-0.9594,-1.0466,-1.0593,-1.0593,-1.0593,-1.0593,-1.0593,-1.0593,-1.0847,-1.0995,-1.0995,-1.0844,-1.0551,-1.0135,-0.9525,-0.8843,-0.8082,-0.7857,-0.7399,-0.6572,-0.6425,-0.6137,-0.5694,-0.584,-0.5915,-0.5915,-0.6187,-0.63,-0.63,-0.63,-0.63,-0.9149,-0.9149,-0.894,-0.8101,0.0,-0.7328,0.0,0.0,0.0,-0.505,-0.3873,0.0,0.0,0.0,0.0,0.0,0.0,0.0,0.0,0.0,0.0,0.0,0.0,0.0,0.0,0.4855,0.5395,0.5395,0.5395,0.5341,0.5182,0.5143,0.5067,0.4856,0.4792,0.4348,0.3498,0.2669,0.1871,0.1077,0.0361,0.0,0.0,0.0,0.0,0.0,0.0,0.0,0.0,0.0,0.0,-0.0067,-0.0772,-0.1274,-0.1675,-0.241,-0.338,-0.4284,-0.4284,-0.4755,-0.5395,-0.5395,-0.5395,-0.5395,-0.5395,-0.5395,-0.5395,-0.5395,-0.5395,-0.5395,-0.5395,-0.5395,-0.5395,-0.5395,-0.5395,-0.5395,-0.5395,-0.6207,-0.7144,-0.7864,-0.8716,-0.953,-1.0238,-1.0333,-1.0301,-1.0136,-1.0104,-1.0104,-1.0104,-1.0296,-1.0437,-1.0437,-0.9997,-0.9639,-0.9468,-0.8638,-0.7767,-0.6993,-0.6759,-0.6391,-0.5791,-0.565,-0.5589,-0.5589,-0.585,-0.5963,-0.5993,-0.6183,-0.63,-0.63,-0.63,-0.63,0.0,0.0,0.0,0.0,-0.8555,0.0,0.0,0.0,-0.6562,-0.6407,0.0,0.0,0.0,0.0,0.0,0.0,0.0,0.0,0.0,0.0,0.0,0.0,0.0,0.0,0.0,0.0,0.5395,0.5395,0.5395,0.5388,0.5368,0.5368,0.5354,0.5317,0.5152,0.4634,0.3772,0.2907,0.1994,0.1096,0.0349,0.0,0.0,0.0,0.0,0.0,0.0,0.0,0.0,0.0,0.0,0.0,-0.0101,-0.1141,-0.2544,-0.2678,-0.3782,-0.5226,-0.5226,-0.5329,-0.5395,-0.5395,-0.5395,-0.5395,-0.5395,-0.5395,-0.5395,-0.5395,-0.5395,-0.5395,-0.5395,-0.5395,-0.5395,-0.5395,-0.5395,-0.5395,-0.5395,-0.6695,-0.7897,-0.7994,-0.8716,-0.9338,-0.9434,-0.9466,-0.9172,-0.8415,-0.8285,-0.8285,-0.8285,-0.8306,-0.8355,-0.8355,-0.8283,-0.7934,-0.7146,-0.7088,-0.6641,-0.5681,-0.5692,-0.57,-0.5613,-0.5599,-0.5589,-0.5589,-0.5745,-0.5895,-0.5993,-0.6183,-0.63,-0.63,-0.63,-0.63,0.0,0.0,0.0,0.0,0.0,0.0,-0.8238,0.0,-0.7367,0.0,0.0,0.0,0.0,0.0,0.0,0.0,0.0,0.0,0.0,0.0,0.0,0.0,0.0,0.0,0.0,0.0,0.0,0.0,0.0,0.3849,0.3849,0.3849,0.3786,0.3728,0.365,0.3138,0.2244,0.186,0.1271,0.0448,0.0142,0.0,0.0,0.0,0.0,0.0,0.0,-0.0292,-0.0756,-0.0768,-0.1074,-0.1576,-0.1576,-0.2044,-0.2811,-0.3882,-0.4755,-0.5395,-0.5395,-0.5395,-0.5395,-0.5395,-0.5395,-0.5395,-0.5395,-0.5395,-0.5395,-0.5395,-0.5395,-0.5395,-0.5395,-0.5395,-0.5395,-0.5395,-0.5395,-0.5395,-0.5395,-0.5984,-0.6629,-0.7144,-0.7535,-0.78,-0.78,-0.8221,-0.842,-0.8059,-0.7994,-0.7994,-0.7994,-0.7994,-0.7994,-0.7994,-0.7535,-0.7111,-0.6719,-0.6303,-0.5859,-0.5432,-0.5453,-0.5491,-0.5491,-0.5542,-0.5589,-0.5589,-0.5728,-0.5833,-0.5898,-0.6051,-0.6129,-0.6129,-0.6255,-0.63,-1.0219,0.0,0.0,0.0,0.0,0.0,0.0,0.0,0.0,0.0,0.0,0.0,0.0,0.0,-0.6012,-0.5958,0.0,-0.4296,0.0,0.0,0.0,0.0,0.0,0.0,0.0,0.0,0.0,0.0,0.0,0.0,0.2711,0.2711,0.2654,0.257,0.2569,0.2095,0.1176,0.1165,0.0762,0.0,0.0,0.0,0.0,0.0,0.0,0.0,-0.0249,-0.0704,-0.1323,-0.1591,-0.2075,-0.2711,-0.2978,-0.3045,-0.3211,-0.4519,-0.5193,-0.5395,-0.5395,-0.5395,-0.5395,-0.5395,-0.5395,-0.5395,-0.5395,-0.5395,-0.5395,-0.5395,-0.5395,-0.5395,-0.5395,-0.5395,-0.5395,-0.5395,-0.5395,-0.5395,-0.5395,-0.5591,-0.5958,-0.6626,-0.6763,-0.678,-0.6798,-0.7282,-0.7572,-0.7312,-0.7279,-0.7279,-0.7279,-0.7279,-0.7279,-0.7279,-0.6724,-0.633,-0.633,-0.5752,-0.5395,-0.5395,-0.5395,-0.5395,-0.5395,-0.5542,-0.5589,-0.5589,-0.5728,-0.5823,-0.5864,-0.5939,-0.6013,-0.6095,-0.6248,-0.63,0.0,0.0,0.0,-0.9766,0.0,0.0,0.0,0.0,-0.9142,0.0,0.0,0.0,0.0,-0.7935,-0.7355,-0.7082,-0.7023,0.0,0.0,0.0,0.0,0.0,0.0,0.0,0.0,0.0,0.0,0.0,0.0,0.0,0.2711,0.2711,0.2709,0.2708,0.2708,0.2244,0.1317,0.1279,0.0848,0.0,0.0,0.0,0.0,0.0,0.0,-0.0059,-0.0882,-0.1285,-0.1355,-0.2285,-0.2678,-0.2778,-0.3613,-0.3949,-0.3982,-0.4015,-0.4619,-0.5395,-0.5395,-0.5395,-0.5395,-0.5395,-0.5395,-0.5395,-0.5395,-0.5395,-0.5395,-0.5395,-0.5395,-0.5395,-0.5395,-0.5395,-0.5395,-0.5395,-0.5395,-0.5395,-0.5395,-0.6075,-0.6709,-0.6861,-0.6894,-0.6919,-0.7064,-0.6895,-0.6461,-0.5624,-0.5495,-0.5495,-0.5495,-0.5495,-0.5495,-0.5495,-0.5458,-0.5428,-0.5428,-0.5428,-0.5395,-0.5395,-0.5395,-0.5395,-0.5395,-0.5542,-0.5589,-0.5589,-0.5728,-0.5874,-0.5986,-0.599,-0.6105,-0.6293,-0.6296,-0.63,0.0,0.0,-0.9531,-0.9659,0.0,0.0,0.0,0.0,0.0,0.0,0.0,0.0,0.0,-0.8727,-0.8194,-0.8114,-0.7532,-0.6974,0.0,0.0,0.0,0.0,0.0,0.0,0.0,0.0,0.0,0.0,0.0,0.0,0.0,0.0908,0.0908,0.0908,0.0908,0.0763,0.0452,0.0438,0.0304,0.0,0.0,0.0,-0.0028,-0.0504,-0.0732,-0.077,-0.1559,-0.2305,-0.2972,-0.3311,-0.3848,-0.4519,-0.4821,-0.4921,-0.4921,-0.4921,-0.5123,-0.5395,-0.5395,-0.5395,-0.5395,-0.5395,-0.5395,-0.5395,-0.5395,-0.5395,-0.5395,-0.5395,-0.5395,-0.5395,-0.5395,-0.5395,-0.5395,-0.5395,-0.5395,-0.5395,-0.5395,-0.5706,-0.5995,-0.602,-0.6111,-0.6196,-0.6219,-0.617,-0.596,-0.5593,-0.546,-0.5395,-0.5395,-0.5395,-0.5395,-0.5395,-0.5395,-0.5395,-0.5395,-0.5395,-0.5395,-0.5395,-0.5395,-0.5395,-0.5395,-0.5443,-0.5521,-0.5589,-0.5573,-0.5633,-0.5878,-0.5878,-0.5959,-0.6108,-0.6252,-0.63,-0.9472,-0.9357,0.0,-0.9479,-0.9239,0.0,-0.9038,0.0,0.0,0.0,0.0,0.0,0.0,-0.9378,-0.9078,-0.885,-0.8273,-0.7706,0.0,-0.7208,0.0,0.0,0.0,0.0,0.0,0.0,-0.1808,-0.1808,0.0,0.0,0.0,0.0,0.0,0.0,0.0,0.0,0.0,0.0,0.0,0.0,-0.0261,-0.0396,-0.042,-0.1146,-0.148,-0.154,-0.2399,-0.3165,-0.3822,-0.42,-0.4775,-0.5395,-0.5395,-0.5395,-0.5395,-0.5395,-0.5395,-0.5395,-0.5395,-0.5395,-0.5395,-0.5395,-0.5395,-0.5395,-0.5395,-0.5395,-0.5395,-0.5395,-0.5395,-0.5395,-0.5395,-0.5395,-0.5395,-0.5395,-0.5395,-0.5409,-0.5467,-0.5552,-0.562,-0.5725,-0.582,-0.5901,-0.5956,-0.5918,-0.5833,-0.5688,-0.5583,-0.5535,-0.5484,-0.5521,-0.5511,-0.5405,-0.5443,-0.5453,-0.5399,-0.5395,-0.5395,-0.5395,-0.5395,-0.5395,-0.5395,-0.5446,-0.5498,-0.5542,-0.5498,-0.5569,-0.5725,-0.5776,-0.5881,-0.5996,-0.6186,-0.63]}]]